GFSSE_sfc_dewp_000.txt.gz
Dewpoint
63 69 72 72 71 71 71 70 68 66 65 62 62 64 65 65 63 62 63 63 61 59 61 64 64 66 66 67 66 64 65 64 62 62 62 63 63 63 64 63 61 61 61
64 68 73 72 71 71 70 69 67 66 65 62 60 62 60 60 60 59 61 61 61 59 61 62 63 63 65 65 63 61 61 61 61 61 63 63 63 62 60 60 60 61 66
61 67 70 73 72 72 71 69 67 65 64 63 59 59 58 59 59 61 62 61 59 59 61 61 60 62 62 64 64 63 62 60 59 61 62 62 58 62 62 62 60 61 64
61 66 67 73 72 71 71 69 67 66 64 62 60 62 62 61 61 61 60 59 60 60 60 61 60 60 61 62 63 63 63 61 60 62 61 56 55 63 61 61 60 60 62
57 64 70 73 73 72 70 68 67 66 65 62 61 60 63 63 65 62 62 60 61 60 60 60 60 59 60 61 61 62 62 61 62 62 59 55 57 58 61 60 60 61 61
57 69 72 73 73 72 71 70 68 67 66 65 62 62 62 65 66 66 64 65 63 61 61 60 60 61 61 61 60 60 61 62 64 59 56 57 54 58 60 61 62 61 62
58 69 71 73 73 72 72 70 69 68 66 64 63 62 62 66 66 66 65 65 63 62 61 61 59 61 62 63 62 62 62 64 61 56 55 56 56 57 58 60 62 62 62
59 64 70 72 72 72 71 71 70 69 67 66 63 61 62 65 66 66 66 65 63 62 63 62 61 61 62 64 64 64 64 64 60 56 54 55 59 60 60 60 61 62 63
60 62 65 68 70 72 72 71 70 70 69 68 66 64 65 65 64 65 66 64 64 63 63 64 63 63 62 62 63 64 66 65 62 59 56 55 61 61 61 61 60 61 62
60 61 62 64 66 68 68 70 70 70 69 68 67 67 67 66 66 66 66 66 65 64 64 63 63 63 63 63 64 66 66 65 62 59 57 56 62 61 61 62 62 61 61
60 61 61 62 65 64 65 67 69 68 68 68 66 66 65 63 60 63 63 65 65 64 64 64 64 64 65 65 65 65 65 62 59 57 56 60 63 60 60 61 62 62 62
59 60 61 62 63 63 62 66 65 65 65 65 64 63 63 58 60 60 61 63 65 66 66 65 65 66 65 63 61 62 63 61 59 57 57 63 63 61 61 61 61 62 63
56 59 61 62 63 63 63 63 63 63 62 61 60 59 59 58 59 60 61 61 62 63 63 63 64 64 62 60 59 58 58 58 57 57 59 63 64 63 63 63 64 63 63
53 57 60 61 63 63 64 64 62 61 61 60 60 59 59 60 60 60 60 61 61 61 61 61 61 61 60 60 59 59 58 59 59 58 59 63 65 65 64 64 65 65 64
51 54 57 60 63 64 63 64 63 61 61 60 61 61 61 61 61 62 62 62 62 61 62 61 60 60 59 59 59 58 58 59 59 59 60 61 64 66 66 65 64 64 64
51 54 55 57 61 63 63 63 63 62 61 61 61 61 61 61 62 62 62 61 61 61 61 60 59 57 56 56 55 56 56 56 56 56 57 58 62 65 66 66 65 65 65
48 49 50 53 57 61 62 63 62 61 61 61 61 60 60 61 61 61 61 60 59 58 55 53 52 52 52 53 53 54 54 55 55 55 54 55 57 60 64 66 67 66 65
48 51 52 51 54 58 61 61 61 60 60 59 60 60 58 58 58 53 51 47 47 48 47 46 45 45 46 45 45 46 47 44 45 51 51 52 54 55 60 64 64 65 65
49 52 53 53 55 58 60 59 58 57 55 50 47 45 44 44 44 45 44 43 42 45 45 44 43 44 42 42 42 38 40 45 40 42 44 42 42 44 46 54 60 62 62
51 53 55 57 57 58 57 57 49 46 45 45 44 41 40 40 40 42 42 41 41 42 42 39 37 37 39 40 34 38 38 37 40 42 39 36 40 40 42 44 45 52 60
53 53 55 56 57 57 57 50 48 47 45 43 41 37 36 36 37 37 38 37 37 38 36 33 34 34 36 36 36 33 36 37 37 34 34 39 34 37 35 38 44 40 43
51 53 55 54 52 51 51 49 48 45 44 43 41 38 33 30 30 28 31 32 31 35 33 32 32 35 35 35 33 33 32 29 32 34 36 31 33 32 32 34 28 27 34
48 48 48 49 49 49 48 47 46 46 43 41 40 38 33 27 26 27 28 29 29 32 33 32 31 32 35 34 32 30 29 30 28 33 30 32 26 31 27 28 27 28 27
47 48 47 47 47 47 46 45 41 39 39 39 38 36 32 27 24 25 26 28 28 31 29 30 29 31 33 33 32 29 29 28 27 26 30 27 26 25 26 29 27 29 27
47 45 44 42 42 42 41 40 40 39 38 37 34 30 26 26 24 24 25 26 26 29 27 27 27 29 33 31 30 30 27 27 25 25 24 23 24 25 30 27 28 27 25
47 45 43 41 41 41 40 39 38 37 35 32 29 27 25 26 27 23 24 23 24 25 25 26 25 27 28 29 29 27 26 23 22 23 23 22 23 23 27 24 26 21 23

GFSSE_sfc_dewp_003.txt.gz
Dewpoint
66 71 74 73 73 72 72 71 68 67 64 63 64 66 68 65 63 63 64 62 61 61 60 63 65 66 67 67 67 64 66 64 63 62 63 63 62 61 64 64 60 62 63
68 71 74 73 72 72 72 70 68 67 65 62 61 61 62 62 60 61 62 61 60 60 60 61 62 63 64 65 64 63 62 62 60 61 62 64 63 62 62 61 61 61 65
69 71 72 74 73 73 72 69 68 67 65 62 61 60 60 60 61 63 62 60 60 61 60 60 59 60 61 63 63 64 63 61 60 61 62 61 61 62 62 63 62 61 63
68 70 71 74 73 73 71 69 68 67 65 63 61 62 59 62 60 59 62 61 61 60 60 60 59 58 60 62 62 63 63 63 61 62 61 61 56 61 63 62 61 61 62
67 68 70 74 73 73 71 69 68 68 65 64 62 61 63 64 66 64 63 61 62 61 60 60 60 60 60 59 60 61 61 62 63 63 61 60 56 59 64 62 61 61 62
67 68 73 73 74 73 71 69 69 68 67 65 64 63 63 65 67 68 66 66 64 63 61 60 60 61 62 62 62 61 60 61 64 62 59 58 56 58 60 62 62 62 63
69 70 72 74 73 73 72 71 69 68 67 66 65 64 64 66 67 67 66 66 65 64 63 62 60 61 62 63 65 64 63 64 62 60 57 56 57 61 60 60 62 63 63
70 71 72 73 73 73 73 72 71 69 68 67 64 64 63 65 66 67 68 66 64 63 62 63 63 63 62 63 64 65 66 66 62 59 57 56 58 61 63 62 61 62 63
68 71 71 71 72 72 72 72 71 71 70 68 67 65 66 65 64 66 68 66 65 64 64 65 65 64 63 63 63 65 66 66 63 61 59 58 60 62 62 63 63 62 62
63 66 69 70 71 71 70 71 70 70 70 69 68 68 67 66 66 66 67 67 65 65 65 64 63 64 64 64 64 65 66 66 64 62 61 59 63 63 63 62 62 63 63
61 62 65 68 68 70 68 68 69 69 69 68 67 66 65 64 62 63 65 66 66 65 65 64 65 65 66 66 66 66 65 63 62 61 60 62 63 64 62 63 63 62 62
60 61 62 65 67 67 66 68 67 67 67 66 65 64 64 62 60 62 62 64 65 66 67 66 66 67 66 64 63 63 61 62 62 60 60 63 64 63 64 66 66 64 63
60 61 62 63 65 64 66 66 65 65 65 65 64 63 63 59 60 60 61 62 61 63 63 63 63 64 63 63 62 60 59 60 61 60 60 64 64 64 64 66 67 67 66
58 61 62 63 64 64 64 64 63 63 62 61 61 60 60 60 60 60 61 61 62 62 62 62 62 61 61 61 61 60 60 60 60 60 60 63 65 65 66 66 67 67 67
55 59 61 63 64 64 64 64 64 62 61 61 61 61 61 62 62 62 62 63 62 62 62 61 61 59 58 58 57 56 56 57 59 60 60 62 64 66 66 66 66 66 66
53 57 61 62 64 65 65 64 64 63 62 61 61 61 62 62 62 62 62 60 60 59 58 53 51 50 51 51 51 50 53 56 56 56 55 56 61 63 64 66 66 65 64
50 52 57 61 64 64 64 64 63 61 61 61 60 61 61 62 61 60 49 46 49 49 47 46 44 46 46 45 45 47 48 46 46 47 50 55 58 60 62 63 65 65 64
52 53 53 58 63 63 63 63 61 60 59 59 53 45 44 45 47 46 44 43 44 46 45 43 43 42 42 43 44 42 40 43 43 41 47 46 47 46 53 59 59 57 61
52 53 53 56 61 61 59 57 51 46 45 45 43 41 40 40 41 42 42 41 41 43 41 38 38 37 38 39 34 37 39 38 40 43 42 38 41 44 44 50 55 58 56
53 55 55 59 59 56 47 45 44 43 43 41 39 37 37 38 36 38 38 36 38 39 36 34 32 33 36 36 34 33 33 38 38 35 35 37 38 39 39 41 46 40 47
54 56 57 57 56 50 46 45 44 43 41 39 36 34 32 32 33 32 34 32 34 34 32 31 32 33 34 35 35 29 36 37 33 28 30 36 33 30 36 30 29 29 32
54 55 54 53 53 49 48 48 45 42 41 40 38 31 28 27 28 28 30 30 30 32 30 31 31 33 35 34 32 31 30 30 30 27 33 28 30 29 29 26 29 30 27
48 48 49 48 48 47 45 44 44 43 41 40 37 33 27 25 26 27 28 28 30 31 31 30 31 31 33 33 32 29 28 28 25 30 20 28 21 30 26 30 30 24 30
47 48 48 48 47 46 44 43 40 39 38 39 38 33 28 24 24 26 27 27 28 29 27 28 27 30 30 31 32 30 29 28 27 23 28 22 29 24 28 29 26 28 20
45 43 42 42 41 41 41 39 40 39 38 37 33 29 25 24 24 25 25 25 25 27 25 25 24 26 29 28 30 30 27 28 25 24 21 22 24 25 28 26 28 21 23
43 41 41 40 40 40 40 39 38 35 32 30 26 26 26 26 25 23 22 22 22 23 23 24 23 23 23 25 26 27 26 23 21 23 20 20 23 22 25 25 22 22 21

GFSSE_sfc_dewp_006.txt.gz
Dewpoint
66 71 74 73 73 73 72 69 68 67 64 65 65 66 67 66 64 64 64 61 61 61 60 62 64 66 67 67 66 65 65 62 61 61 61 63 62 61 62 64 62 62 64
68 71 74 73 73 72 71 69 68 66 64 63 63 64 65 63 62 62 62 61 59 60 59 60 62 63 64 64 64 63 64 61 60 60 62 62 63 62 62 62 61 61 64
70 71 72 73 73 73 71 69 68 66 64 62 61 61 62 61 63 63 62 60 61 60 59 59 59 59 61 62 62 63 63 61 61 61 62 61 61 62 63 62 62 62 62
70 71 71 74 73 72 71 69 68 66 65 63 62 60 62 62 60 58 62 61 61 60 60 59 59 57 59 61 62 62 62 63 62 62 61 60 60 61 63 63 63 62 62
69 70 71 74 74 73 70 69 68 66 65 63 63 62 63 64 64 64 63 62 62 62 61 60 60 60 60 60 60 60 62 62 64 63 60 60 59 58 63 63 63 63 62
68 69 72 74 74 73 72 69 69 67 65 64 63 63 63 66 67 67 66 67 65 63 62 60 60 60 62 63 63 63 62 61 65 62 61 58 59 60 60 62 63 62 62
66 69 72 73 74 73 71 70 69 68 67 65 64 64 65 66 67 67 67 68 65 64 62 61 62 62 62 63 64 65 64 66 62 60 59 57 56 61 62 62 62 63 63
68 70 71 73 73 72 71 71 70 68 68 67 65 64 65 64 65 67 67 66 64 63 62 63 63 64 63 62 63 64 66 66 64 60 59 58 59 62 62 62 63 62 62
70 71 71 72 72 72 72 72 71 70 69 67 66 65 66 65 64 65 68 66 65 64 64 64 64 63 63 64 64 64 66 66 64 62 61 59 61 63 63 63 63 63 64
70 70 70 70 71 70 70 71 70 70 70 69 68 67 67 66 66 66 68 67 65 65 65 64 63 64 64 65 65 66 66 65 63 62 62 61 64 65 65 64 64 63 63
67 68 69 69 69 69 69 69 69 69 69 68 67 66 65 62 62 63 65 65 67 65 65 65 65 66 67 66 66 66 65 63 61 62 61 63 64 65 65 65 64 64 63
61 64 67 68 68 68 68 67 67 67 67 66 65 64 64 62 61 60 63 65 66 66 66 66 66 67 67 64 63 64 62 61 61 61 60 63 65 66 66 66 67 66 66
60 61 64 67 67 67 66 66 66 66 65 65 64 63 63 61 59 60 60 61 61 62 62 63 62 62 62 63 62 61 60 59 60 61 61 63 64 65 66 66 66 66 66
59 61 62 65 66 65 66 66 65 64 64 63 64 63 61 60 60 60 60 61 61 62 62 62 61 58 56 55 57 56 55 57 59 60 60 63 63 61 63 62 65 66 66
57 60 62 63 64 64 64 64 63 62 62 61 61 60 61 61 61 62 62 62 60 60 57 51 49 48 48 48 48 47 49 52 52 54 55 58 60 60 61 60 61 62 64
55 60 61 63 64 64 64 64 63 62 61 61 61 61 62 62 62 60 47 48 50 49 46 45 44 44 42 44 42 44 44 44 45 45 47 50 58 58 55 54 55 59 62
54 59 61 63 64 64 64 64 62 62 61 60 60 57 58 57 49 45 43 43 46 45 42 40 39 38 39 39 39 40 38 39 41 40 44 43 46 52 53 51 55 50 52
52 55 59 63 64 64 63 63 61 60 58 49 44 43 43 44 44 42 41 40 42 40 38 37 37 35 37 37 36 35 35 37 38 40 40 37 41 41 44 50 45 44 45
53 53 56 63 63 63 60 56 50 45 43 41 40 39 39 39 40 39 37 37 38 36 34 34 31 33 35 34 33 34 31 35 39 32 31 33 39 38 36 43 44 43 43
53 53 57 62 59 50 47 44 42 40 40 38 37 36 35 34 34 35 33 34 35 33 32 31 30 32 34 34 34 30 30 36 33 22 27 31 31 29 34 29 31 30 43
55 56 59 57 48 46 45 42 40 39 37 35 33 31 30 30 30 31 31 31 33 31 30 30 31 32 33 34 32 29 34 33 25 19 29 21 29 20 30 24 30 28 28
55 56 56 52 48 47 45 44 41 38 38 35 31 27 27 27 28 28 29 30 30 30 28 29 30 31 33 33 30 31 28 29 26 21 25 25 19 26 26 24 28 29 27
53 53 53 50 48 47 44 42 41 40 39 35 32 28 25 26 28 28 28 28 29 29 28 27 28 28 29 31 30 27 26 25 24 27 22 24 20 28 23 29 26 26 24
49 49 49 48 46 44 42 40 37 36 36 37 34 28 25 24 25 26 26 26 26 27 24 25 24 27 26 25 29 29 28 27 23 21 25 21 24 20 25 27 28 27 21
47 47 47 46 44 44 43 40 39 38 38 36 31 25 22 23 24 24 24 23 23 25 23 22 22 21 25 24 26 28 25 26 25 24 18 21 19 21 24 25 27 23 22
42 42 42 43 41 41 40 39 38 36 32 30 28 26 25 24 24 21 21 21 20 21 21 22 21 19 20 22 22 22 24 22 18 18 17 18 17 19 23 22 24 21 23

GFSSE_sfc_dewp_009.txt.gz
Dewpoint
65 68 73 73 73 72 71 69 68 66 65 65 65 66 67 68 66 65 64 62 61 59 58 61 64 65 68 67 67 65 65 62 60 61 62 61 62 62 61 62 63 61 64
66 70 74 74 73 72 71 69 68 66 65 64 64 66 67 65 63 62 62 61 60 59 58 59 61 62 64 65 64 63 64 64 61 61 62 62 62 62 62 63 61 60 64
68 71 73 74 74 72 71 69 67 65 63 62 62 64 62 61 63 62 61 61 60 60 59 59 59 60 61 62 63 63 63 62 61 61 62 61 60 62 62 63 62 62 63
70 71 71 74 73 72 71 69 67 65 63 62 61 61 61 61 62 61 61 61 59 60 60 59 59 59 58 60 61 62 62 62 62 63 61 60 60 62 62 63 63 63 62
70 71 71 74 73 73 71 69 68 66 64 63 62 62 63 62 62 61 63 62 62 62 61 60 59 60 61 61 61 60 60 60 64 64 60 60 59 59 61 62 64 63 63
69 69 72 74 74 73 71 69 68 66 65 63 63 63 63 65 66 66 65 67 65 63 62 60 60 60 60 62 63 64 64 63 65 61 61 60 59 61 62 61 61 63 62
67 69 71 74 74 73 71 70 69 67 66 64 63 64 65 65 66 67 68 68 64 63 62 61 61 62 63 62 63 63 65 66 63 60 59 59 57 61 61 62 62 62 62
66 69 72 73 73 73 71 71 70 68 68 66 64 64 65 64 65 67 67 66 65 63 62 63 63 64 64 64 63 63 65 66 64 61 60 59 61 63 63 62 62 63 63
67 69 71 72 72 72 71 71 70 70 69 68 66 65 66 66 64 65 68 66 65 64 64 64 65 64 63 64 64 65 66 66 64 62 62 61 63 65 65 65 64 64 64
69 70 70 70 71 70 70 71 71 70 69 68 67 66 67 66 65 65 68 67 65 65 65 65 64 64 65 65 65 66 66 66 63 62 62 62 64 65 66 66 66 65 65
68 69 70 70 70 69 70 69 70 69 69 68 67 66 65 62 61 62 64 65 66 66 65 65 66 66 67 66 66 66 65 63 62 61 61 63 65 66 66 66 66 66 66
66 67 69 69 68 68 68 68 67 67 67 66 65 63 63 61 60 60 62 65 66 66 66 66 66 66 64 63 63 63 61 60 60 60 61 63 65 65 64 64 65 66 65
64 65 67 67 67 68 67 66 66 65 65 64 63 62 62 61 59 61 60 61 61 61 61 62 62 61 58 58 57 56 55 56 57 59 60 61 59 59 59 62 62 63 65
59 62 65 66 66 66 66 65 65 64 64 63 63 63 62 60 60 60 60 62 62 62 61 56 50 47 45 46 46 45 46 48 50 53 53 56 58 58 58 58 59 61 64
55 60 62 65 65 66 65 64 64 63 63 63 62 62 60 60 60 61 59 54 51 49 47 44 43 40 41 40 40 41 41 42 42 44 47 53 55 52 53 55 58 56 56
42 57 61 63 65 65 64 63 62 62 62 61 61 61 62 62 59 46 46 47 45 44 42 39 37 38 37 37 35 37 37 34 39 40 43 42 50 47 52 53 51 50 50
50 58 61 63 64 64 63 63 62 62 61 61 58 58 55 48 44 44 43 43 41 39 37 33 33 35 34 33 32 34 34 34 38 34 37 37 42 44 47 45 46 46 47
52 59 62 64 64 64 63 63 61 60 52 46 45 44 43 42 41 40 40 39 36 34 34 31 33 33 33 32 32 33 32 33 33 26 31 33 38 32 39 40 42 41 45
53 58 62 64 64 63 61 55 50 45 43 41 41 40 39 38 36 36 37 36 33 33 32 31 30 32 32 30 31 33 30 34 30 20 27 26 32 28 33 33 39 38 40
53 55 62 63 62 54 48 45 42 40 39 38 37 35 34 33 32 33 33 33 31 31 31 29 28 30 33 32 32 29 29 36 26 22 28 22 25 22 32 25 31 30 37
53 55 61 59 51 49 46 42 40 38 35 33 31 30 30 30 30 30 32 31 31 29 29 28 30 30 31 32 31 30 31 31 25 21 27 24 22 24 26 25 27 28 28
54 56 56 51 48 47 46 42 40 36 35 31 29 27 28 28 28 28 30 29 28 27 26 26 28 28 29 31 29 30 26 27 27 18 23 25 20 26 22 23 27 26 29
54 55 51 49 47 45 42 39 37 35 35 30 27 26 26 27 28 28 27 27 26 27 26 25 25 24 24 26 29 23 19 23 24 25 18 22 17 24 21 27 27 26 26
53 53 49 48 46 43 40 38 33 31 30 32 29 25 24 25 25 26 25 24 24 25 22 23 23 24 24 23 27 26 25 25 23 21 23 17 22 18 22 25 26 28 24
51 51 49 47 44 42 40 37 36 36 36 33 26 22 21 23 23 23 23 21 22 24 21 20 20 18 23 21 24 25 23 24 24 24 15 18 18 18 18 20 26 21 23
48 48 47 45 43 42 39 38 37 36 32 27 25 24 23 23 23 20 20 20 19 20 20 20 18 17 18 19 20 19 21 20 19 18 17 16 15 14 19 19 20 23 22

GFSSE_sfc_dewp_012.txt.gz
Dewpoint
64 67 74 74 73 72 71 69 68 66 65 64 64 65 67 68 66 65 63 62 62 60 59 62 64 66 67 67 67 66 65 63 62 62 62 62 61 62 62 61 62 61 62
64 67 73 73 73 72 71 69 68 66 66 64 64 65 67 67 65 65 62 61 61 59 58 59 61 62 64 65 65 64 64 64 62 62 63 63 61 61 62 62 62 60 61
65 69 73 74 74 73 71 69 67 65 65 63 64 67 65 60 63 62 61 60 59 60 60 59 59 59 61 63 63 63 63 63 62 62 63 60 60 62 62 62 62 61 61
68 71 72 74 74 73 71 69 67 65 63 62 62 63 61 61 62 61 60 61 60 60 60 59 59 59 59 59 59 60 61 61 62 64 61 60 59 62 62 61 63 63 62
69 71 71 74 73 72 71 69 68 65 63 62 62 62 62 62 62 62 62 62 62 62 61 60 60 60 61 62 62 62 61 60 63 63 60 60 59 61 62 61 63 64 62
68 70 72 73 73 73 71 69 68 66 65 63 63 63 63 64 65 64 66 66 66 63 61 60 60 60 60 61 62 63 64 63 65 60 60 60 59 60 60 61 62 61 63
67 69 71 74 73 73 71 70 68 67 65 63 63 63 63 65 65 65 68 68 64 63 61 61 61 62 63 63 62 63 64 65 63 60 60 60 59 63 62 62 62 63 63
67 69 71 73 73 73 72 71 69 67 66 64 63 63 64 64 65 67 68 66 65 63 62 63 64 64 64 63 64 64 65 66 64 61 61 60 62 65 65 64 63 63 63
67 68 70 71 72 72 71 71 70 69 69 67 65 65 66 66 64 67 67 66 65 64 63 64 65 64 64 64 65 65 67 66 63 62 62 61 63 66 66 65 66 65 64
66 68 69 70 71 71 70 70 70 70 68 68 67 66 66 67 66 64 68 67 65 64 65 65 65 65 65 66 66 66 66 65 62 61 61 61 64 66 66 66 66 67 66
67 68 69 70 69 69 69 69 70 69 68 67 66 65 65 61 60 61 64 65 65 65 65 65 66 67 66 65 65 64 63 61 60 60 60 63 65 65 64 64 65 66 66
66 67 69 69 69 68 69 68 67 67 67 66 64 63 62 60 59 60 61 64 65 65 64 65 65 63 60 59 58 57 55 55 55 57 59 60 59 60 59 60 62 63 62
64 67 68 68 68 67 67 66 66 65 65 64 63 62 61 61 59 60 60 60 60 62 61 61 51 48 46 46 46 46 47 48 49 51 53 57 58 57 57 58 60 63 63
59 64 67 68 67 66 66 65 65 64 64 63 63 62 61 59 59 59 60 61 59 58 47 46 43 40 39 38 39 39 40 40 41 45 47 56 54 54 56 58 57 56 56
56 59 64 66 66 66 65 64 64 63 63 63 62 62 61 59 60 60 52 48 46 44 41 38 37 35 34 33 33 35 33 33 39 41 41 52 49 53 54 52 52 52 53
44 51 61 65 66 65 64 63 63 63 63 62 61 61 61 62 53 48 46 44 41 39 35 33 34 33 31 31 29 33 30 36 34 33 37 40 44 48 47 48 48 49 51
40 42 60 63 65 65 64 64 63 63 62 61 61 62 59 47 45 44 42 38 36 34 31 31 32 32 29 28 27 32 30 34 25 29 30 36 36 41 42 45 44 46 46
47 55 60 62 64 64 63 63 63 63 56 52 50 47 44 42 41 40 37 35 32 32 30 29 31 32 28 28 27 31 29 35 21 25 26 31 29 29 34 40 40 41 43
50 57 61 63 63 63 62 59 54 50 49 45 43 42 38 36 36 35 34 32 31 31 29 28 29 32 28 26 26 30 28 34 23 23 22 27 23 28 29 33 35 36 38
53 58 62 63 63 58 52 49 47 42 42 39 37 35 33 32 32 33 31 29 29 29 27 26 27 27 32 29 29 27 30 35 25 23 25 25 22 26 27 25 28 29 35
53 59 62 62 56 51 51 48 45 40 36 33 31 30 29 29 30 30 31 29 28 27 25 25 27 27 27 30 27 27 29 30 29 25 24 25 22 23 24 24 24 28 29
52 58 60 57 52 51 50 45 40 35 32 30 31 29 29 28 28 28 28 27 25 25 24 24 24 24 24 28 24 28 23 22 24 18 22 23 18 24 23 19 23 24 27
52 56 55 52 51 48 41 37 33 30 29 28 27 27 27 27 27 26 25 25 24 25 24 23 23 22 22 23 28 18 14 17 24 24 21 23 16 23 20 23 23 22 27
52 53 50 49 47 43 41 37 32 30 26 28 26 25 25 25 25 25 24 23 23 24 21 21 20 22 22 21 24 23 22 22 19 19 21 16 20 16 20 21 19 24 26
53 50 49 48 46 41 40 36 32 30 31 28 24 22 21 22 23 23 22 21 21 23 20 18 18 17 21 19 21 22 21 22 23 23 14 16 16 16 17 17 22 20 18
51 49 49 47 43 40 38 35 33 32 26 24 23 22 22 23 23 20 20 19 18 19 18 19 17 16 17 17 18 18 19 17 18 17 17 15 15 15 17 17 18 21 23

GFSSE_sfc_dewp_015.txt.gz
Dewpoint
64 67 74 74 73 72 70 69 67 66 66 65 64 65 68 68 67 65 63 62 62 61 60 63 64 67 66 65 68 67 65 63 63 62 63 62 60 61 61 60 62 60 61
64 67 74 74 73 72 70 69 68 67 66 65 64 65 67 67 66 65 63 61 61 59 59 59 62 63 65 66 66 65 64 64 62 63 64 62 61 61 61 62 62 59 61
65 68 71 74 74 73 70 69 68 66 65 63 64 66 65 62 64 62 62 61 59 61 60 59 60 60 62 63 63 63 62 62 62 63 62 59 60 62 62 61 62 61 60
66 68 70 74 74 73 71 69 67 65 64 63 64 66 62 64 61 59 61 61 60 61 60 59 60 60 59 59 59 59 59 59 61 64 60 60 59 60 62 62 62 64 63
66 69 71 74 74 73 71 69 67 65 63 63 62 63 62 63 63 61 61 61 61 62 61 60 60 61 61 62 62 62 62 62 62 62 61 61 60 58 61 62 62 65 63
69 70 72 74 74 72 72 69 68 65 64 63 62 62 62 62 62 64 65 66 65 63 61 60 61 62 62 62 62 63 64 64 64 62 62 62 61 61 62 60 62 62 60
70 71 71 74 74 73 72 70 68 67 65 63 64 63 62 64 65 66 67 68 64 63 61 61 63 63 64 64 63 63 63 66 62 63 62 62 62 64 64 64 62 63 63
69 70 71 72 73 73 72 71 69 67 66 64 63 63 63 65 64 68 68 67 65 63 63 63 64 64 64 63 64 64 65 66 62 62 62 62 63 65 66 66 65 64 64
68 69 70 71 71 72 71 71 70 69 68 66 65 65 66 66 64 68 67 66 65 64 64 64 65 65 65 65 66 66 66 66 63 62 62 62 63 66 66 66 66 66 66
67 68 70 71 71 71 70 70 70 70 69 68 67 66 66 66 65 65 67 67 65 64 65 65 66 66 67 66 66 65 64 63 60 61 61 61 65 66 65 65 65 66 66
65 67 69 70 71 71 70 69 69 69 68 67 66 65 65 63 62 62 64 65 65 65 65 66 66 64 63 61 59 58 58 52 53 55 57 62 62 62 62 60 61 63 63
65 66 68 69 70 70 69 69 69 67 67 65 64 64 63 61 59 60 62 64 64 64 64 63 56 53 51 48 47 50 46 47 45 47 50 58 58 58 59 59 60 63 63
64 66 67 68 69 69 69 69 68 68 67 66 64 64 63 61 61 61 62 62 63 62 55 48 45 42 42 41 41 40 40 39 42 46 53 56 57 57 57 60 59 58 59
62 66 67 68 68 69 69 68 68 66 66 66 65 63 63 60 61 61 61 57 51 47 43 42 39 36 34 33 35 34 31 38 42 42 49 53 55 57 56 55 55 55 57
57 61 66 68 67 68 68 68 67 66 66 65 64 63 63 61 62 59 49 46 43 40 38 37 35 30 29 28 32 32 34 35 35 38 43 51 52 51 52 51 51 54 53
51 56 60 66 68 68 68 67 66 66 65 64 64 63 63 62 56 49 44 42 39 34 33 33 31 28 26 25 30 31 32 28 31 32 34 36 46 47 48 48 48 49 48
43 44 52 62 67 67 67 66 65 65 64 63 62 62 61 51 48 44 40 36 34 32 29 29 31 27 24 23 25 29 30 25 27 30 28 30 33 40 43 43 43 44 45
43 45 48 58 65 66 66 65 65 65 63 61 59 55 47 44 43 39 36 34 31 30 30 28 30 29 24 24 24 29 29 29 25 24 27 26 31 28 32 38 38 39 40
44 48 56 62 64 65 64 64 62 58 56 52 48 45 41 40 38 34 32 32 29 28 28 26 26 30 25 25 24 26 29 32 24 24 25 26 28 28 26 30 33 33 35
48 52 59 63 64 63 58 53 50 47 44 45 41 37 35 35 33 32 30 29 27 27 25 26 23 26 27 26 22 21 33 36 28 27 22 24 24 26 26 26 25 23 31
53 58 62 62 61 57 55 50 49 44 40 37 35 32 32 31 31 31 29 27 27 25 24 22 26 23 24 27 22 23 27 30 30 30 22 25 23 23 24 21 20 20 20
52 60 61 60 57 58 55 53 47 41 35 33 33 31 30 30 29 28 27 26 25 24 24 23 23 23 23 27 19 24 19 17 22 18 24 23 20 20 20 17 18 19 21
53 59 60 58 56 56 49 41 35 32 31 30 30 30 29 28 27 27 26 25 25 26 24 24 24 24 20 24 24 14 15 14 18 21 21 23 17 20 16 19 18 17 18
53 58 57 55 53 47 45 42 38 37 33 29 29 28 27 26 26 25 25 24 24 23 23 22 20 23 22 21 23 19 20 18 14 13 19 17 19 14 17 18 16 17 18
53 56 54 52 49 46 45 42 39 37 31 28 27 25 24 24 24 24 23 23 22 22 21 20 21 20 22 18 21 21 20 19 21 21 12 14 15 17 18 17 17 17 17
54 53 52 51 46 45 43 38 37 33 27 26 25 23 22 22 23 22 21 21 21 20 20 21 21 21 20 19 19 19 17 14 13 14 13 14 16 16 18 18 17 17 19

GFSSE_sfc_dewp_018.txt.gz
Dewpoint
62 69 74 74 72 72 70 69 67 67 66 65 65 68 69 68 66 65 64 63 62 60 60 63 65 69 64 64 68 66 64 63 63 63 63 61 60 61 61 60 62 59 61
63 68 75 74 73 71 70 69 68 67 66 65 65 66 68 68 67 65 63 61 60 61 59 60 62 64 66 67 66 65 65 64 63 63 62 60 60 61 61 62 62 59 60
62 67 70 74 74 72 70 69 68 67 65 64 65 65 67 66 66 64 62 61 60 62 60 59 61 61 62 63 63 63 62 62 62 63 62 56 55 61 61 62 62 61 59
62 67 67 74 74 72 71 69 67 67 64 64 68 65 63 63 62 61 61 61 61 62 60 60 61 61 60 60 60 59 59 59 61 63 55 51 52 58 62 63 61 64 63
63 66 68 74 74 73 71 69 67 65 64 63 65 64 64 63 60 59 60 60 62 62 61 61 61 61 61 62 63 63 63 62 62 62 58 58 58 55 59 61 62 62 65
62 65 72 74 74 73 71 69 67 65 63 63 64 64 62 62 62 63 63 64 63 63 61 61 62 63 63 63 62 63 64 65 64 59 60 60 61 62 64 63 61 62 62
63 65 69 74 74 73 71 69 67 65 64 63 63 63 62 65 65 67 65 66 64 63 62 62 63 64 64 63 63 64 64 65 60 60 61 61 62 64 65 65 65 64 63
63 66 67 72 73 73 71 70 69 67 65 64 64 63 63 65 65 68 67 66 65 63 63 63 64 65 64 64 65 65 65 66 61 60 61 62 63 65 66 67 66 66 66
63 66 66 67 71 72 71 71 70 68 67 65 64 63 64 66 65 68 68 66 65 64 64 65 65 65 65 66 67 66 66 65 62 59 58 60 64 66 65 66 66 66 67
63 65 65 65 67 68 69 70 70 69 69 68 67 66 67 66 65 67 68 67 65 65 65 66 67 67 66 65 63 61 60 61 56 57 57 59 64 65 64 63 62 63 65
62 64 65 64 66 67 67 67 69 69 68 67 66 66 64 60 59 60 63 65 65 65 65 66 63 61 60 57 56 55 57 51 50 50 51 58 59 60 60 60 60 62 63
61 62 64 65 65 66 66 67 65 63 64 62 62 63 60 59 56 59 62 64 64 64 63 57 53 50 55 49 48 51 47 45 44 46 48 58 57 57 57 61 60 60 61
59 62 64 66 67 67 66 66 65 63 64 63 63 62 58 57 58 59 61 61 63 62 58 53 49 45 44 42 42 39 37 37 39 42 51 56 56 56 60 58 57 58 58
57 61 64 65 68 69 66 66 65 63 64 63 63 62 59 58 60 59 61 60 55 51 48 47 44 40 37 33 33 32 31 36 37 40 47 56 56 56 55 54 55 56 55
55 59 63 66 67 68 67 66 65 64 63 63 63 61 59 59 60 61 54 49 45 45 44 42 38 32 29 27 29 28 29 31 35 38 42 52 52 52 52 52 53 52 52
50 53 58 64 67 68 67 67 65 64 62 63 63 61 61 60 61 53 48 44 43 40 37 33 29 27 25 24 26 26 27 29 31 36 36 41 47 47 47 47 47 47 48
43 45 50 58 64 67 67 67 65 64 63 63 62 62 62 60 54 47 42 40 38 33 28 29 29 27 25 23 22 26 27 27 29 31 31 32 34 41 41 42 42 42 43
45 44 44 47 57 64 65 66 65 64 63 64 63 63 58 51 47 41 38 35 31 30 30 28 28 28 25 24 23 25 25 27 26 26 26 26 29 26 30 37 38 37 39
44 44 46 50 52 58 63 65 65 65 64 62 60 54 50 45 40 36 35 31 29 29 28 24 25 25 24 25 21 21 26 30 27 22 25 26 28 28 26 26 31 29 33
43 44 46 52 56 59 63 66 64 62 57 53 51 47 45 39 35 35 32 29 28 28 25 25 23 24 24 23 19 20 33 34 29 29 27 21 25 26 25 26 24 23 28
44 46 49 54 59 61 63 61 57 52 50 45 41 39 37 33 33 33 31 29 28 26 24 21 23 24 24 23 21 24 26 28 31 31 28 19 23 22 21 20 19 19 19
44 48 53 57 61 61 60 60 57 51 46 38 37 34 33 32 32 31 30 28 27 26 25 24 24 24 23 24 20 24 21 19 21 25 19 22 17 18 19 17 19 19 20
45 50 56 59 61 60 60 57 50 44 36 33 32 32 32 29 29 30 29 27 27 27 26 25 25 23 22 24 22 14 17 18 16 20 21 17 19 17 17 20 19 19 19
47 53 58 60 60 60 53 49 48 49 43 33 32 31 29 28 28 26 26 25 25 25 25 22 20 22 21 22 24 17 17 15 15 14 18 18 16 15 19 19 18 18 19
47 55 59 59 59 55 52 51 53 47 45 33 30 27 27 27 27 25 24 24 23 22 22 22 22 21 22 18 20 20 17 18 17 18 17 16 16 17 18 18 18 17 17
48 56 59 59 57 53 50 48 47 39 32 30 28 27 26 25 25 24 23 23 22 22 22 22 23 22 22 21 18 18 15 15 13 14 14 15 16 17 18 18 18 17 18

GFSSE_sfc_dewp_021.txt.gz
Dewpoint
60 69 74 73 72 71 70 69 67 67 66 66 67 69 69 68 66 65 65 63 61 60 60 64 66 69 65 66 68 67 65 65 64 64 62 59 59 61 62 61 62 61 62
62 69 75 74 72 71 70 68 67 67 66 65 65 68 68 68 66 65 63 63 62 61 60 62 64 65 67 68 67 66 65 64 64 64 62 61 60 62 62 62 64 61 59
63 68 71 74 74 72 70 68 68 66 64 64 65 67 68 68 66 64 63 61 63 61 61 61 62 62 62 63 63 63 62 62 62 64 63 58 55 60 61 63 62 63 61
62 67 68 74 73 72 70 69 68 66 64 65 66 66 64 65 64 62 62 62 63 61 61 61 62 62 62 63 63 61 61 60 62 62 57 51 51 59 58 62 63 62 64
62 65 69 74 73 72 70 68 67 66 63 67 66 65 64 61 60 60 61 61 63 62 62 62 63 63 63 63 63 63 65 62 63 64 58 59 59 61 61 60 61 63 64
61 64 72 74 73 73 71 68 66 65 63 65 65 63 63 62 61 62 62 63 64 63 62 62 63 64 64 64 63 63 64 64 64 59 59 60 60 64 65 64 64 62 62
60 65 70 74 73 73 71 68 66 65 64 64 64 63 64 65 65 65 65 66 64 63 62 62 64 64 64 63 64 64 65 65 62 60 59 60 64 65 65 65 66 66 65
59 63 68 72 73 72 71 69 68 66 64 64 64 63 64 65 65 67 68 66 65 63 63 64 65 65 65 65 66 66 66 66 61 60 61 60 65 64 65 65 66 67 67
60 62 66 70 71 71 71 70 69 68 66 66 66 64 65 65 67 68 67 66 65 65 64 65 66 66 66 67 66 65 64 65 61 58 57 58 65 65 65 64 64 63 64
60 61 63 66 69 69 69 70 69 69 68 67 67 67 68 66 67 68 68 67 66 65 66 67 66 66 65 63 60 58 59 62 55 54 53 57 61 62 62 61 61 62 64
59 61 61 62 66 66 67 67 69 69 68 67 66 66 64 60 60 62 64 66 66 66 66 63 60 59 59 58 55 53 57 50 49 47 48 59 59 59 59 60 62 61 62
58 59 61 61 63 65 65 66 64 63 65 63 62 62 59 56 56 58 62 65 65 65 61 57 52 51 55 50 50 53 45 42 41 44 51 58 58 57 62 60 59 61 59
57 58 61 62 62 63 64 67 64 62 63 61 60 60 56 55 56 58 60 61 63 63 58 55 51 48 46 44 43 39 37 37 37 42 53 58 57 58 58 57 58 58 57
54 58 60 62 64 64 65 65 64 61 62 61 61 60 56 55 57 57 58 63 58 55 52 50 47 43 40 35 33 32 31 35 35 39 51 55 56 56 55 56 55 54 55
51 55 59 62 64 66 65 65 64 63 61 61 62 61 57 56 56 57 58 55 51 50 48 46 43 36 30 28 27 28 26 29 31 36 46 53 52 52 52 52 51 51 51
49 52 57 60 62 65 65 64 64 63 61 62 63 61 57 57 58 58 54 50 48 46 42 37 31 29 28 26 25 26 25 27 29 34 37 44 47 46 46 46 46 45 45
43 47 51 58 61 63 64 65 64 64 61 62 63 60 59 61 59 54 50 46 44 39 33 31 30 30 28 26 25 25 25 25 29 31 33 37 40 42 40 41 41 41 42
43 43 44 49 57 62 65 64 63 63 61 64 63 61 61 60 56 49 44 43 39 35 33 31 29 29 29 28 26 27 26 28 26 27 29 29 34 28 38 34 35 36 37
42 43 45 46 49 56 63 63 63 64 64 63 63 63 60 52 47 43 40 39 34 33 32 27 28 28 28 30 26 25 29 31 29 24 26 27 30 32 32 34 29 32 30
40 43 44 46 48 50 58 61 65 65 64 64 62 58 51 45 40 38 37 35 33 32 30 28 27 28 27 28 21 23 34 35 33 30 28 25 26 28 29 31 30 28 32
39 41 43 45 50 52 57 62 64 63 62 59 56 51 46 39 37 39 37 33 33 31 29 26 27 28 28 27 29 31 31 27 32 32 33 27 26 26 25 26 24 25 24
41 43 43 45 50 55 60 64 63 60 55 50 49 40 37 36 36 37 35 33 31 31 30 29 30 29 28 27 23 30 28 25 25 26 27 23 23 25 23 22 22 24 26
42 44 44 48 54 58 62 62 56 47 42 41 39 36 34 34 35 36 34 32 32 33 32 31 31 30 29 28 24 18 25 25 20 26 25 24 22 24 23 24 23 23 23
42 49 49 52 57 59 61 59 52 50 46 45 41 34 31 31 33 33 31 31 31 31 30 28 25 27 28 27 27 18 20 18 18 19 24 24 22 17 22 23 22 22 22
41 49 52 54 58 59 60 56 54 54 50 43 34 30 29 31 32 31 29 30 29 29 27 27 26 25 24 20 23 23 19 22 19 21 20 22 21 21 22 22 22 21 20
40 51 55 57 58 59 59 54 55 54 43 41 32 29 29 31 30 29 28 29 27 27 27 27 27 26 23 22 21 19 17 17 16 17 17 19 19 20 21 22 22 21 22

GFSSE_sfc_dewp_024.txt.gz
Dewpoint
69 71 74 72 71 71 70 69 68 67 67 68 70 70 69 67 66 66 65 63 62 61 63 65 68 69 68 69 68 67 66 65 65 64 61 59 61 62 63 63 64 61 62
69 71 73 73 72 71 69 68 68 67 66 66 67 69 69 67 66 65 63 63 61 61 62 64 65 66 67 68 67 66 65 65 64 64 63 63 63 61 62 63 63 63 61
68 71 71 73 73 72 69 68 68 67 65 65 65 68 69 67 66 64 63 63 61 61 62 63 63 63 64 63 63 62 62 61 61 63 65 62 60 61 62 64 63 62 63
68 69 70 74 73 72 69 68 67 65 66 66 67 67 67 66 64 63 63 64 62 62 62 62 62 62 63 63 63 63 63 62 62 65 62 58 57 60 58 59 62 62 65
67 68 71 73 73 72 70 69 67 65 67 68 68 66 64 63 62 63 63 64 63 62 63 63 64 64 64 63 63 64 66 64 66 65 61 59 59 63 64 63 62 62 62
65 69 73 73 73 72 71 68 67 65 67 67 68 66 64 63 63 62 64 65 64 63 63 64 65 64 64 64 64 63 63 64 66 60 59 62 63 65 65 63 64 64 63
68 71 72 73 73 72 70 69 67 65 65 66 65 65 65 66 65 65 67 66 65 64 63 64 65 65 65 65 65 65 65 66 63 62 59 62 64 65 65 64 66 67 67
68 69 71 73 73 72 70 69 68 65 65 65 66 65 66 65 66 67 67 66 65 64 64 65 66 65 66 66 66 66 66 66 62 60 58 63 65 65 64 64 65 64 65
63 69 70 71 71 71 70 69 69 67 67 67 67 67 67 67 69 68 68 67 66 65 65 66 67 67 67 66 65 64 64 64 62 58 58 60 64 63 63 62 62 63 65
61 66 69 70 70 69 69 69 69 68 67 67 67 67 67 66 68 69 68 68 66 66 67 67 66 65 65 62 58 57 59 60 57 50 55 58 60 60 60 61 63 63 63
61 61 66 69 69 68 68 68 69 68 67 66 66 66 65 63 65 66 66 66 67 66 66 63 61 62 61 61 58 57 57 48 43 50 55 59 59 58 63 62 62 62 61
59 60 61 67 68 67 67 67 66 66 65 64 62 64 63 60 60 62 63 66 66 66 63 59 55 57 58 52 51 54 40 37 40 49 56 59 56 61 60 60 60 59 59
58 59 60 61 64 65 65 66 64 64 65 63 62 61 60 57 59 61 62 63 63 62 58 55 52 47 43 41 39 36 35 36 38 52 56 59 59 60 57 59 57 57 58
57 58 60 61 62 65 66 66 64 62 64 63 61 60 55 56 56 58 60 62 62 61 52 50 47 42 37 30 30 30 28 34 33 49 54 57 56 56 57 56 54 54 54
53 58 59 61 63 64 64 65 64 63 62 62 61 60 56 56 57 57 60 55 52 51 48 45 38 32 29 27 26 27 25 28 31 46 49 54 52 52 52 51 50 49 48
47 54 59 61 63 65 64 64 63 64 62 61 62 61 58 57 58 57 53 51 50 46 40 34 29 29 29 27 26 25 24 26 28 37 44 47 49 47 46 45 44 44 45
43 51 56 60 62 64 64 64 64 64 63 63 62 61 58 59 56 54 51 48 45 37 33 33 31 30 29 28 27 25 24 26 27 31 37 40 42 44 40 39 40 40 41
43 44 51 58 60 63 64 64 64 64 62 63 63 63 59 58 53 49 47 44 39 36 34 32 30 31 29 29 27 26 26 27 25 27 27 30 33 35 38 35 34 35 35
41 44 46 53 59 61 64 64 64 64 64 63 63 62 61 54 49 45 42 40 36 35 32 29 29 29 28 28 26 22 29 29 27 24 25 27 29 29 29 33 35 35 32
37 41 44 48 49 56 64 64 63 63 64 64 63 60 51 48 44 41 38 36 36 34 31 29 28 29 28 28 24 25 32 33 30 28 27 26 27 26 26 26 26 27 33
39 37 43 46 46 47 57 62 63 63 63 62 59 53 46 41 39 38 39 35 35 32 29 27 28 28 29 28 29 28 30 26 31 31 32 32 26 24 23 23 24 25 25
41 40 39 43 47 48 50 60 64 61 58 54 54 47 41 38 39 38 35 34 32 31 30 29 29 30 29 27 23 27 26 26 26 24 27 23 21 21 21 20 21 21 23
40 41 43 44 46 51 57 61 49 48 44 44 41 38 37 36 36 35 34 33 33 34 33 30 29 27 29 27 23 20 21 22 20 24 22 22 19 23 21 22 22 21 22
35 42 44 45 47 54 63 57 53 54 48 45 43 42 44 34 35 34 33 33 33 34 30 28 27 27 27 26 27 21 19 18 19 19 24 23 23 19 21 22 21 21 21
31 42 46 46 51 58 62 56 54 50 47 42 38 35 31 32 32 32 32 31 31 32 25 26 26 24 24 22 24 23 19 22 20 20 20 21 21 22 22 22 22 22 20
34 37 49 49 56 59 60 55 54 51 44 38 36 34 31 35 33 32 32 30 29 29 27 27 26 24 23 23 22 20 19 18 18 18 17 18 19 20 22 22 21 22 21

GFSSE_sfc_dewp_027.txt.gz
Dewpoint
70 71 73 72 71 70 70 69 69 70 71 71 70 70 68 68 67 65 64 63 61 63 65 67 67 69 70 69 68 67 66 66 64 63 61 61 61 62 63 63 64 62 61
71 71 73 73 71 70 69 68 68 68 69 69 70 69 68 67 66 63 63 62 61 62 64 66 67 68 68 68 67 66 65 64 63 62 63 62 63 61 62 64 63 63 60
70 71 71 73 72 71 69 68 68 67 66 67 69 69 68 67 65 64 62 61 61 62 63 64 64 65 65 64 63 62 61 60 60 62 64 61 60 60 62 63 62 61 62
71 71 71 73 73 71 69 68 66 66 66 67 69 70 68 66 64 64 64 62 62 62 62 63 63 63 64 64 64 65 64 62 63 65 62 59 57 62 59 58 61 63 64
70 70 72 73 72 71 69 68 66 67 67 69 68 68 66 65 64 65 65 63 63 63 64 64 64 64 64 64 64 65 65 64 66 64 61 59 62 64 64 63 62 62 62
69 70 72 73 72 71 71 68 66 68 69 67 68 67 66 64 64 65 65 65 63 64 64 65 65 65 65 65 64 63 63 63 66 61 60 64 63 65 63 62 65 65 65
69 71 72 73 73 72 71 70 67 68 68 67 66 65 65 66 66 65 66 65 64 64 64 65 66 65 65 65 65 65 65 66 63 61 60 63 64 65 64 65 65 65 66
70 71 71 72 72 71 70 69 68 67 68 67 67 67 67 66 66 67 67 66 65 65 65 66 66 66 66 67 66 66 66 66 62 60 61 62 66 63 62 63 63 63 66
70 71 71 71 71 71 70 69 68 68 68 68 68 68 67 69 69 68 67 66 66 65 66 67 67 67 67 66 64 62 63 62 58 57 56 59 63 61 61 61 63 65 64
70 70 71 71 70 69 68 69 68 68 68 68 68 68 66 68 69 69 68 68 66 66 67 67 67 66 65 62 58 59 59 57 51 55 57 59 60 57 61 63 63 63 62
68 70 70 70 69 69 68 67 68 68 67 67 67 67 65 65 67 66 66 67 67 67 66 65 64 64 62 61 58 58 52 39 49 54 56 61 58 64 62 63 62 61 61
64 68 69 69 69 68 67 67 66 66 65 64 64 65 64 62 64 65 64 66 67 67 65 62 58 58 58 51 49 48 36 36 48 54 59 61 59 61 62 60 59 59 59
60 63 69 69 68 68 67 67 66 65 65 63 62 63 62 60 61 62 63 64 64 63 61 57 51 46 41 38 35 32 32 37 51 54 59 62 61 59 59 57 57 57 57
58 59 65 68 68 67 66 65 65 64 65 63 62 62 58 58 60 60 61 62 62 61 57 52 45 39 30 27 28 27 27 33 49 51 56 59 57 57 56 55 54 53 52
57 59 60 65 66 66 66 64 64 63 64 64 62 62 55 56 56 58 60 61 57 53 48 41 32 29 28 25 25 25 25 29 47 49 52 56 54 53 52 50 48 48 47
54 58 60 61 63 65 66 65 64 63 63 63 61 60 54 56 56 57 53 51 49 43 36 30 29 29 28 26 26 24 24 27 41 45 47 50 51 47 46 44 44 43 44
43 57 59 61 63 64 64 65 63 63 63 62 61 59 56 57 57 52 50 48 43 35 33 32 32 29 29 28 26 26 24 25 30 42 42 42 43 47 42 39 39 40 40
43 48 59 60 63 64 65 63 63 64 63 62 62 62 58 56 53 50 47 43 37 35 33 30 30 30 29 28 25 25 26 27 26 29 36 38 37 38 37 36 36 36 36
38 42 52 60 62 64 64 64 64 64 63 63 63 61 57 53 50 48 45 40 35 34 31 29 29 28 26 27 25 23 29 28 26 25 26 28 30 31 29 32 36 35 35
35 39 44 56 60 63 64 64 64 64 64 63 62 61 54 50 47 44 41 36 35 32 30 29 28 29 27 26 24 27 31 33 30 26 26 27 27 26 26 26 25 26 32
36 36 39 48 58 61 64 63 62 63 63 63 61 54 50 45 43 40 38 35 34 31 29 27 29 26 27 27 25 26 31 28 29 30 31 30 27 25 23 23 23 24 24
39 40 39 44 51 59 63 63 63 61 59 58 55 51 46 43 41 37 35 34 32 30 29 28 29 29 28 26 22 28 23 25 23 24 28 23 21 22 21 20 20 21 23
38 40 41 41 46 49 60 58 53 52 51 48 46 45 43 41 39 36 34 32 31 32 31 28 28 29 28 26 22 20 20 21 20 23 23 21 21 22 21 23 22 21 21
32 40 41 43 45 48 60 59 58 58 56 51 47 48 44 40 37 35 33 31 33 33 30 28 28 27 28 25 27 23 19 18 17 15 22 22 22 20 21 22 23 22 21
30 33 41 42 45 51 59 59 60 57 50 47 46 45 40 36 37 34 33 33 31 31 28 26 25 24 24 24 25 23 19 22 20 20 18 21 21 21 22 23 22 21 21
37 35 38 44 44 59 59 58 59 51 45 44 43 41 39 35 36 34 32 32 30 27 27 27 25 23 23 23 23 21 20 18 18 17 17 18 19 21 22 22 22 22 22

GFSSE_sfc_dewp_030.txt.gz
Dewpoint
69 71 73 72 72 72 71 72 72 72 72 71 70 68 68 67 66 65 63 62 64 65 68 67 65 66 69 68 68 67 66 65 62 62 62 63 62 62 63 64 63 61 62
70 71 73 72 71 71 70 70 71 71 71 71 70 68 68 66 64 63 62 61 62 64 66 68 69 70 69 68 67 66 65 62 62 62 62 62 63 61 63 62 63 61 60
70 70 71 72 72 70 69 68 68 68 70 70 69 68 68 66 64 62 61 61 63 63 65 66 66 66 65 65 63 61 60 60 61 62 63 60 59 60 61 62 61 62 62
70 70 70 72 72 70 69 68 67 67 68 69 69 69 67 65 64 62 62 62 62 63 64 64 64 64 64 64 64 65 63 63 64 66 61 60 58 62 60 59 60 62 63
70 70 71 73 72 70 69 67 66 67 67 69 70 69 66 64 65 64 63 63 63 63 63 63 63 63 63 64 64 64 64 64 65 61 60 58 62 64 63 63 63 62 61
70 70 72 72 72 71 70 68 68 68 69 68 70 69 67 65 65 66 64 63 64 64 64 64 64 64 64 64 64 63 63 65 64 62 60 61 63 64 63 63 66 66 65
70 71 71 72 72 71 69 69 69 69 68 66 67 66 65 65 66 66 65 64 64 65 65 65 66 65 66 66 65 65 65 66 61 61 60 63 63 64 63 65 64 64 65
70 71 71 72 72 71 70 69 69 70 69 68 67 67 65 66 66 66 66 65 64 65 65 66 66 66 67 66 66 65 65 64 59 59 60 61 65 62 62 62 63 66 66
70 70 70 71 71 71 70 69 69 70 68 68 68 69 68 68 68 67 67 66 65 65 66 66 66 67 66 65 63 61 60 61 57 57 57 58 64 60 61 62 65 63 63
70 70 70 70 70 69 68 68 68 69 68 68 69 68 67 68 69 69 68 68 66 66 67 67 67 66 65 62 57 59 55 58 54 56 57 59 60 60 63 64 63 63 62
69 70 70 70 69 68 67 67 68 68 68 68 68 66 66 66 67 67 66 67 67 67 67 66 65 64 62 59 58 55 47 49 52 54 56 61 63 63 64 62 61 61 60
67 68 69 69 69 68 67 66 66 65 65 65 65 64 62 65 65 65 65 66 68 68 66 63 61 61 56 50 40 44 36 48 53 56 59 62 62 63 61 59 59 59 58
68 69 69 69 69 67 66 66 66 65 63 63 63 64 63 62 63 64 63 64 64 64 61 56 50 45 38 36 33 29 35 50 53 56 61 63 59 60 59 57 57 57 56
65 68 69 69 68 67 67 66 65 64 63 62 62 63 61 60 61 61 62 62 62 60 56 52 45 33 28 26 28 25 31 48 51 54 58 60 59 57 55 54 52 51 50
60 65 68 69 68 67 66 65 65 64 64 62 62 61 60 59 60 60 60 61 61 60 51 43 31 29 26 24 25 24 28 46 49 51 54 57 56 54 51 49 48 47 46
57 59 67 68 68 67 66 65 64 63 63 63 63 62 58 58 59 59 59 60 54 51 42 32 29 28 27 26 25 24 26 40 47 48 49 52 52 48 46 44 43 43 43
45 57 60 67 67 67 66 65 64 63 63 64 63 62 57 56 56 58 56 52 45 36 31 31 29 29 29 27 26 25 25 31 44 44 45 42 44 49 42 40 39 39 40
41 46 58 62 65 66 66 65 64 63 63 63 62 62 57 55 56 53 51 45 37 34 32 31 31 29 28 26 24 23 26 26 36 39 39 37 38 38 38 37 35 36 38
38 41 55 60 62 64 65 65 65 64 63 62 62 61 56 56 53 51 47 40 35 33 31 29 29 28 26 26 24 24 29 28 27 30 35 32 34 34 31 36 36 34 33
36 37 46 58 61 64 65 65 64 64 63 63 62 61 57 53 51 49 42 36 34 32 30 29 28 28 26 25 24 28 31 32 28 27 27 28 29 27 27 25 25 27 30
35 35 39 50 59 63 64 64 63 63 63 63 62 60 55 52 50 46 39 35 33 30 30 28 29 25 26 26 25 28 31 28 29 30 30 29 27 25 24 23 23 23 24
38 38 36 42 54 60 63 64 63 64 61 62 59 57 54 51 47 43 37 34 32 30 29 28 29 29 27 25 23 28 23 24 24 23 27 24 22 22 21 20 21 21 22
35 37 39 40 46 59 63 59 55 55 54 53 53 51 50 50 46 40 36 34 31 31 31 30 29 29 27 25 22 22 22 22 19 22 23 22 21 22 22 23 21 22 22
31 33 38 40 42 51 61 61 59 59 57 54 55 53 51 51 44 38 35 32 31 33 31 29 30 29 28 25 26 22 19 18 16 13 21 22 22 19 20 22 22 22 21
31 30 33 38 42 46 59 61 60 59 58 50 50 49 48 48 44 38 33 32 32 33 30 28 26 28 26 26 26 23 20 22 20 20 16 20 21 21 22 22 22 22 21
39 38 37 37 39 45 56 60 60 59 50 48 48 47 45 45 42 40 36 33 32 31 28 27 25 24 23 22 22 21 20 18 18 17 17 18 18 21 22 22 21 21 22

GFSSE_sfc_dewp_033.txt.gz
Dewpoint
69 71 73 72 71 71 72 72 72 73 72 70 69 69 68 66 66 64 63 64 65 66 65 64 66 68 68 68 68 67 65 62 61 63 63 63 62 62 64 64 64 60 62
70 71 73 72 71 71 72 72 73 73 72 70 69 68 67 66 65 63 62 63 64 65 67 69 68 68 69 68 67 66 62 61 62 62 62 63 63 62 63 62 63 59 61
70 70 70 72 72 72 71 72 72 72 71 70 69 68 66 65 63 62 61 62 63 65 67 67 68 68 67 65 63 60 60 61 63 64 63 59 58 61 60 62 61 62 60
70 70 70 72 71 70 69 69 70 71 70 70 68 67 66 65 62 62 62 62 63 65 65 66 66 65 64 64 64 63 64 65 65 64 59 59 58 63 61 60 60 62 63
69 70 70 72 71 69 69 68 68 68 69 69 69 68 66 64 63 62 62 62 63 63 63 63 63 63 63 64 65 64 64 64 64 61 59 58 61 63 63 63 64 63 61
69 70 71 72 71 71 69 67 66 66 68 69 70 68 65 65 65 63 63 64 64 64 64 64 64 64 64 64 63 64 65 65 63 61 59 59 63 64 64 67 66 66 66
69 70 71 72 71 70 68 69 69 68 69 70 69 67 66 66 66 65 64 64 64 65 65 64 64 65 65 65 65 65 65 63 61 61 61 63 63 63 64 64 65 67 67
70 70 71 71 71 70 69 69 70 70 68 69 69 68 66 66 66 66 65 64 64 65 65 65 66 66 66 66 65 64 62 61 59 58 60 60 64 62 62 62 65 65 65
70 70 70 70 70 70 69 69 70 70 68 68 68 67 67 67 68 67 66 65 64 65 66 66 66 66 66 64 61 58 59 61 57 56 57 57 63 61 62 65 63 64 63
70 70 70 70 70 69 69 68 69 69 69 68 68 68 68 67 68 68 68 67 65 66 66 67 66 66 64 59 57 55 61 58 55 55 56 57 61 63 64 64 63 62 61
69 69 70 70 69 68 67 67 68 69 68 68 68 67 66 66 67 67 67 67 67 67 67 67 66 65 60 59 57 51 53 52 53 53 54 62 63 64 63 61 62 61 59
67 69 68 68 68 67 66 66 65 66 66 66 66 64 64 65 65 66 65 66 68 68 67 65 64 60 51 45 38 42 45 52 55 56 57 64 63 62 60 60 59 58 56
67 67 67 67 68 67 66 66 65 64 64 64 64 63 62 64 64 64 64 64 64 65 62 56 49 43 37 35 30 31 47 51 54 57 62 63 61 60 59 57 57 56 55
66 66 67 67 67 67 66 65 65 64 63 62 63 63 61 60 62 62 62 62 62 61 57 50 44 31 27 28 26 30 46 50 53 55 59 61 59 57 56 53 52 51 50
66 67 67 67 67 67 66 65 65 64 63 62 62 62 62 60 61 61 61 60 60 59 54 47 33 28 25 25 25 27 43 48 50 53 54 58 57 54 52 50 49 47 47
63 67 68 68 68 67 66 65 64 64 63 62 61 61 61 60 60 61 59 59 59 58 47 34 29 28 26 26 24 25 38 46 48 50 50 52 54 50 47 45 44 44 44
53 60 67 68 68 67 67 66 64 63 63 62 61 61 60 59 59 60 59 58 56 50 34 30 29 29 28 27 25 24 29 44 46 47 46 42 46 50 44 42 40 40 42
42 49 60 67 68 67 67 66 64 64 63 63 62 62 60 58 58 58 57 55 45 35 33 31 30 29 28 26 24 24 27 36 42 42 40 37 39 37 39 38 37 37 37
38 41 53 61 67 67 67 66 65 64 63 63 63 62 61 57 56 56 55 48 36 34 33 31 29 27 25 25 24 25 28 28 38 38 37 34 36 32 32 37 36 34 32
37 38 42 58 62 66 67 66 65 64 64 63 63 62 60 57 55 54 49 40 35 34 32 30 27 27 26 25 25 28 32 31 28 33 33 28 33 29 27 26 24 26 34
36 36 38 51 59 63 65 64 64 63 63 63 63 62 57 56 54 53 46 37 35 33 30 27 27 24 25 26 27 29 30 29 28 29 28 28 27 26 24 23 23 23 24
37 37 36 40 56 61 64 64 63 64 64 63 62 61 57 55 53 50 43 37 34 33 29 29 29 29 26 24 24 28 26 25 24 23 28 27 23 23 21 22 21 21 22
35 36 37 38 43 58 63 61 56 57 56 55 56 56 56 55 53 50 44 39 34 33 31 30 30 30 27 24 23 25 23 22 21 21 22 22 22 22 22 22 22 22 21
31 33 35 38 41 47 60 62 60 60 59 60 60 57 54 54 53 50 46 42 39 34 32 31 31 31 27 25 25 20 19 21 17 14 20 22 22 19 20 22 22 22 21
31 31 32 33 37 42 55 61 61 60 59 57 53 53 54 53 52 47 45 45 41 35 35 30 30 29 28 26 26 23 21 22 20 18 15 18 21 21 22 22 22 21 21
36 36 36 36 36 39 48 59 61 60 54 51 50 53 52 50 47 45 43 41 42 39 38 35 30 28 26 25 24 21 20 19 18 18 17 18 18 20 22 22 21 20 21

GFSSE_sfc_dewp_036.txt.gz
Dewpoint
66 70 74 73 73 73 73 73 73 72 72 70 69 69 68 67 65 64 65 65 66 66 65 66 67 68 68 68 68 66 63 62 63 64 64 64 63 64 64 64 62 60 62
69 71 73 73 72 72 73 73 73 73 72 69 68 68 67 66 64 63 63 64 66 67 67 66 67 68 68 68 66 63 62 63 63 63 63 63 65 62 62 63 63 60 63
69 70 70 73 72 72 73 73 73 72 71 70 69 68 66 65 63 62 62 63 64 67 69 69 69 69 67 65 61 61 63 64 65 64 62 59 59 61 60 63 63 64 60
70 70 70 73 73 72 72 72 72 72 71 70 69 66 66 63 62 62 63 63 64 67 67 66 66 65 65 65 63 64 65 65 64 63 59 58 59 64 62 61 60 62 63
69 69 70 73 72 71 71 71 71 71 71 70 69 67 66 63 62 62 63 63 65 64 64 64 64 64 64 65 65 65 65 65 64 61 58 58 62 63 64 66 65 64 62
68 69 71 72 72 71 70 68 69 69 70 69 69 67 65 63 63 63 63 63 64 64 63 63 63 64 64 64 64 65 66 64 62 60 59 58 63 65 66 65 66 67 67
68 69 70 72 71 70 69 68 68 68 69 69 70 67 66 65 64 63 64 64 64 64 64 64 65 66 66 66 66 66 64 64 61 60 62 62 63 63 63 65 67 67 67
69 70 70 71 71 70 69 69 69 69 69 70 70 67 66 66 66 64 64 64 65 65 65 66 66 66 66 66 64 62 62 61 59 60 60 60 64 63 62 65 65 64 64
70 69 69 70 70 70 69 70 70 69 70 71 70 69 68 68 67 66 65 64 65 65 66 66 66 67 65 62 59 58 61 61 56 56 57 57 63 62 65 65 64 63 62
69 69 69 69 69 68 68 69 70 69 69 69 69 68 67 67 67 68 67 66 65 66 66 66 67 66 62 58 56 62 60 58 54 54 54 56 63 64 65 64 63 61 60
68 69 69 68 68 68 67 67 69 69 68 68 67 67 66 65 65 66 66 67 67 67 67 67 66 64 59 59 54 57 54 51 52 52 54 65 64 63 62 62 61 59 57
65 68 69 69 68 67 67 66 66 67 66 66 66 65 64 64 65 66 65 66 67 68 67 66 65 58 52 37 39 48 50 53 54 56 57 65 63 61 61 60 58 57 56
65 66 67 68 68 67 66 65 64 65 65 64 65 63 62 64 64 64 64 64 64 64 62 55 47 41 36 33 30 42 50 52 54 57 62 63 60 58 57 57 56 55 54
65 66 67 67 67 67 66 65 64 64 64 64 64 63 61 62 62 62 63 62 62 61 57 49 42 28 28 27 28 41 49 51 53 55 60 61 59 57 56 53 52 51 50
65 65 67 67 67 67 66 65 64 64 64 64 63 63 61 60 61 61 61 61 60 59 54 46 32 27 25 25 26 37 47 49 51 53 55 59 59 54 53 51 49 48 48
65 65 66 67 67 67 66 65 64 64 63 63 62 62 62 60 60 61 60 60 59 58 51 40 30 27 26 25 24 33 46 48 49 50 51 53 56 52 49 46 46 45 46
62 67 67 67 67 67 66 66 64 64 63 62 61 61 62 60 59 61 60 59 58 57 39 30 28 28 28 26 24 27 42 45 47 47 45 44 47 51 46 43 43 43 43
46 59 66 68 67 67 66 66 65 65 64 62 61 61 61 60 60 59 59 59 56 47 34 31 30 29 28 26 24 25 30 43 44 44 40 39 39 37 41 40 39 38 38
38 42 55 64 68 67 67 67 66 65 64 63 62 61 60 59 59 59 59 58 47 40 34 32 30 28 26 25 23 26 27 33 41 40 37 34 37 32 32 40 39 36 34
37 37 40 55 65 67 67 67 66 65 64 63 63 62 61 59 57 58 57 53 42 36 34 32 29 28 26 25 25 30 32 30 33 37 36 31 34 28 27 25 24 25 37
37 37 37 41 57 65 66 65 64 64 64 63 63 63 62 60 58 57 56 50 41 36 33 30 28 25 25 28 29 30 29 29 27 28 29 28 29 26 24 22 23 23 24
36 36 36 38 45 59 65 65 65 64 64 64 63 63 62 60 58 56 55 49 41 37 32 28 28 28 26 28 26 29 26 25 25 24 29 29 26 24 21 21 21 21 23
34 35 37 37 40 54 61 64 58 58 58 58 59 61 60 58 58 56 54 51 43 39 34 30 29 30 27 25 25 27 24 24 24 22 22 22 22 22 22 22 21 21 21
31 33 35 37 39 43 59 62 62 61 61 61 61 62 59 57 57 55 51 50 45 43 37 38 31 32 28 25 25 20 20 23 22 17 21 22 21 20 20 22 21 21 22
31 32 32 33 36 41 48 62 62 61 61 58 58 59 59 57 56 55 52 50 45 44 44 39 36 31 31 26 27 24 21 21 19 19 16 20 21 22 22 21 22 20 20
39 39 39 34 33 36 43 57 61 61 60 54 53 56 56 55 55 53 51 48 47 45 44 41 39 37 31 28 27 22 22 20 19 18 16 18 18 19 22 22 21 21 21

GFSSE_sfc_dewp_039.txt.gz
Dewpoint
66 71 75 74 74 73 74 73 74 73 72 72 70 69 68 67 66 67 66 66 66 66 66 66 68 68 67 67 67 64 63 64 64 65 65 65 64 64 64 62 61 60 63
67 71 74 74 74 74 74 74 74 73 72 71 70 68 67 66 65 64 65 66 66 67 66 66 68 68 68 66 64 63 64 64 63 63 64 65 65 62 62 64 62 61 63
68 70 70 74 73 74 74 74 73 72 72 70 69 68 66 64 63 63 65 65 67 70 68 68 70 68 66 63 62 64 64 65 64 63 62 61 60 60 63 63 64 62 60
69 69 67 72 72 74 74 73 73 72 71 70 69 66 65 63 62 62 63 64 67 68 68 68 67 66 65 63 64 65 65 65 64 62 60 62 63 64 62 61 60 62 63
69 68 67 72 72 74 73 73 73 72 71 70 69 67 65 63 62 63 63 65 65 66 66 66 65 65 65 65 65 65 66 65 64 61 60 63 64 64 67 67 65 65 62
68 68 70 72 73 73 72 72 71 72 71 70 70 67 64 63 63 63 64 65 65 65 64 64 64 65 65 65 65 66 65 64 62 61 60 62 64 65 64 67 67 67 68
68 68 68 72 72 71 70 70 70 70 71 69 69 67 65 64 64 64 64 64 65 64 64 64 65 66 66 66 66 65 64 64 61 61 63 64 63 63 63 67 65 66 67
68 69 67 71 71 71 70 70 70 70 70 70 70 67 66 65 64 64 64 65 65 65 65 66 66 67 66 65 64 63 63 62 62 62 62 61 64 62 65 65 64 63 64
69 69 68 68 69 70 69 69 69 69 70 71 70 69 68 68 67 65 64 65 65 66 66 66 67 66 63 61 59 61 62 60 58 58 57 58 65 64 66 64 63 62 62
69 69 69 69 68 67 66 70 69 69 70 71 69 68 67 67 68 67 67 66 65 66 67 67 67 64 59 58 62 62 60 57 55 55 57 59 65 65 64 63 62 60 59
67 68 69 69 69 67 66 67 69 69 68 68 68 67 66 65 65 66 66 66 67 67 67 67 66 61 59 57 59 57 55 52 50 55 62 66 64 63 62 61 60 59 57
65 66 68 69 68 68 66 66 67 67 66 65 65 65 65 66 66 66 65 66 67 67 67 67 63 58 47 42 44 51 51 53 53 59 61 65 62 62 61 60 58 57 57
64 65 66 67 68 68 67 66 66 67 66 65 65 65 65 65 66 66 66 66 65 65 63 60 52 45 42 37 41 48 51 54 57 60 62 63 60 59 57 58 56 55 54
64 65 66 67 69 68 68 66 64 66 66 65 65 65 64 65 66 66 66 66 65 65 60 54 45 38 36 32 37 46 50 54 58 59 60 61 59 57 56 54 53 52 51
64 64 66 67 67 68 67 67 65 63 66 65 65 65 63 64 65 66 65 65 64 63 59 50 40 33 31 30 33 44 49 53 56 57 57 59 59 55 53 52 49 49 50
65 65 65 67 68 68 67 66 66 64 63 65 65 64 64 62 64 65 64 64 63 62 58 48 37 32 31 29 30 42 48 52 53 54 54 54 57 55 50 48 46 47 47
63 65 65 66 67 67 67 67 66 65 64 63 64 64 64 63 62 64 64 63 63 61 55 41 33 31 31 28 28 38 47 50 51 50 49 49 49 52 49 46 44 44 45
48 62 66 67 67 67 67 67 66 66 65 64 62 63 63 63 62 62 63 63 62 59 49 40 34 33 32 30 28 31 42 47 48 47 45 43 43 41 43 43 41 40 38
39 42 59 66 66 67 67 67 67 66 66 66 63 62 62 62 62 61 61 62 61 57 46 37 34 33 31 30 28 30 32 43 45 43 40 40 40 38 38 41 40 37 34
39 39 41 56 66 68 68 67 67 66 66 66 65 62 61 61 61 61 61 60 59 55 47 38 35 32 31 30 22 30 33 32 42 42 38 34 37 35 37 35 30 30 38
39 39 39 40 52 65 66 66 65 64 65 64 65 64 62 61 60 60 61 59 56 53 48 39 34 31 29 31 32 33 33 32 32 38 38 33 35 31 30 28 26 27 27
36 38 39 39 41 52 63 64 65 64 64 65 65 64 63 62 60 59 60 58 54 52 47 39 34 32 31 32 31 33 31 30 29 29 32 31 30 29 27 25 24 26 28
33 36 37 39 41 44 57 64 63 63 62 64 64 63 63 63 61 60 59 59 54 52 46 41 37 36 32 31 32 31 30 31 30 27 28 30 29 28 26 25 24 25 24
36 38 37 38 40 42 51 62 63 61 61 62 62 63 63 63 61 60 59 59 56 52 49 45 38 37 35 31 29 25 25 28 30 25 25 26 25 25 25 25 23 23 24
42 43 41 36 36 40 43 56 62 61 61 62 63 63 62 61 61 60 59 58 56 53 52 49 44 39 36 33 32 26 24 24 22 26 24 24 23 24 23 23 23 22 22
42 44 44 42 41 39 40 46 58 61 61 61 61 61 62 60 59 59 58 56 56 54 52 49 47 43 39 36 31 25 25 24 22 21 21 23 23 23 24 24 23 22 22

GFSSE_sfc_dewp_042.txt.gz
Dewpoint
66 68 75 74 73 74 73 74 74 74 73 72 71 70 69 68 68 67 66 65 66 66 66 67 68 67 67 66 65 64 64 65 65 65 65 65 64 63 62 61 59 59 64
66 68 75 75 74 74 74 74 74 74 73 71 70 68 67 66 65 66 65 66 67 66 66 68 68 68 67 65 64 64 64 63 63 64 65 65 65 62 64 64 64 61 64
66 68 70 75 75 75 75 74 73 72 71 71 69 68 66 65 64 65 65 68 69 68 67 69 69 67 65 63 64 64 64 63 63 63 61 58 57 62 63 63 64 60 62
66 67 67 73 75 75 74 73 73 72 70 70 69 67 65 63 63 64 64 68 69 70 69 68 67 65 63 64 65 65 65 64 63 61 59 59 59 64 63 62 61 63 63
66 65 66 72 74 74 74 73 72 72 71 70 68 67 63 63 63 64 64 66 68 67 67 67 66 65 64 65 65 65 65 65 62 61 61 63 63 65 67 67 65 63 62
65 65 68 71 73 74 74 73 73 71 71 69 69 67 64 63 64 64 65 66 66 65 65 65 65 65 65 65 66 65 64 63 63 59 61 62 62 63 67 67 68 68 67
64 64 65 71 73 73 73 72 72 72 71 69 68 66 64 64 64 64 65 65 65 64 64 64 65 66 66 66 65 64 65 62 59 59 60 60 62 62 66 66 66 66 67
64 65 65 70 72 71 71 71 71 71 71 70 69 67 65 64 64 65 65 65 65 65 65 66 66 67 66 65 64 63 63 64 60 60 60 60 63 63 65 64 63 64 65
65 64 65 66 68 71 70 70 70 71 71 71 70 69 68 67 65 65 65 65 65 65 66 66 67 65 63 61 60 62 61 60 59 58 56 57 65 65 65 63 62 62 61
66 64 63 64 65 64 65 69 69 70 70 71 69 68 68 67 67 66 67 66 66 67 67 68 66 61 60 62 63 62 60 59 55 55 54 57 65 65 64 62 61 60 59
65 65 64 63 63 63 63 65 68 69 70 70 68 67 66 62 64 65 64 66 67 67 67 67 64 60 58 61 60 58 57 51 49 51 55 66 64 63 62 60 59 58 58
64 64 64 63 63 64 62 63 63 63 65 66 66 65 62 60 61 62 64 66 67 67 68 67 62 56 54 47 49 52 49 49 48 53 56 65 63 62 60 59 58 57 57
64 65 65 65 64 64 63 62 62 62 62 62 63 62 60 60 63 63 64 63 61 65 64 63 59 53 49 45 45 47 48 47 47 52 60 63 61 60 58 58 56 55 54
64 65 65 66 66 65 64 64 61 62 63 61 60 60 60 60 62 61 62 62 61 60 61 60 56 49 46 42 42 42 43 46 48 51 59 62 60 58 56 55 53 53 52
64 64 65 65 66 67 66 65 64 62 63 62 62 60 60 60 60 62 62 62 61 60 59 58 53 45 42 37 37 40 41 45 49 51 54 60 60 56 54 53 51 51 51
63 64 65 65 66 66 66 67 66 64 62 63 62 62 62 60 60 62 63 63 62 61 59 56 52 45 40 37 35 38 40 44 47 49 51 55 58 56 52 50 48 49 48
53 59 63 65 66 67 67 67 66 66 64 63 63 62 62 61 60 61 62 63 62 62 59 56 50 43 39 35 35 37 40 43 46 47 48 49 51 53 51 48 47 46 47
40 46 54 61 65 66 66 66 66 66 66 65 63 64 62 61 61 61 61 61 61 61 60 54 48 42 40 37 35 34 39 43 44 45 46 46 45 42 46 47 45 43 41
38 39 42 54 60 63 65 66 67 67 67 66 65 64 63 62 62 60 60 60 61 61 58 54 48 45 41 38 35 33 35 40 43 43 42 43 43 41 38 44 44 39 37
39 40 40 42 51 59 62 66 68 67 67 67 66 65 64 62 62 62 59 59 60 60 58 53 49 44 42 40 29 29 32 35 41 42 40 37 38 39 37 39 37 34 38
38 40 40 41 42 49 57 65 66 66 66 66 66 66 65 63 63 62 60 59 59 59 58 54 50 44 39 38 34 35 33 32 34 39 40 36 36 35 35 35 30 27 29
34 35 37 40 41 42 48 58 64 64 64 65 65 65 65 64 63 62 62 61 59 59 58 55 51 45 42 36 37 38 35 31 31 33 37 36 34 33 31 31 28 28 29
34 35 36 37 39 41 43 50 59 63 65 63 64 64 64 65 64 62 62 62 60 59 58 58 52 47 42 36 37 40 36 37 33 32 33 35 33 32 31 30 28 27 27
43 45 42 39 38 39 43 45 52 57 59 60 60 63 64 64 64 63 62 61 61 59 57 57 54 50 47 40 36 33 32 34 34 30 29 31 31 29 31 29 27 26 26
45 46 45 44 41 38 40 42 47 54 57 57 59 61 61 63 63 63 62 62 61 59 59 57 54 51 48 44 40 33 30 30 28 33 31 29 29 29 29 28 26 25 25
44 45 46 43 42 43 42 40 44 49 54 56 59 60 61 62 62 62 62 62 62 61 59 58 55 52 49 48 42 35 31 31 27 26 28 30 29 28 28 27 26 25 24

GFSSE_sfc_dewp_045.txt.gz
Dewpoint
64 69 75 75 74 74 74 74 74 74 73 72 71 71 70 69 68 67 66 66 65 66 66 69 68 67 67 66 66 65 65 65 65 66 66 65 64 63 63 63 65 61 63
65 67 75 75 74 74 74 75 74 74 72 71 70 69 68 67 67 66 65 67 66 66 66 68 68 68 66 65 65 64 63 64 64 64 66 66 66 64 65 66 63 62 63
65 67 69 75 75 75 75 74 73 73 72 71 70 68 67 65 65 65 67 69 68 66 69 69 68 67 65 65 64 64 63 63 63 62 64 57 59 62 62 63 62 63 63
64 67 67 74 75 75 74 73 73 72 71 70 69 67 65 64 65 65 68 70 70 70 69 68 66 64 64 65 65 65 64 63 61 63 58 57 61 67 66 64 62 63 63
64 65 70 74 75 75 74 73 72 72 71 70 67 66 64 63 64 65 68 69 69 68 68 67 66 65 65 65 65 65 65 62 62 62 60 64 64 64 67 68 66 61 63
63 63 70 73 74 74 74 73 72 71 70 69 68 65 64 64 64 65 67 67 67 66 66 66 65 65 66 66 66 65 64 63 64 59 60 62 61 66 67 68 68 68 67
61 64 65 71 74 74 74 74 73 72 70 68 68 65 64 64 64 65 66 66 65 65 65 65 65 65 66 66 65 65 64 63 60 58 58 62 61 65 66 66 66 66 66
61 64 65 70 73 73 73 73 73 72 70 69 68 65 65 64 64 65 66 65 65 64 65 66 66 66 66 65 64 63 63 63 59 58 58 60 63 65 65 64 63 64 64
62 62 65 67 69 71 71 71 72 72 71 70 69 68 67 67 65 65 65 65 65 65 66 67 66 65 63 61 62 62 61 62 58 57 53 57 66 66 64 62 61 61 61
63 62 64 64 65 65 66 70 70 71 71 71 69 68 67 66 66 66 67 66 65 66 67 67 65 62 60 62 62 61 60 61 54 54 52 61 66 65 63 62 61 60 60
63 62 62 61 62 61 61 64 68 69 69 70 68 67 66 62 62 63 64 66 67 68 67 67 63 60 62 62 61 59 60 51 48 50 58 66 64 64 62 60 58 58 58
63 62 61 60 61 60 60 63 61 61 64 66 66 65 62 59 60 60 63 66 67 67 68 67 62 59 59 51 52 54 50 49 47 51 61 65 63 62 61 59 58 58 56
64 63 61 62 61 61 61 61 61 61 62 64 66 64 62 58 61 61 63 62 62 65 64 65 61 53 50 48 48 48 48 46 45 51 62 65 62 61 59 58 56 55 54
64 64 64 62 62 62 62 61 60 60 61 59 61 61 60 59 60 60 62 61 59 60 61 62 59 55 52 48 47 46 44 45 46 51 60 62 61 59 57 55 54 53 53
62 64 65 65 64 64 63 62 61 60 61 61 59 58 58 58 59 60 60 63 59 58 58 58 57 52 49 45 43 43 42 43 46 50 58 61 61 57 55 54 52 52 52
61 62 64 65 65 66 65 64 63 63 62 62 61 60 58 58 59 60 59 62 63 59 58 57 55 51 47 43 41 42 42 43 45 48 55 56 59 58 55 52 51 51 50
57 59 62 63 65 66 66 66 67 66 64 62 63 62 60 59 59 59 60 63 63 61 59 57 54 51 47 42 40 41 42 42 44 46 49 54 54 56 55 51 49 49 49
44 47 54 60 63 64 65 65 66 66 66 64 63 63 62 61 60 59 60 60 63 61 60 58 55 50 47 43 41 40 42 42 43 44 47 48 51 47 51 52 49 48 46
40 41 43 48 55 61 63 65 66 66 66 66 65 63 63 62 61 60 60 60 59 60 60 59 55 50 47 46 44 41 41 42 42 42 44 45 47 46 45 51 50 47 44
36 37 39 40 42 49 57 61 67 67 67 66 66 65 64 63 63 62 60 59 59 60 60 59 55 51 49 47 40 38 41 41 43 43 42 41 43 44 43 43 43 39 42
37 38 39 40 40 41 48 54 64 66 67 67 66 66 65 64 64 63 62 60 60 59 60 59 56 52 50 48 43 40 41 38 37 42 43 41 40 41 41 41 40 35 38
33 35 37 39 41 42 43 47 54 64 65 65 66 66 66 65 64 63 63 62 60 59 59 59 56 53 49 46 42 44 41 37 35 35 40 39 37 38 37 37 35 34 36
36 38 36 37 39 41 45 45 48 56 63 64 65 65 64 65 65 64 63 63 62 60 60 59 57 54 48 45 44 44 45 43 37 35 36 39 37 37 36 35 33 33 34
44 47 45 43 40 39 43 43 44 48 55 60 60 62 63 64 63 65 63 63 63 62 60 60 59 56 52 46 44 40 42 40 40 35 35 35 36 33 35 35 32 32 32
45 47 47 44 43 43 40 40 43 45 49 55 57 58 58 61 63 63 63 63 62 62 62 60 59 56 53 50 47 45 40 38 36 39 34 32 33 35 34 33 32 30 30
46 46 46 43 41 43 44 43 41 45 45 50 55 56 57 59 62 63 62 62 62 62 61 61 60 59 55 54 47 44 41 38 33 32 35 34 32 32 33 34 32 31 30

GFSSE_sfc_dewp_048.txt.gz
Dewpoint
67 71 75 75 75 76 75 74 74 74 74 73 72 71 70 69 68 67 67 66 67 67 69 69 68 68 67 67 66 65 65 65 65 65 66 66 65 65 66 65 67 61 66
67 69 74 75 75 75 75 75 75 74 73 72 71 70 68 68 67 66 68 67 66 67 69 69 69 67 66 66 65 64 64 64 64 65 67 66 67 65 65 64 66 62 64
67 70 72 75 75 75 75 74 74 73 72 71 70 68 67 66 66 66 70 69 67 69 70 69 67 66 66 65 65 64 63 63 63 64 66 60 62 64 63 64 64 65 64
67 68 70 75 75 75 75 74 73 72 71 70 69 67 65 65 65 69 70 70 70 70 69 67 65 65 65 65 65 65 63 61 63 65 63 63 63 68 67 66 63 64 65
66 66 72 75 75 75 74 74 73 72 70 69 67 66 64 65 65 69 70 69 69 68 68 66 65 65 65 66 66 65 63 62 65 63 62 62 62 67 69 69 66 65 65
65 70 73 75 75 74 74 73 73 72 70 68 66 65 64 65 66 68 68 68 68 68 67 66 65 66 66 66 66 65 64 64 66 60 62 64 64 67 68 68 68 68 68
66 68 70 74 75 74 74 73 73 72 70 69 66 65 65 65 66 67 67 66 66 66 66 65 65 66 67 66 65 64 63 65 61 58 61 60 62 66 65 66 66 66 66
65 65 67 72 73 74 74 74 73 72 70 69 67 65 65 65 65 67 66 66 65 65 65 66 66 66 66 65 64 63 64 64 60 57 59 60 66 66 64 64 63 63 63
63 64 64 69 71 71 72 72 72 72 71 70 68 68 67 67 66 66 66 65 65 66 67 67 67 65 63 62 63 61 63 63 59 55 58 63 67 65 64 62 61 61 62
62 64 64 67 68 68 69 70 71 71 70 70 69 68 67 66 66 67 67 67 67 68 67 67 65 63 62 62 62 61 61 62 54 53 63 66 66 65 63 61 60 59 60
62 63 64 65 65 65 66 67 69 70 70 70 68 66 65 63 64 65 65 66 67 68 69 67 63 62 64 63 62 62 61 55 49 55 64 67 65 63 61 60 59 58 58
63 61 62 62 62 61 61 65 64 66 67 68 66 65 63 62 61 61 64 66 67 68 68 67 63 62 62 56 55 58 52 50 47 59 63 66 63 62 61 60 59 58 57
64 64 61 60 61 60 60 63 61 61 63 65 65 65 64 61 61 62 63 64 64 65 65 65 61 56 51 51 50 48 49 46 47 59 64 65 63 62 60 59 57 56 55
64 64 64 62 61 60 61 62 61 61 62 64 66 65 63 60 61 61 63 62 61 63 63 64 61 57 54 49 47 48 45 45 46 60 63 63 63 60 59 57 56 55 54
63 64 64 65 63 62 62 61 61 60 61 61 64 64 63 60 59 61 61 62 60 61 61 63 61 57 51 48 46 44 42 43 45 58 59 61 62 60 57 56 55 54 53
61 63 64 65 65 65 65 63 62 61 61 62 61 60 59 59 59 60 60 62 61 60 59 59 58 53 49 47 42 42 42 42 45 56 58 58 60 60 56 55 54 54 52
59 61 63 64 65 65 65 66 66 66 64 63 63 61 59 58 59 59 60 62 62 61 60 58 56 53 49 44 42 40 42 42 44 47 56 55 56 58 58 53 53 53 52
47 50 61 63 64 65 65 66 66 66 66 65 63 63 61 60 59 59 60 62 63 62 61 58 56 53 49 44 42 41 42 42 43 44 50 53 52 50 55 56 53 52 51
41 41 43 46 60 64 64 65 66 66 66 66 66 63 63 62 61 60 59 60 63 62 61 59 57 51 48 45 42 42 41 42 42 43 45 48 51 48 47 55 54 54 50
37 39 40 44 44 45 56 64 66 66 66 66 66 66 64 63 62 62 60 59 59 61 60 59 56 52 49 47 42 40 40 41 43 43 43 44 44 45 45 44 44 41 49
36 37 39 40 41 42 44 50 62 66 65 66 66 66 66 64 64 63 63 61 60 59 59 59 57 53 50 48 43 39 39 37 37 42 43 42 42 42 42 42 40 38 40
32 35 38 38 40 42 43 44 50 63 66 66 65 65 65 65 65 63 63 62 61 60 59 59 57 55 50 48 41 41 38 38 36 35 41 41 39 41 39 40 39 36 37
43 44 43 40 39 40 42 45 46 47 61 63 63 64 64 65 64 65 63 63 62 61 59 59 59 56 52 48 43 43 43 40 35 36 35 41 37 38 38 37 36 32 34
45 47 46 45 43 40 40 41 43 44 47 56 63 65 64 65 64 64 64 63 63 63 61 60 60 58 53 47 47 44 45 41 37 32 35 36 38 36 36 36 34 32 31
45 46 47 46 44 43 42 40 42 43 45 47 52 58 60 63 64 63 62 63 63 63 63 61 60 59 56 51 48 48 46 39 35 38 33 34 35 36 36 34 33 31 29
46 46 46 44 43 43 43 44 42 41 43 43 46 53 56 57 59 63 62 62 62 63 62 62 61 60 58 54 48 49 47 44 38 37 41 38 35 33 35 34 32 30 30

GFSSE_sfc_dewp_051.txt.gz
Dewpoint
68 73 75 76 75 75 75 74 74 74 74 73 72 71 70 69 67 67 67 67 67 70 70 69 68 68 67 66 66 65 65 65 64 65 67 67 66 66 66 65 64 64 69
70 72 75 76 76 76 75 74 75 74 74 73 71 70 69 68 67 68 68 67 68 69 69 68 67 67 66 65 64 64 64 64 64 66 67 67 67 65 64 64 64 63 66
70 72 74 75 75 75 75 74 74 72 73 72 70 69 67 66 66 69 69 68 69 70 69 67 67 66 65 64 64 63 64 64 64 64 66 62 66 65 64 64 65 65 63
70 71 73 75 75 75 75 74 73 73 72 71 69 67 65 66 69 71 69 69 70 70 68 66 66 65 65 65 64 63 63 63 63 66 63 64 66 68 68 64 65 66 67
69 70 73 75 75 75 74 74 73 72 70 69 67 66 65 66 70 70 70 70 69 68 66 66 65 65 66 66 65 64 63 64 66 63 62 63 66 68 69 68 67 68 68
67 71 74 75 75 74 74 74 73 70 69 67 66 65 65 67 69 69 69 69 68 69 66 66 66 66 66 66 65 64 64 65 64 61 63 66 65 68 68 68 68 68 67
69 71 73 75 75 74 74 73 73 71 69 67 65 65 65 67 68 68 68 67 67 67 66 66 66 67 66 65 64 64 64 65 60 60 60 62 64 65 66 65 66 66 66
69 70 72 73 74 74 73 73 73 72 70 67 66 66 65 66 67 67 67 66 66 66 66 66 66 67 66 65 63 63 64 64 59 59 60 63 67 64 64 63 63 63 62
66 67 70 70 71 72 73 73 72 71 71 69 68 67 67 67 67 67 66 66 66 66 66 67 67 66 64 64 62 61 63 63 55 58 62 65 67 65 63 62 62 61 61
64 65 68 69 69 70 71 71 71 70 70 69 68 68 67 66 67 67 67 67 67 68 68 67 65 63 62 62 62 63 63 61 54 62 65 66 66 65 62 61 60 60 60
64 64 67 67 67 67 69 69 70 70 69 68 67 66 65 64 65 65 65 66 68 69 68 67 64 63 64 64 63 62 61 54 51 63 65 67 65 63 61 60 59 59 58
63 63 65 66 65 66 66 67 67 69 68 68 66 64 63 62 63 63 64 66 67 68 69 66 64 64 62 57 57 59 53 50 56 63 64 66 64 63 61 59 59 58 58
63 64 63 64 64 64 64 65 64 65 66 67 66 64 63 62 61 61 63 64 64 65 66 66 63 58 55 54 52 48 48 47 55 62 64 66 63 62 61 59 58 57 57
63 64 65 62 61 61 63 61 61 62 63 65 66 65 64 62 61 62 62 62 63 64 63 63 61 58 53 50 51 48 47 44 53 61 63 64 64 62 60 58 57 56 55
63 63 64 64 62 61 62 61 61 60 62 63 67 65 64 62 61 62 61 61 61 62 62 63 62 60 56 51 47 47 44 43 52 60 61 63 64 62 59 57 57 56 55
63 63 64 64 65 64 63 61 61 60 62 62 65 65 64 62 60 61 62 61 61 60 61 63 63 60 54 50 46 43 42 42 47 58 59 60 62 62 58 57 56 56 55
62 63 64 64 64 64 64 65 65 65 63 62 61 61 62 59 59 60 60 62 61 60 59 59 60 55 50 48 44 41 42 42 47 57 57 57 59 60 59 56 56 55 55
55 61 64 64 64 64 64 65 66 66 66 66 63 62 59 59 59 59 60 61 62 61 61 58 57 54 50 46 42 41 41 42 43 55 56 55 55 55 59 58 56 55 54
41 43 54 63 64 65 64 65 65 65 65 66 66 65 62 60 59 59 59 60 62 61 61 60 58 53 49 46 42 41 41 42 42 44 54 53 52 51 51 57 57 57 56
37 38 39 43 58 65 65 65 65 64 65 65 65 65 66 63 61 60 60 59 62 62 61 60 58 53 50 47 42 41 41 42 43 43 46 52 51 49 48 50 51 51 55
32 34 37 39 39 42 45 59 64 64 64 63 65 65 65 65 63 62 61 60 60 61 61 60 58 54 50 49 43 40 40 38 40 42 43 44 48 48 46 47 44 42 47
42 43 41 39 38 39 43 44 50 63 65 65 66 66 65 65 65 64 63 62 61 60 59 59 59 55 54 51 46 39 36 37 37 36 42 42 42 43 44 43 40 38 39
45 45 45 44 42 40 39 41 43 46 55 62 62 63 64 64 65 64 64 63 62 61 60 59 59 57 54 52 47 45 41 39 37 37 35 43 40 41 41 42 40 37 36
45 46 46 46 44 43 41 40 40 42 43 51 61 63 64 64 64 64 64 63 62 62 61 61 59 58 56 52 51 46 48 42 38 36 36 38 41 39 40 39 39 36 35
45 45 45 44 43 43 43 41 40 40 43 45 46 48 58 63 64 64 64 63 62 61 63 61 61 59 57 55 52 49 48 46 39 39 36 40 41 42 42 38 36 35 32
45 45 45 43 43 44 43 43 43 43 41 42 42 43 46 53 59 62 62 62 62 61 61 61 60 60 59 57 53 50 47 46 45 41 42 42 42 42 40 38 37 35 32

GFSSE_sfc_dewp_054.txt.gz
Dewpoint
71 73 76 75 74 74 74 74 74 74 74 72 72 71 69 68 67 66 67 67 70 70 69 68 68 68 67 66 65 65 65 64 65 66 66 67 66 66 65 65 66 67 68
71 74 76 75 75 75 75 75 74 74 74 73 72 70 68 67 68 68 67 69 70 68 67 67 66 66 66 65 64 65 65 64 64 65 66 67 67 64 63 64 65 65 67
71 73 74 75 75 75 75 74 74 74 73 72 70 69 67 66 69 68 68 69 70 69 68 67 66 65 64 63 64 65 65 64 64 64 65 65 64 64 65 65 65 63 63
71 73 73 75 75 75 74 74 73 71 71 70 69 67 66 68 70 68 69 70 70 68 67 66 65 65 65 64 64 64 64 63 63 65 63 65 66 68 64 66 67 67 67
71 72 72 75 75 75 74 73 72 72 69 69 67 66 66 70 70 69 69 70 69 67 67 65 65 65 65 65 64 64 65 65 66 64 64 65 66 67 66 67 68 69 69
70 72 74 75 75 74 74 73 72 70 68 67 66 66 67 70 70 70 70 69 68 68 66 65 66 66 66 65 64 64 65 65 64 63 65 67 66 68 68 68 68 67 68
71 73 74 75 74 74 74 73 72 69 68 66 65 66 68 69 69 69 69 68 68 67 66 66 66 66 66 65 64 64 64 64 60 61 63 64 63 66 65 66 65 65 65
70 72 73 73 74 74 73 73 72 71 68 66 65 66 66 68 68 68 68 67 67 66 66 66 66 66 65 64 63 63 64 63 60 59 62 64 66 64 63 63 63 63 62
70 72 73 73 72 72 72 73 72 71 69 68 68 68 68 68 67 67 67 67 66 66 66 66 66 66 65 64 62 62 63 62 58 60 64 64 67 64 63 62 61 61 60
68 70 70 70 70 70 71 71 71 71 69 68 68 68 67 66 67 67 67 67 67 67 67 67 66 65 64 63 62 62 61 60 59 63 65 65 66 64 61 61 60 60 60
65 67 68 68 69 69 70 70 70 70 68 68 67 66 65 64 66 66 66 66 68 68 68 67 65 64 65 64 63 62 60 53 59 63 64 67 65 63 61 60 59 59 58
63 65 67 67 67 68 69 68 68 68 67 66 65 64 64 63 63 65 64 66 68 68 68 67 65 64 63 58 57 60 53 50 60 63 64 67 64 63 61 59 59 58 58
63 64 65 66 66 66 66 67 66 67 67 66 64 64 62 62 62 62 62 64 64 65 66 66 63 60 57 54 52 51 49 48 60 62 65 66 64 63 61 59 58 58 57
63 63 63 65 64 65 64 65 65 66 66 66 65 64 63 62 61 61 61 62 63 64 64 63 61 59 54 51 51 50 47 46 58 61 63 65 64 63 61 59 58 57 57
62 64 64 63 63 62 63 62 62 62 65 66 66 65 63 63 61 61 61 61 62 62 62 62 61 60 57 53 51 49 47 44 52 60 61 63 64 64 61 59 58 57 57
63 63 64 64 62 61 62 61 60 61 62 63 66 66 65 63 61 61 61 61 60 61 62 62 62 61 60 55 50 46 45 43 49 59 60 61 64 63 61 59 58 57 57
63 63 63 64 65 63 62 61 61 61 61 62 64 66 65 64 61 61 61 61 61 60 60 61 62 61 59 55 49 46 43 42 44 57 59 59 61 62 62 59 58 58 57
63 63 63 63 64 64 64 64 65 65 65 62 62 64 65 64 62 60 61 61 62 61 60 59 59 59 56 53 48 44 41 42 42 56 57 57 57 57 60 60 58 57 57
54 58 63 64 64 64 64 64 65 65 65 66 66 64 61 61 60 60 59 60 62 61 60 60 58 56 53 50 47 44 41 42 42 47 56 56 55 55 55 59 59 59 58
37 39 41 59 64 64 64 65 65 64 64 65 65 66 66 64 60 60 59 59 61 61 61 60 60 56 53 52 46 42 42 42 43 43 52 55 54 53 52 52 55 55 58
38 37 38 39 39 52 59 63 63 64 64 63 64 65 65 65 65 62 61 60 60 61 61 60 59 57 55 51 49 42 40 40 40 43 43 52 53 52 50 50 51 49 54
43 43 43 41 39 39 43 44 52 62 63 64 63 64 65 64 64 64 62 62 60 60 61 60 59 56 55 52 50 43 42 40 39 40 42 43 49 51 49 49 48 45 47
44 45 45 45 44 42 39 41 42 45 50 61 61 62 63 64 64 63 63 62 61 60 59 59 59 57 57 53 51 51 40 40 39 38 37 41 43 45 49 49 46 44 42
44 46 46 45 43 43 42 40 39 40 41 47 55 59 60 62 63 63 63 62 62 61 61 60 59 59 57 54 52 51 49 45 40 41 37 38 43 41 42 44 45 44 40
45 45 44 43 44 43 43 43 42 41 41 43 44 43 45 52 58 62 62 62 61 61 61 60 59 58 58 58 52 50 49 48 44 42 41 40 45 42 42 41 43 42 40
45 44 44 44 44 45 44 44 43 43 44 44 43 44 45 46 51 55 59 61 61 60 60 60 59 58 58 57 57 55 52 48 48 43 43 43 41 44 44 43 41 42 39

GFSSE_sfc_dewp_057.txt.gz
Dewpoint
70 73 75 74 74 74 74 73 73 73 73 72 71 70 69 68 67 66 67 69 70 69 68 68 68 67 66 66 66 65 65 65 66 67 67 67 66 64 65 67 68 67 68
71 74 75 75 75 74 74 74 74 74 73 72 71 69 68 67 68 67 69 70 68 67 67 66 66 66 65 65 66 65 65 65 65 65 66 67 66 63 64 65 66 66 67
72 74 74 75 75 75 75 74 74 74 73 71 70 69 67 68 68 67 70 70 68 68 67 66 65 65 64 66 66 65 65 65 64 65 66 65 63 64 65 65 63 63 64
72 73 73 75 75 75 74 74 74 73 70 69 69 67 65 69 68 68 70 70 68 68 66 65 65 64 64 65 65 65 64 64 63 65 63 66 67 65 66 67 68 67 65
72 73 74 75 75 74 74 73 72 71 69 69 67 66 69 71 68 69 71 70 68 67 65 64 64 64 64 64 65 65 65 65 67 65 65 65 66 65 67 68 68 69 68
71 71 74 75 75 74 73 73 72 70 69 67 67 66 69 70 69 69 70 69 68 67 65 65 65 65 65 65 65 65 65 65 65 64 65 67 66 68 68 68 67 67 68
71 71 72 74 74 74 73 72 71 69 68 66 65 66 69 69 70 69 69 68 67 67 65 65 66 66 65 65 65 65 64 65 62 63 63 63 64 66 66 65 66 65 65
71 72 72 73 74 74 73 72 71 69 67 65 65 66 69 69 69 68 68 68 67 66 65 65 66 65 64 63 63 63 63 64 60 61 62 63 66 63 63 63 63 62 62
72 72 72 72 72 72 73 72 71 70 69 68 68 68 68 69 68 67 68 67 66 65 65 65 66 65 64 63 62 62 63 63 58 61 64 64 67 62 62 62 60 60 60
70 71 71 71 72 71 71 71 71 70 69 68 68 68 68 67 67 67 68 68 67 66 66 66 65 65 64 63 62 62 61 61 58 61 64 64 65 62 61 60 59 59 59
68 69 69 69 69 70 69 70 70 69 68 68 67 66 66 64 65 66 66 66 67 68 67 67 65 64 65 64 63 62 58 54 59 62 63 66 65 63 61 60 59 58 58
65 67 68 68 68 68 69 69 68 68 67 66 65 64 63 62 63 65 64 66 67 68 68 67 65 65 63 57 56 57 53 50 56 62 63 67 65 63 61 59 59 58 58
64 65 67 66 66 67 68 67 67 67 65 65 64 63 62 62 62 63 62 63 63 65 65 67 64 61 58 54 52 51 49 48 57 62 64 67 65 63 61 60 58 57 57
63 64 65 66 65 66 66 67 66 66 65 64 64 63 62 61 60 60 60 61 62 63 63 63 61 60 57 53 52 51 48 47 53 61 62 66 66 63 62 60 59 58 57
63 63 64 65 65 65 64 65 64 65 66 66 64 63 63 61 60 60 60 61 61 62 62 62 61 60 58 55 51 50 49 47 46 60 60 63 65 65 62 61 59 58 57
63 63 64 63 64 63 63 62 63 63 64 65 66 65 63 63 61 61 61 61 61 61 62 61 61 60 60 58 56 51 48 47 44 56 59 60 64 65 64 61 60 59 58
62 63 64 64 63 62 63 62 60 61 62 63 64 65 65 64 62 61 61 61 61 60 60 61 61 61 60 59 56 52 47 44 43 51 58 59 61 63 64 61 60 59 58
62 63 63 64 64 61 62 62 61 61 61 62 62 64 65 65 64 62 61 61 61 60 60 59 60 60 59 58 57 53 47 44 42 45 56 58 58 60 62 63 62 60 59
60 62 63 63 64 64 63 63 63 64 64 63 62 62 64 65 64 62 61 61 61 61 60 59 58 58 57 57 56 54 48 43 42 43 54 56 57 58 57 59 61 61 60
38 48 56 62 64 64 64 64 65 64 64 65 65 64 62 62 62 62 61 60 60 61 61 59 59 57 56 56 53 50 46 44 42 43 47 55 56 56 55 55 56 57 60
38 37 38 43 41 62 63 63 62 62 63 63 64 65 65 65 64 61 60 60 60 60 60 60 59 58 56 51 50 48 44 42 41 42 44 50 55 55 54 54 53 54 55
42 42 41 40 39 39 45 48 58 61 62 63 63 63 64 64 64 64 62 61 60 60 60 60 60 57 56 53 52 45 47 46 41 42 43 43 47 53 53 52 51 52 51
44 44 44 44 43 41 39 40 42 44 47 57 59 61 62 63 64 64 63 62 61 60 60 59 58 57 58 52 52 54 46 44 42 41 39 40 42 48 51 51 51 51 50
44 45 45 43 43 43 42 40 38 39 40 43 50 51 48 52 59 62 62 62 61 60 59 59 59 59 57 56 50 51 49 45 45 45 41 38 39 42 44 49 50 50 48
44 44 43 44 44 44 43 43 42 41 41 42 43 42 43 46 48 54 58 60 60 60 60 60 58 57 57 57 54 50 51 50 46 45 48 48 44 44 44 44 46 47 46
44 44 44 44 45 45 45 45 44 44 44 44 44 45 47 48 51 52 53 55 59 60 59 59 58 57 57 56 58 56 53 50 49 46 45 47 45 46 46 46 44 45 45

GFSSE_sfc_dewp_060.txt.gz
Dewpoint
68 72 75 74 74 74 74 73 73 73 73 71 71 69 68 67 67 67 69 70 69 69 68 67 67 67 67 67 66 66 66 66 66 67 67 67 64 66 68 69 68 67 67
70 73 75 74 74 74 74 74 74 74 73 71 70 69 68 67 66 69 70 69 68 67 66 66 67 66 66 66 66 67 67 67 65 66 66 66 67 65 66 66 67 66 66
71 73 73 74 75 75 75 74 73 73 72 71 70 68 67 68 67 70 70 69 68 67 66 65 65 65 66 66 66 66 66 65 66 66 67 65 63 65 66 64 63 64 64
72 73 73 75 75 75 74 73 73 72 70 70 69 67 68 68 68 70 70 69 68 67 65 65 65 64 66 66 66 65 65 64 64 65 66 66 65 66 68 69 68 67 64
72 73 73 75 75 75 74 74 73 70 69 68 67 66 70 69 69 70 70 69 68 66 65 65 64 64 65 65 65 65 65 66 66 65 65 66 65 66 68 68 69 69 68
71 72 74 75 75 74 74 73 71 70 69 67 66 67 70 68 69 71 70 69 68 66 64 64 65 65 65 65 65 65 65 66 65 64 65 66 66 68 68 68 67 67 68
70 72 74 75 74 74 73 72 71 69 68 67 66 68 71 70 69 71 69 68 67 66 65 65 66 65 65 65 65 65 66 65 63 63 63 63 64 66 66 66 65 65 64
70 71 71 73 74 73 73 72 71 68 67 66 66 68 69 68 69 68 68 67 67 66 65 65 66 65 65 64 64 64 64 64 62 61 62 62 66 63 64 63 63 62 62
71 70 71 72 72 72 72 71 70 69 68 67 68 69 70 70 69 68 68 67 66 65 65 65 65 65 65 64 63 62 63 62 59 61 63 63 66 62 62 61 60 60 60
70 70 70 71 71 71 70 70 70 69 68 68 68 68 67 68 68 68 68 68 66 65 65 66 65 65 64 64 63 62 61 61 58 61 63 63 64 61 61 60 60 59 59
69 69 69 70 70 70 70 70 70 69 68 68 67 66 66 64 64 64 66 67 67 68 67 67 66 64 64 62 62 61 57 55 58 61 63 65 65 62 61 59 58 57 57
66 67 68 68 68 68 69 69 68 67 66 65 65 64 63 62 63 65 64 65 67 68 68 67 66 65 62 57 55 57 53 50 54 61 62 65 66 63 61 59 58 57 57
65 66 67 67 67 67 68 67 67 66 65 64 63 63 62 62 62 63 62 62 63 65 64 66 63 61 58 55 52 52 51 48 51 60 63 66 66 64 62 60 59 57 57
63 65 66 66 66 66 66 67 66 66 64 63 63 62 61 60 60 60 60 60 61 62 62 63 62 60 58 54 53 51 49 48 48 58 61 65 67 65 63 61 60 58 57
62 63 65 65 65 65 65 65 65 65 65 64 63 63 62 60 59 59 59 59 60 61 61 61 62 60 59 57 53 50 50 49 47 54 60 62 65 66 63 62 61 59 58
62 63 64 65 65 64 64 64 64 64 65 64 64 63 62 61 60 60 59 60 60 61 61 61 61 61 60 59 58 56 51 49 47 47 57 60 63 65 65 63 61 61 59
62 63 64 64 64 64 64 63 62 63 64 65 65 65 64 63 62 61 61 60 60 60 60 60 60 60 59 59 58 58 54 50 46 45 52 58 60 63 65 64 62 61 60
62 63 63 64 63 63 63 63 62 61 61 62 63 64 65 64 63 62 61 61 61 60 60 59 59 58 59 58 58 58 56 51 47 44 48 56 58 60 63 65 64 62 61
61 62 62 63 64 62 63 63 62 62 61 61 62 62 64 65 64 63 62 62 61 60 60 59 58 58 57 57 58 58 56 53 49 45 44 52 56 59 59 61 63 63 62
40 49 59 63 63 63 63 63 63 63 63 63 63 62 62 63 64 63 63 62 61 60 60 59 59 57 58 58 57 56 53 51 47 45 45 49 55 56 57 57 58 59 61
37 38 40 52 54 63 62 62 62 62 62 62 64 64 64 63 62 61 62 60 60 60 61 60 59 58 57 53 52 52 49 47 45 45 44 45 51 55 55 56 56 56 56
40 40 39 39 39 45 54 57 61 61 62 62 62 63 63 64 64 64 62 60 59 59 59 59 58 56 56 53 54 48 52 51 45 43 43 43 43 52 54 54 54 53 53
42 43 43 43 43 41 39 41 42 43 46 54 58 60 60 61 62 63 63 63 62 60 60 59 58 58 57 53 52 55 50 48 46 46 40 41 42 45 50 52 52 52 52
44 45 43 43 43 43 42 40 38 38 39 42 46 47 45 46 49 55 60 62 62 61 60 59 58 58 56 57 51 52 51 48 49 49 45 40 39 40 43 49 50 51 51
44 43 43 44 44 43 43 43 42 42 42 43 43 43 45 47 51 53 53 55 59 60 61 60 58 57 57 56 53 51 52 50 48 48 50 51 47 45 44 44 46 49 49
43 43 44 45 45 45 46 46 44 44 44 44 45 45 48 50 51 51 51 52 53 57 59 60 60 58 56 56 56 55 53 52 50 48 47 47 48 48 46 46 44 45 47

GFSSE_sfc_dewp_063.txt.gz
Dewpoint
67 72 75 75 74 74 74 72 73 72 71 71 70 69 68 67 67 70 70 70 70 69 67 67 67 68 67 67 67 67 66 66 66 67 66 67 67 68 69 69 68 66 68
68 72 75 75 75 75 74 74 74 73 73 71 70 68 67 66 69 70 70 68 67 67 67 66 67 68 68 68 68 68 68 67 66 66 66 67 67 66 66 67 67 65 66
70 71 72 75 75 75 75 74 74 73 72 70 69 68 68 68 70 71 69 69 68 66 66 66 66 67 67 67 66 66 66 67 67 68 67 64 65 68 68 64 65 65 64
71 71 70 74 75 75 75 74 73 72 71 70 68 68 68 69 71 70 69 69 67 65 66 65 66 67 67 66 66 66 66 65 68 68 66 64 64 68 69 69 67 65 67
71 71 71 75 75 75 74 74 72 70 69 69 66 68 68 69 70 70 69 69 67 65 66 65 65 66 66 66 66 66 67 67 67 67 67 65 66 67 68 69 68 68 68
71 71 74 75 75 74 74 73 71 70 69 67 67 68 70 69 70 71 69 68 66 65 65 65 65 66 66 66 66 66 67 66 66 66 66 67 67 68 68 67 67 66 67
71 71 72 74 75 74 73 72 71 69 68 67 67 70 70 69 71 71 69 68 67 65 66 66 66 66 66 66 65 66 66 65 64 64 65 65 65 66 65 65 65 64 64
70 72 71 73 74 73 72 72 71 69 68 67 68 71 71 71 70 69 68 67 67 65 66 66 66 65 65 65 64 64 65 64 62 62 63 63 65 64 64 63 62 62 62
70 70 71 71 71 72 72 71 70 69 68 68 69 70 69 69 70 69 68 67 67 66 65 66 66 66 65 64 63 62 64 62 60 62 63 63 66 62 63 61 61 61 61
70 70 70 71 70 70 69 70 70 69 68 68 68 68 68 68 68 69 68 68 66 66 66 66 66 65 64 64 62 61 63 61 59 63 64 63 64 61 61 60 60 59 59
69 69 70 70 70 69 69 68 69 68 68 67 67 66 65 65 66 66 66 67 68 67 66 66 66 64 63 63 62 61 58 58 59 61 63 65 66 62 61 59 58 58 58
67 67 68 70 70 70 69 69 68 67 66 65 65 65 65 65 65 65 65 66 67 68 68 67 66 64 62 58 57 58 56 53 55 61 62 65 66 64 61 59 58 57 57
65 66 67 69 70 69 69 70 69 68 66 65 64 64 64 64 64 65 65 65 66 65 66 67 66 63 61 58 55 54 55 53 51 55 61 65 67 65 63 61 59 57 57
66 67 68 69 69 69 68 69 68 68 66 65 64 63 62 61 62 64 64 64 64 64 65 65 65 64 62 59 55 52 51 51 50 52 59 64 66 66 64 62 61 59 58
65 66 67 68 68 68 68 68 68 68 67 65 65 64 63 62 60 61 61 61 62 63 63 64 64 64 63 61 59 55 51 51 50 50 54 62 64 66 65 64 62 61 59
64 65 66 67 67 67 67 67 67 67 67 66 65 64 63 62 62 61 60 60 59 61 62 62 62 63 62 62 61 60 58 55 51 50 50 55 62 65 66 65 63 62 61
64 64 64 66 66 66 66 66 66 67 67 67 66 66 64 64 63 62 61 61 60 60 60 61 62 62 62 61 61 60 59 59 56 51 49 51 55 61 64 66 64 63 62
63 63 64 64 65 65 65 65 65 65 65 65 66 66 66 65 64 63 62 62 62 62 61 61 61 61 61 60 60 60 59 59 59 56 52 50 52 54 60 64 65 64 63
63 63 63 64 64 64 65 65 65 64 63 63 63 63 64 65 65 64 63 63 63 63 62 62 61 60 60 60 59 60 60 59 59 57 56 53 52 53 56 60 63 64 64
49 61 62 63 64 64 64 64 65 65 64 64 63 62 62 62 64 65 64 64 63 63 63 62 62 61 60 60 59 58 59 59 58 57 56 54 53 53 54 57 58 60 62
36 42 51 58 63 64 64 63 64 63 64 65 65 64 63 63 63 64 65 64 64 63 63 63 62 61 61 60 59 59 57 56 55 54 54 52 51 52 52 54 56 57 59
38 39 41 48 51 61 63 63 64 64 64 64 65 65 65 65 65 65 64 63 63 62 62 61 62 61 60 59 59 56 56 55 53 51 49 48 48 47 49 51 53 55 57
41 42 42 43 42 42 48 47 48 48 50 56 60 62 61 58 63 64 65 65 65 63 62 62 61 60 60 59 58 59 53 52 50 51 48 46 45 45 47 50 51 52 54
44 46 45 45 44 44 43 42 41 44 45 45 47 48 46 46 48 52 56 59 62 63 62 62 61 61 60 59 56 56 56 52 53 52 51 48 42 41 43 46 49 51 52
46 45 45 45 45 45 45 44 44 43 43 44 45 45 47 50 53 53 53 54 56 58 59 60 61 60 60 60 58 55 55 53 51 51 51 53 51 49 47 46 45 46 48
45 45 46 46 46 47 47 46 46 45 45 45 46 47 50 51 52 50 51 52 53 55 56 58 60 61 60 59 59 58 56 54 52 50 50 50 51 52 49 49 49 48 47

GFSSE_sfc_dewp_066.txt.gz
Dewpoint
67 70 75 75 74 74 73 73 73 72 71 71 70 69 68 67 70 70 70 69 69 67 68 69 68 68 68 68 67 66 66 66 65 66 66 67 68 69 69 68 68 63 67
66 68 75 75 75 74 74 73 73 73 72 70 69 67 67 70 71 71 68 67 67 67 66 68 68 68 68 68 68 68 68 68 67 66 65 67 68 65 65 67 67 63 65
65 67 71 75 75 75 74 73 73 72 71 70 68 68 67 70 71 69 69 67 66 66 67 68 68 68 67 67 67 67 66 68 68 68 66 64 67 69 68 65 65 66 68
66 67 68 75 75 75 74 73 72 71 70 69 69 68 70 71 70 69 68 67 65 66 66 67 67 67 67 67 67 66 66 68 68 68 62 62 63 69 69 68 67 69 68
66 65 68 74 75 75 74 73 72 71 70 68 68 68 70 71 70 70 69 66 66 66 66 66 67 67 67 67 67 67 67 67 67 66 63 65 65 67 68 68 67 68 68
65 65 71 74 75 74 74 73 71 69 69 67 68 69 69 71 71 70 68 66 66 65 65 66 66 67 67 66 66 67 66 66 66 61 63 65 65 67 67 66 66 65 66
65 66 69 75 74 74 73 72 71 69 68 68 67 70 69 71 71 70 68 67 66 66 66 66 66 66 66 66 66 66 66 65 59 59 60 61 63 65 65 64 63 63 63
64 67 68 73 74 73 73 72 71 69 67 69 70 71 70 71 70 69 68 67 66 66 66 66 66 66 65 65 64 65 64 63 59 58 60 61 64 64 63 62 62 62 62
65 67 68 70 71 72 72 72 71 70 68 69 69 71 71 70 70 69 68 67 66 66 66 66 66 65 64 63 62 62 63 61 58 58 57 60 65 63 63 62 61 60 60
66 67 67 67 67 68 67 70 70 69 69 69 69 69 68 68 68 69 69 68 66 66 66 66 66 65 64 63 61 62 63 62 58 59 59 60 65 62 62 61 60 59 59
66 67 68 66 66 66 66 67 68 68 68 67 67 67 66 63 64 65 66 67 67 66 66 66 65 64 62 62 61 59 59 57 57 57 57 64 65 62 61 60 58 58 57
65 66 67 67 66 66 66 66 65 64 62 59 58 61 59 60 61 63 65 66 66 67 67 67 66 64 62 55 55 59 55 55 54 56 56 64 65 65 62 60 59 57 57
65 65 66 68 67 66 66 65 65 64 64 62 60 59 58 58 60 59 61 61 63 65 61 64 64 61 59 57 54 52 53 54 53 53 57 63 65 66 65 62 60 58 57
65 65 66 68 68 66 66 66 65 64 64 63 63 62 61 59 58 57 58 60 61 59 58 60 59 60 60 60 57 53 51 51 50 51 54 63 65 66 66 64 62 61 59
65 66 67 68 67 67 67 66 65 65 65 64 64 63 62 61 59 58 56 56 56 57 56 58 60 60 60 59 57 57 54 52 51 51 50 61 63 65 66 65 64 63 61
65 65 66 66 67 67 67 66 65 65 65 65 65 65 64 62 61 61 60 59 56 57 57 59 60 61 61 61 60 59 58 57 57 55 53 53 62 63 65 66 65 62 62
65 65 65 66 66 67 67 66 65 65 65 65 65 65 64 64 63 61 61 61 61 60 59 60 60 61 61 61 60 60 60 59 59 58 57 54 55 61 63 65 65 64 62
64 65 65 65 66 66 65 65 65 65 65 65 65 65 65 64 64 63 62 62 62 62 62 62 62 61 61 61 60 60 60 60 60 59 59 58 56 55 59 62 64 65 64
63 64 64 65 64 65 66 65 65 65 65 64 64 64 64 64 64 64 63 62 62 63 63 63 62 62 61 61 61 61 60 60 60 59 59 60 59 58 57 59 62 64 65
53 62 63 64 65 64 65 65 65 65 65 64 64 63 63 62 63 64 63 63 63 63 63 63 63 63 62 62 60 59 60 60 60 60 59 58 59 58 58 58 57 57 62
36 39 60 62 63 64 64 64 64 64 65 65 65 65 65 63 63 64 64 65 65 64 64 63 63 63 62 63 62 60 60 60 59 59 58 58 56 55 55 56 55 55 55
36 37 42 54 60 63 64 64 64 65 64 64 66 65 64 64 65 65 66 66 65 65 64 64 64 63 63 63 61 60 57 55 55 56 56 54 53 52 52 52 52 53 53
39 41 40 43 49 55 63 62 61 60 61 62 64 65 64 62 65 65 65 65 65 65 64 64 64 63 62 62 61 60 57 51 53 54 53 51 51 51 50 50 51 51 52
42 47 45 45 44 45 48 55 58 59 59 56 54 53 51 48 49 51 54 58 60 62 62 63 63 63 63 61 61 60 60 58 55 53 54 53 51 49 50 49 49 50 50
46 48 47 46 45 46 45 44 44 43 44 45 45 45 47 50 52 52 53 53 54 56 58 58 59 60 61 61 60 58 58 57 55 54 52 53 55 53 53 51 50 50 50
47 48 47 46 45 46 46 46 46 46 45 45 46 46 48 51 53 51 51 52 54 54 56 57 58 57 59 59 61 59 58 56 55 54 52 52 52 50 52 51 51 50 49

GFSSE_sfc_dewp_069.txt.gz
Dewpoint
65 70 75 74 73 73 73 73 73 72 71 70 70 69 67 70 70 70 69 69 70 69 70 69 69 69 68 67 67 67 66 66 65 66 68 69 68 69 69 68 68 62 65
65 69 75 75 74 74 73 73 72 72 71 70 68 67 69 71 71 68 67 67 68 67 70 69 68 68 68 68 68 68 69 68 66 65 66 68 70 66 66 66 66 66 67
65 68 71 74 75 75 74 73 72 71 70 69 68 67 71 71 69 69 67 66 66 67 68 68 68 68 67 67 67 67 69 68 67 67 66 66 67 69 66 66 69 69 69
63 67 69 75 75 75 74 73 72 71 69 69 68 70 71 70 69 67 66 66 66 67 68 66 68 67 67 67 67 67 67 68 67 68 62 64 64 69 69 69 68 69 68
63 65 70 75 75 74 73 73 72 71 69 69 69 70 71 70 70 69 66 67 67 66 67 67 67 67 67 67 67 66 66 66 68 65 66 67 65 67 68 68 67 67 68
62 64 72 74 75 74 74 73 71 69 68 68 69 69 71 71 70 68 66 66 66 66 67 67 67 67 67 67 67 66 66 66 67 60 61 64 64 66 66 64 64 64 65
61 66 69 74 74 74 73 72 70 69 67 69 70 69 71 72 70 68 67 66 66 66 67 67 67 66 66 67 67 65 64 65 57 59 60 62 63 64 64 63 63 62 63
62 65 68 73 74 73 73 72 71 68 68 69 71 70 70 72 70 69 67 66 67 66 66 66 66 66 65 64 64 64 63 64 58 58 60 62 65 64 64 62 61 61 61
63 64 66 70 71 72 72 72 71 69 69 70 71 71 71 70 70 69 68 67 66 66 66 66 65 65 64 63 63 62 63 63 59 57 56 61 65 64 63 62 61 60 60
64 64 67 68 67 67 67 70 69 69 69 70 70 69 68 68 69 69 69 68 66 66 66 66 65 64 64 63 61 61 63 63 58 57 57 61 65 63 62 61 60 59 59
66 66 68 66 65 65 64 66 67 68 68 68 67 67 65 63 64 64 67 67 67 66 66 66 65 64 63 63 61 60 61 57 55 55 55 65 64 63 61 60 59 58 58
65 67 66 66 65 66 65 65 63 62 58 57 62 63 60 59 61 62 65 66 66 67 67 66 65 64 62 56 58 60 56 54 53 54 56 64 64 65 63 60 59 58 57
65 64 65 66 65 66 65 65 62 62 61 57 54 55 55 55 58 58 61 62 63 65 62 64 64 62 58 57 54 52 52 53 52 53 57 63 63 65 65 63 61 59 58
64 65 66 65 66 65 65 65 62 61 62 60 59 58 57 56 56 54 55 58 60 60 57 58 57 58 58 58 56 54 51 51 51 52 54 62 63 64 65 65 64 61 59
65 65 66 66 66 65 65 65 65 62 62 62 62 61 59 58 57 56 54 54 55 55 54 55 57 58 58 58 57 56 55 53 52 53 53 61 62 63 65 65 64 64 63
64 64 66 65 66 64 65 65 63 61 62 62 62 62 61 60 59 59 58 58 54 54 54 55 58 59 60 59 59 59 58 58 57 57 57 57 62 62 63 65 65 64 63
63 64 64 65 65 65 66 66 63 61 61 62 62 62 63 62 61 59 59 60 60 58 57 58 59 60 60 60 60 59 59 59 59 58 59 59 58 61 62 62 64 64 64
62 63 64 64 64 65 64 64 62 63 62 62 62 63 63 62 63 62 61 61 62 62 62 61 61 61 60 60 59 59 59 59 59 59 60 60 60 58 61 63 62 63 64
61 62 64 65 65 64 64 65 64 63 63 63 63 63 64 63 63 63 62 62 62 62 62 62 62 61 61 60 60 61 61 60 60 59 59 60 61 61 60 61 62 62 64
58 61 63 64 65 64 65 65 66 65 64 64 63 63 63 63 63 64 63 63 62 62 62 62 61 62 63 62 61 59 61 61 61 61 60 59 59 61 60 60 60 59 61
41 57 61 63 64 64 64 64 64 65 66 65 64 64 64 63 63 63 64 64 63 63 63 62 62 63 63 64 62 61 61 60 60 60 60 59 58 58 57 57 58 57 58
37 39 50 60 62 63 63 65 65 65 65 64 66 65 65 65 64 64 64 64 66 66 65 64 64 63 64 64 62 61 58 56 56 58 58 57 56 56 55 54 54 55 56
38 40 39 46 56 61 63 64 65 64 64 64 64 65 65 64 65 66 66 66 66 66 65 65 64 64 62 63 63 61 57 53 54 56 56 55 54 54 54 52 53 53 54
41 46 44 43 46 51 56 62 61 61 61 62 60 61 60 54 54 54 57 60 61 63 63 63 63 63 63 60 62 61 61 60 56 53 56 55 53 52 54 54 51 53 52
46 49 47 46 45 46 47 51 55 57 53 50 48 47 46 48 51 51 51 52 53 55 57 57 58 59 59 59 58 58 60 60 57 55 54 54 56 55 54 54 52 52 51
48 50 50 47 45 46 46 46 46 47 46 47 49 49 48 49 52 51 51 52 53 54 55 56 57 57 57 56 58 57 57 56 55 54 54 54 54 53 52 53 53 51 49

GFSSE_sfc_dewp_072.txt.gz
Dewpoint
69 72 75 74 74 74 73 72 72 72 71 70 69 69 71 71 70 69 69 69 71 71 70 70 68 68 68 68 68 67 65 66 66 67 69 69 68 68 66 68 69 65 65
70 71 74 74 74 74 73 73 73 72 72 69 67 69 71 70 68 67 67 68 69 70 70 69 67 68 68 68 68 69 68 66 65 66 69 70 69 67 67 69 69 68 66
69 71 72 74 74 74 73 72 72 71 70 70 68 71 70 69 68 66 66 67 68 69 69 67 68 67 67 67 68 68 68 68 68 68 68 67 67 69 69 69 70 68 65
68 70 72 75 74 74 73 72 71 70 69 70 70 71 70 69 68 66 66 67 68 67 66 67 68 67 67 67 66 66 67 68 69 69 65 64 63 69 69 68 67 69 69
67 68 72 75 74 74 73 72 71 70 70 70 71 72 71 70 68 66 67 67 67 67 66 67 67 67 68 67 65 65 66 67 67 66 64 63 64 65 66 65 64 65 67
65 71 74 74 74 74 73 73 71 69 69 69 71 72 72 70 68 66 67 67 67 68 67 67 67 67 68 67 66 65 65 67 67 61 63 65 63 64 63 63 62 63 64
69 71 73 74 74 74 73 72 71 69 69 70 70 72 72 70 68 66 66 66 67 67 67 67 67 67 67 67 65 65 65 66 60 60 62 63 63 64 63 62 61 62 63
67 69 71 73 73 73 72 71 70 70 70 71 71 71 72 70 69 68 66 67 67 66 67 66 66 66 65 65 64 65 65 64 60 59 61 63 66 64 64 62 61 60 61
65 68 71 72 72 72 72 71 70 70 71 71 72 72 72 70 70 68 67 66 67 67 66 66 66 65 64 64 63 63 64 64 60 57 61 62 66 64 63 62 61 60 60
65 66 69 69 69 68 69 70 69 69 70 70 71 70 69 68 69 69 68 68 67 67 67 66 65 65 64 63 62 62 63 63 60 57 61 64 66 64 63 61 60 59 59
65 65 68 68 67 66 67 67 68 68 69 68 67 67 66 65 66 66 67 67 67 67 66 66 65 64 65 64 63 62 61 57 56 55 61 66 65 63 62 61 59 59 58
66 68 68 65 65 65 65 65 63 63 65 66 65 64 63 63 64 65 65 66 67 67 67 67 66 65 63 59 59 61 57 56 54 53 61 65 63 64 64 61 60 58 58
67 67 67 66 66 65 65 65 63 61 57 57 61 63 61 60 62 63 64 64 65 65 65 67 66 64 61 58 56 54 54 52 53 53 61 64 63 63 64 65 62 60 58
66 66 65 67 66 66 65 65 63 62 62 59 56 56 56 55 57 56 61 62 62 63 62 63 62 62 59 58 57 55 53 51 52 52 59 62 64 62 63 65 65 63 61
65 65 66 67 67 66 65 65 64 62 62 61 60 59 59 58 56 55 55 57 58 58 56 56 56 57 58 58 57 56 55 54 52 52 53 61 62 64 62 64 64 65 64
66 65 66 66 66 65 65 65 64 63 62 62 63 62 60 60 59 58 57 57 55 54 54 54 56 59 59 60 59 59 58 58 57 56 56 57 62 62 63 62 64 64 64
64 66 66 66 65 65 65 65 64 63 62 63 63 62 62 61 60 59 59 60 59 57 55 57 58 59 60 60 60 59 59 59 59 58 59 59 59 61 62 62 62 64 64
63 64 65 66 66 65 66 66 66 62 61 62 62 63 63 62 62 61 60 61 62 61 61 61 61 61 61 60 60 60 59 59 59 59 59 59 59 57 60 63 64 63 63
61 63 64 64 65 65 65 65 65 64 63 62 63 64 63 63 63 63 62 62 62 62 62 62 62 61 60 60 61 60 61 60 60 60 59 59 60 60 60 62 62 62 64
60 62 63 65 65 65 66 65 66 65 65 64 64 63 63 64 63 63 64 63 62 62 61 62 61 62 62 62 62 61 61 61 61 60 60 60 59 59 59 58 59 60 61
44 61 63 64 64 64 65 65 65 64 65 66 65 64 64 63 63 63 64 64 63 62 62 63 61 61 61 62 61 60 61 62 61 60 60 59 58 56 55 55 57 57 57
38 49 59 63 64 64 64 65 65 65 65 66 66 65 65 65 65 64 63 64 65 66 65 64 64 63 63 63 61 60 57 55 56 58 59 57 55 55 54 53 52 52 53
37 40 44 57 63 63 63 64 64 63 63 63 64 65 64 63 63 65 65 65 65 65 64 64 64 63 62 62 62 60 56 52 54 54 54 54 53 53 51 51 51 51 52
39 43 42 44 53 55 59 63 62 61 61 62 62 62 58 53 53 54 55 58 62 63 64 63 63 62 62 60 60 61 60 57 53 51 54 54 53 51 52 51 50 51 51
46 47 45 45 46 49 51 59 60 60 55 49 48 49 47 49 51 52 52 52 53 54 55 56 56 56 58 57 56 56 57 58 55 55 52 53 54 54 52 52 51 49 49
49 50 48 46 45 46 47 47 50 51 45 46 46 46 47 50 52 51 51 51 52 53 54 54 55 55 56 55 55 56 56 55 54 54 52 53 52 53 51 52 49 48 49

GFSSE_sfc_dewp_075.txt.gz
Dewpoint
70 73 75 74 73 73 73 73 72 72 71 69 70 71 71 69 69 70 71 71 72 71 70 68 68 68 68 68 65 66 66 67 69 70 70 68 67 69 70 70 68 63 65
71 73 75 74 74 74 73 72 73 72 71 70 71 71 69 67 67 68 70 70 71 70 67 67 67 68 68 68 68 68 67 67 66 68 70 69 70 70 70 70 68 64 65
71 72 73 74 74 74 73 72 71 70 70 70 72 70 69 67 66 67 68 68 68 67 67 67 67 67 67 68 68 69 69 68 68 69 68 67 68 69 69 69 69 69 69
71 72 73 74 74 74 72 72 71 69 69 71 72 71 68 66 66 67 68 68 67 66 66 67 68 68 67 66 67 67 67 68 69 67 64 64 62 67 66 66 66 67 66
70 71 73 74 74 74 72 71 70 70 69 72 72 72 69 66 67 67 68 68 66 66 66 67 68 68 67 65 66 66 67 68 68 65 64 63 63 63 63 63 63 65 65
69 71 73 73 74 73 73 72 69 70 70 72 72 72 70 67 67 67 67 68 67 67 67 67 68 68 67 66 65 66 66 67 64 62 63 63 62 64 63 62 62 63 64
71 72 73 73 74 73 73 72 70 70 70 72 72 71 70 67 66 66 67 67 68 67 67 67 67 68 67 66 65 65 65 65 60 62 62 63 62 64 63 62 61 61 62
71 72 72 73 73 73 72 71 70 71 71 71 73 72 70 69 67 67 67 67 67 67 67 67 66 66 65 64 63 64 65 64 59 61 62 63 66 64 63 62 61 60 61
71 71 72 72 71 71 71 71 70 71 71 72 72 72 71 70 68 67 67 67 67 66 66 66 66 65 64 63 62 63 64 64 59 61 61 63 66 64 63 62 61 60 60
70 71 70 70 70 69 69 69 70 70 70 71 71 70 69 69 69 69 68 68 67 67 66 66 65 65 64 62 62 63 61 61 58 59 61 65 66 64 63 61 60 59 59
69 69 69 68 68 68 68 67 68 69 69 69 68 67 66 67 67 67 66 67 68 67 67 66 65 64 64 63 63 62 61 57 56 57 61 67 65 64 62 61 60 59 58
67 68 68 67 67 66 66 65 65 67 66 65 65 65 64 64 65 66 65 66 67 67 67 66 66 65 63 59 58 61 57 55 54 57 61 66 64 64 64 62 60 59 58
66 68 67 66 66 65 64 64 62 62 65 65 64 63 63 63 64 65 64 65 64 65 65 66 65 64 61 59 57 57 56 53 52 53 61 65 64 62 64 65 63 61 59
66 67 67 66 65 65 65 64 62 59 58 59 62 63 59 60 62 63 63 63 63 64 62 63 63 63 62 60 57 56 54 51 51 51 57 63 64 62 62 64 66 64 62
66 66 66 67 66 66 65 64 64 62 60 56 57 60 56 56 56 56 59 62 61 62 61 60 60 59 59 58 57 57 55 54 52 51 53 62 63 64 62 62 64 66 65
65 65 66 66 66 66 66 64 64 63 62 60 59 59 59 58 56 56 55 56 56 56 55 54 55 57 58 59 59 59 57 57 56 55 55 56 62 63 64 62 62 64 65
66 66 66 66 66 66 65 65 64 64 62 63 62 61 60 61 59 58 59 58 57 54 54 55 56 58 59 60 60 60 59 59 59 58 58 57 58 62 63 63 63 63 64
65 65 66 67 66 65 65 66 65 65 62 63 63 62 61 61 61 60 59 60 61 59 57 58 59 60 60 60 60 60 60 60 59 59 59 59 59 57 60 64 64 64 64
63 64 65 66 66 66 66 67 67 65 64 62 62 63 62 62 62 61 61 61 61 62 62 61 61 61 61 60 61 61 61 61 60 60 60 60 60 61 58 61 62 62 64
62 63 65 65 66 65 66 66 66 65 65 64 64 63 63 63 62 62 63 62 62 62 62 62 61 62 62 62 62 61 61 61 62 61 60 60 60 59 60 59 59 59 61
60 63 64 65 65 65 65 64 64 64 65 65 65 66 64 64 64 63 63 63 63 62 62 62 62 61 61 62 62 60 60 61 61 61 61 60 59 57 56 55 56 57 56
47 62 63 64 64 65 65 65 65 64 65 65 65 65 65 65 65 64 64 63 64 65 65 65 64 63 63 63 61 60 57 55 56 57 58 59 57 55 54 53 52 52 53
39 52 60 63 64 64 65 65 64 64 64 64 64 65 64 62 64 65 65 65 65 65 64 64 64 63 62 62 61 59 55 51 54 55 54 54 53 53 51 51 51 52 52
37 41 48 56 63 63 64 63 62 62 61 62 63 62 57 56 55 55 55 58 61 63 63 63 63 60 59 57 58 60 59 58 55 52 54 54 53 51 51 51 51 51 50
43 43 42 46 54 55 60 63 62 61 61 54 54 53 49 51 52 52 52 52 52 54 54 55 55 55 56 56 55 55 54 54 55 55 51 52 54 54 52 51 50 49 47
46 46 45 44 45 48 52 57 60 60 51 48 47 49 50 52 52 51 51 51 52 53 53 54 54 54 54 54 54 53 53 52 51 53 53 52 52 53 52 50 48 48 47

GFSSE_sfc_dewp_078.txt.gz
Dewpoint
70 73 74 74 73 73 72 72 72 70 69 71 70 70 70 70 72 72 71 71 71 69 68 68 68 68 66 67 67 68 69 69 69 68 68 70 70 70 69 65 65 63 66
72 73 74 74 74 73 73 72 72 71 70 71 70 68 68 69 71 71 71 71 69 68 67 68 68 68 68 69 68 68 68 67 68 69 70 70 70 69 68 68 68 68 69
72 72 73 74 74 73 73 72 71 69 70 72 69 68 67 68 69 70 70 69 67 67 67 67 67 68 69 69 69 68 68 68 68 69 68 65 66 68 67 67 67 67 68
72 72 72 74 74 73 72 71 70 68 70 71 70 67 66 67 68 68 68 67 66 67 67 67 67 67 67 68 67 67 68 68 68 66 64 63 63 64 64 65 65 65 65
71 72 72 73 73 73 71 71 69 70 72 72 71 67 67 67 67 68 67 67 67 67 67 68 67 66 66 67 67 67 68 67 67 64 62 61 61 62 62 63 64 65 65
70 72 73 73 73 73 72 71 70 71 72 72 71 67 67 67 68 68 67 67 68 67 67 67 67 66 66 66 66 66 66 66 64 62 62 63 61 63 62 62 63 63 64
71 72 72 73 73 72 71 71 71 71 72 72 70 68 66 67 67 68 67 67 67 67 67 67 67 67 66 65 65 65 65 65 61 62 62 62 62 63 63 61 61 61 63
71 72 71 72 72 72 71 71 71 71 72 72 71 69 66 66 67 67 68 68 67 67 67 67 66 66 65 64 64 63 64 63 62 62 62 63 65 63 63 61 61 61 61
71 71 71 71 71 71 71 70 71 71 72 73 72 70 69 68 67 67 67 67 67 67 67 66 66 65 64 62 61 63 63 64 59 61 62 63 66 63 62 61 60 60 60
71 71 71 70 69 69 68 70 71 71 71 71 71 70 69 68 67 68 68 68 67 67 67 66 65 65 63 62 62 63 62 61 58 60 61 64 65 64 62 61 60 59 59
70 70 69 68 68 67 67 68 69 69 70 70 69 68 67 67 67 66 66 67 68 67 67 66 65 64 64 63 62 62 61 56 56 58 61 66 65 64 63 61 60 59 58
67 68 69 67 67 66 65 65 66 67 67 67 67 66 65 65 65 66 65 66 68 68 67 66 66 66 63 58 58 60 57 54 54 57 60 66 64 63 64 63 61 59 58
66 68 68 67 66 66 64 63 64 65 65 65 65 64 64 64 64 65 64 64 64 64 64 65 64 64 61 59 58 57 56 55 52 53 60 65 64 62 63 65 63 61 59
65 67 67 67 66 65 63 62 61 63 63 64 64 63 63 62 63 63 63 63 62 63 61 61 62 62 62 61 59 56 54 52 51 51 55 64 65 63 62 63 66 65 62
61 66 67 66 65 65 63 63 62 59 60 62 63 63 60 61 62 62 62 62 61 62 62 61 61 61 61 61 59 57 56 54 53 52 52 60 64 65 63 62 63 65 66
64 65 67 67 65 65 64 64 63 61 60 57 58 60 58 59 58 57 57 60 61 61 62 59 60 59 56 58 59 58 57 57 56 55 54 53 62 64 65 62 62 63 64
64 65 65 66 67 65 65 64 64 64 62 60 57 58 58 58 56 56 56 56 57 56 55 54 54 56 59 59 59 60 60 59 59 59 58 57 57 62 63 63 64 63 64
65 65 66 67 67 67 66 65 64 64 63 62 59 60 60 60 59 59 59 59 59 58 55 55 57 58 59 60 60 60 60 60 60 59 59 59 59 58 60 64 65 65 64
65 65 66 67 65 66 67 66 66 65 64 63 62 63 62 61 61 60 59 59 60 61 60 59 60 60 60 61 60 61 61 61 61 61 60 60 60 60 58 60 62 63 64
64 65 66 66 66 66 66 66 67 66 65 64 64 63 63 62 61 61 61 61 61 61 62 62 62 62 61 61 62 62 61 61 61 61 61 61 60 60 60 59 60 60 61
63 63 64 65 66 66 65 65 65 64 64 65 65 64 63 63 62 62 62 62 63 62 61 61 61 61 61 62 61 60 59 60 60 60 60 60 60 59 58 57 56 57 57
61 62 63 64 64 65 65 65 65 64 64 64 66 65 65 64 64 63 63 63 63 63 63 63 64 63 63 62 60 59 55 55 55 56 56 57 58 56 55 54 52 53 55
54 61 63 64 64 65 65 64 64 64 64 64 64 64 65 65 65 64 64 65 65 65 64 64 64 63 62 62 61 59 54 51 53 55 54 54 53 53 52 52 52 52 53
44 53 62 63 64 64 64 64 63 62 62 63 62 63 61 60 60 61 60 63 64 63 63 63 63 62 61 59 57 58 57 57 53 52 53 54 54 51 51 51 51 50 49
38 39 48 56 62 63 63 64 63 61 61 60 60 59 56 57 56 55 56 55 54 54 54 54 54 54 55 56 55 54 52 52 53 53 50 51 52 54 52 50 49 47 47
43 43 43 46 53 58 60 62 62 62 59 57 57 56 54 54 54 53 54 53 53 53 53 53 52 52 53 53 53 53 52 51 50 50 49 50 50 51 50 49 48 47 46

GFSSE_sfc_dewp_081.txt.gz
Dewpoint
70 72 74 73 72 72 72 72 70 70 70 69 70 71 72 72 72 71 71 70 69 68 68 67 67 68 69 69 69 69 69 67 68 70 70 70 68 67 67 67 66 66 65
71 72 73 74 73 72 72 72 70 71 72 71 69 70 71 72 72 71 70 69 68 67 68 67 67 69 69 69 69 68 68 69 70 69 69 69 68 67 69 68 69 67 67
71 72 72 73 73 72 72 71 69 70 71 70 68 69 70 71 71 71 69 68 67 67 68 68 68 68 69 69 68 68 68 68 68 67 66 64 64 66 65 65 65 66 67
71 72 71 73 73 72 72 70 69 71 70 69 67 67 69 70 70 69 68 68 67 67 68 68 68 69 68 68 69 69 69 68 67 65 62 62 60 63 63 64 65 65 65
71 72 72 73 72 72 71 70 69 71 70 69 67 67 68 69 68 68 67 67 67 67 68 67 67 67 67 68 69 68 68 67 65 63 61 61 60 61 63 64 64 64 64
70 71 72 72 72 72 71 70 69 71 70 68 67 68 68 68 67 66 67 67 67 67 67 67 67 67 67 67 67 68 67 66 64 62 62 63 61 62 62 62 62 63 64
70 71 71 72 72 71 70 70 71 72 70 69 67 67 67 68 67 66 66 67 67 67 67 66 66 66 66 66 66 66 66 64 61 62 62 62 62 63 62 61 61 62 63
70 71 71 71 72 71 70 71 71 72 71 70 68 67 67 68 67 67 67 67 67 67 67 67 66 66 64 64 64 65 64 64 61 61 62 62 65 63 62 61 61 61 61
71 70 70 71 71 71 70 71 71 72 72 71 69 68 68 68 68 67 67 67 67 67 67 66 65 64 63 62 62 63 64 63 60 61 62 63 66 63 62 61 61 60 60
69 70 69 69 69 68 68 70 70 71 71 71 70 69 67 67 67 68 68 68 67 67 66 66 65 64 63 62 62 62 62 61 58 61 61 63 64 62 61 61 60 60 59
69 69 69 67 67 66 66 69 69 70 70 70 69 67 66 65 66 66 66 67 68 67 66 65 64 64 64 62 62 62 61 55 55 58 61 64 65 63 62 61 60 59 58
67 69 68 67 66 65 66 66 66 68 68 68 68 66 65 65 65 65 65 66 68 68 67 66 65 65 63 58 57 59 56 54 54 56 60 64 65 63 63 62 61 59 58
66 67 66 67 66 65 64 65 65 66 66 66 65 65 64 64 64 64 63 64 63 64 63 65 63 63 60 59 58 57 56 54 53 53 59 63 65 63 63 65 64 62 60
64 66 67 67 66 65 63 63 64 65 65 64 64 64 63 62 62 63 62 62 61 62 60 60 61 60 60 60 59 58 56 54 52 52 53 62 65 64 62 63 66 65 64
62 62 61 66 66 65 62 61 61 63 63 64 64 63 63 62 62 62 62 61 61 61 61 60 60 60 60 60 61 59 57 56 54 53 52 57 64 65 64 62 63 65 67
56 57 61 65 67 65 63 62 59 59 61 62 62 63 62 61 62 62 62 61 60 60 61 60 59 60 59 57 58 58 57 57 56 56 55 54 59 64 65 63 63 64 64
58 59 65 64 66 66 65 64 62 61 59 59 59 60 61 58 60 60 59 58 60 60 60 60 55 55 56 59 59 59 60 59 59 59 59 58 58 61 63 63 64 64 64
63 63 66 66 66 66 66 66 66 64 63 61 58 57 59 58 58 56 56 55 57 56 55 54 55 56 58 59 59 60 60 60 60 60 60 60 59 58 60 63 65 65 65
64 64 65 65 66 66 66 65 65 65 65 63 61 60 59 59 58 58 58 59 59 59 58 56 57 59 59 60 60 60 61 61 61 61 61 61 60 60 59 60 62 63 64
65 65 64 64 65 66 65 65 64 66 65 64 63 62 63 61 61 60 60 59 60 61 61 61 60 61 61 61 61 61 61 61 61 61 60 60 60 60 60 60 59 60 61
64 65 65 65 65 65 66 65 65 64 65 65 64 64 62 62 61 61 61 61 61 61 61 62 62 61 61 62 60 60 58 58 58 59 59 59 59 60 59 60 58 58 60
62 64 64 64 65 65 65 65 65 65 64 64 65 65 64 63 63 62 62 62 62 63 62 62 63 62 62 62 60 59 56 54 54 55 55 56 56 56 56 55 55 55 57
59 61 63 64 65 65 65 64 63 63 63 63 64 65 65 64 64 64 64 64 64 64 63 64 64 63 61 62 61 60 55 50 53 55 54 54 53 53 52 52 52 54 53
45 58 62 63 64 64 64 64 62 62 61 62 63 63 63 63 63 64 64 64 63 63 62 62 62 61 61 60 57 57 57 57 53 50 52 53 54 52 51 51 51 50 50
41 47 58 60 62 63 63 64 63 61 62 61 61 60 60 60 60 60 60 60 60 58 57 56 55 55 56 55 54 53 52 52 52 53 51 51 52 53 52 50 49 47 48
40 40 44 52 58 60 61 62 63 62 61 59 58 59 57 57 57 55 54 54 54 55 56 54 54 52 52 52 52 52 52 50 48 48 49 49 49 49 49 48 47 46 47

GFSSE_sfc_dewp_084.txt.gz
Dewpoint
69 71 73 73 72 72 72 70 70 69 71 71 72 73 72 72 72 71 70 69 68 67 67 68 69 70 69 68 68 68 69 70 70 70 69 69 68 69 69 68 68 65 65
70 71 73 73 73 72 72 70 71 71 71 71 72 72 72 72 71 71 70 68 67 67 67 68 68 68 68 68 68 69 70 69 68 68 68 68 67 67 67 66 69 63 68
70 71 71 73 73 72 72 70 71 71 70 71 71 72 72 72 71 70 69 68 68 68 67 69 68 68 69 68 69 69 69 68 67 66 65 62 62 65 65 65 65 65 66
71 71 71 73 73 72 71 69 71 71 68 69 70 71 71 72 71 69 68 67 68 68 68 68 68 68 68 69 69 69 68 67 65 64 61 60 60 63 64 64 64 64 64
71 71 71 73 72 72 71 69 71 70 68 67 69 71 71 71 70 69 68 67 68 68 68 69 68 68 69 69 69 68 67 65 64 62 61 60 60 62 63 64 64 64 64
71 71 72 72 72 72 71 70 71 70 68 67 67 69 70 70 68 68 67 68 68 68 68 68 67 68 68 69 68 68 67 65 63 62 62 62 61 63 62 62 63 64 64
71 71 70 72 72 71 70 70 71 70 68 67 67 67 68 68 67 67 67 68 68 67 67 67 67 67 67 66 67 67 65 64 61 61 61 61 62 63 63 62 62 62 63
70 70 70 71 71 71 70 70 71 71 68 67 68 66 67 66 66 67 67 67 67 67 66 66 66 65 65 65 65 66 65 63 61 61 61 62 65 63 62 62 61 61 62
70 70 70 70 70 70 70 71 71 71 70 69 68 68 69 67 66 66 67 67 67 67 67 66 65 64 63 63 63 64 64 64 60 61 62 63 65 62 62 61 61 61 60
69 69 69 69 69 68 68 70 70 71 70 69 68 68 67 67 67 66 65 68 67 67 66 66 65 64 63 62 62 62 62 61 58 60 61 62 64 62 61 61 61 60 60
67 68 68 67 66 66 67 68 69 70 70 69 68 66 66 65 65 66 66 67 68 67 66 65 64 63 63 61 62 62 59 55 55 57 61 63 66 62 62 61 60 59 59
67 67 67 66 66 66 68 66 66 68 69 69 67 65 64 64 64 65 65 66 68 67 67 65 65 65 62 58 57 58 56 54 54 55 60 63 66 63 63 62 61 60 58
67 68 67 66 65 65 66 65 65 66 67 68 67 65 64 64 63 62 62 63 63 64 63 64 62 62 59 58 58 57 56 55 54 52 56 63 64 64 63 65 64 62 61
66 66 66 66 65 64 65 65 65 66 65 66 66 64 63 62 62 62 61 61 61 61 60 59 60 59 59 59 58 59 57 55 53 52 53 58 63 65 63 63 65 66 64
65 66 66 66 65 65 62 63 64 64 64 64 64 64 63 62 62 62 62 61 61 60 60 59 58 59 59 59 60 60 59 57 56 54 53 57 59 64 64 63 63 64 66
64 65 66 66 65 65 63 61 61 63 63 64 63 64 63 62 62 62 62 61 60 60 60 60 59 59 59 58 57 58 58 58 57 56 56 56 59 60 63 64 63 64 65
63 62 62 64 65 65 65 64 61 59 61 63 62 63 63 62 61 61 61 61 61 60 60 60 59 56 56 57 58 59 59 59 59 59 59 59 59 60 61 63 64 64 65
59 60 62 61 63 62 65 65 64 63 60 58 59 61 61 62 60 60 60 59 58 59 59 57 56 54 55 57 58 59 60 60 60 60 60 60 60 60 60 63 64 64 65
59 60 63 64 64 64 65 65 65 65 64 63 60 58 58 60 59 58 58 57 56 57 55 54 54 56 57 59 59 60 60 61 61 61 61 61 61 61 60 61 61 63 64
63 63 64 65 65 65 66 65 64 65 64 64 63 61 60 58 59 58 58 58 58 59 59 58 57 58 59 60 61 61 61 61 61 59 59 59 59 60 60 60 60 59 61
64 64 64 64 64 65 65 64 62 59 64 65 64 64 62 61 60 60 59 59 59 60 60 61 61 61 61 62 61 59 58 58 58 58 57 56 57 58 58 59 58 58 59
63 64 63 63 63 63 64 64 64 64 64 65 65 64 64 63 62 61 61 61 60 60 60 61 62 62 62 62 59 57 54 54 54 55 55 54 53 55 56 56 56 55 56
61 62 63 63 63 63 64 64 63 63 63 63 64 64 64 64 64 64 63 63 63 63 62 62 62 62 60 60 61 58 54 50 52 55 54 54 53 53 52 52 53 54 53
50 60 62 62 63 64 64 63 63 62 61 63 63 63 63 63 63 63 64 64 64 63 63 62 62 61 60 58 56 57 56 57 55 50 52 53 53 52 51 51 51 51 51
42 49 59 61 61 62 62 63 62 61 62 61 61 62 62 61 61 62 61 62 62 61 59 59 58 58 58 57 56 54 53 51 51 53 48 49 51 51 51 50 49 48 49
41 42 49 56 58 60 61 61 61 61 60 59 59 59 58 58 58 59 59 58 57 57 57 57 56 55 53 52 52 51 51 49 47 47 49 48 47 49 48 48 47 47 48

GFSSE_sfc_dewp_087.txt.gz
Dewpoint
69 70 73 73 72 71 71 69 70 71 72 72 72 72 72 72 72 71 69 68 68 69 68 69 70 69 68 68 68 70 70 70 69 69 69 69 69 68 68 68 67 64 66
69 70 73 73 73 72 70 71 70 71 72 72 73 72 72 72 71 70 69 68 67 68 68 69 69 68 68 68 69 70 69 69 68 67 67 67 68 66 66 67 68 66 69
69 70 70 73 73 73 70 71 70 71 71 72 72 72 72 72 71 69 68 68 67 68 69 68 68 67 68 69 69 69 68 67 66 65 64 61 62 65 65 66 66 66 68
70 70 70 73 73 72 70 71 71 70 70 71 72 72 72 72 70 69 68 68 68 69 69 69 67 69 69 69 69 68 66 65 64 64 60 60 59 64 65 64 65 64 65
70 70 70 72 73 72 70 71 71 69 69 70 71 72 72 71 70 68 68 69 70 70 69 68 69 70 70 70 68 67 65 65 64 62 61 62 61 62 64 64 64 64 64
70 70 71 72 72 72 71 71 71 68 68 69 71 71 71 71 69 68 68 69 69 69 68 68 69 69 70 69 68 66 65 65 64 62 62 63 61 63 63 63 64 64 64
70 70 70 72 72 71 71 71 71 69 67 67 69 70 70 69 68 67 67 68 68 68 68 68 68 68 68 68 68 66 64 64 61 62 62 63 62 63 63 63 62 63 63
69 70 69 71 72 71 71 71 71 68 67 67 69 69 69 67 67 66 66 67 67 68 67 67 66 66 66 66 67 66 64 63 61 61 63 63 65 63 63 62 62 62 62
69 69 69 69 70 70 70 71 71 69 69 68 67 68 66 68 66 66 66 66 67 67 67 67 65 65 64 65 65 64 65 63 61 61 61 63 65 63 62 62 62 61 61
69 69 69 69 68 67 69 70 70 70 69 69 68 68 66 65 65 66 66 68 68 67 67 66 65 64 63 62 62 62 63 62 60 62 62 62 65 62 61 61 61 61 60
68 68 69 67 67 67 68 69 70 70 69 68 67 66 66 64 64 63 66 67 68 67 66 66 65 63 62 61 62 62 60 57 56 58 61 62 65 62 62 61 60 60 59
65 67 68 67 66 66 67 69 69 69 68 66 64 65 65 65 66 65 65 66 68 67 67 65 65 64 61 58 58 58 56 56 55 56 58 63 64 65 63 63 61 60 59
66 66 67 65 65 66 67 67 68 69 69 67 65 64 64 65 66 65 66 66 66 65 64 65 64 62 60 59 59 58 58 57 55 54 55 61 64 65 64 64 65 63 62
66 66 66 65 65 65 66 66 66 67 68 67 66 65 65 64 64 63 63 64 64 64 63 62 62 61 60 60 60 60 59 58 57 56 56 57 60 64 65 64 64 66 66
65 65 65 65 65 65 66 65 66 66 66 68 66 65 64 64 63 63 63 63 63 63 62 61 59 59 60 60 61 60 60 59 58 58 57 58 58 60 64 64 64 64 66
61 65 66 65 65 63 64 64 65 65 66 67 66 65 64 63 63 63 64 64 63 63 62 61 59 60 60 60 58 58 59 59 59 59 59 60 60 61 62 64 64 64 65
63 65 66 66 65 64 63 63 64 65 65 65 65 66 65 64 63 63 63 63 63 62 61 61 61 60 59 58 57 58 60 60 60 60 61 61 61 61 62 64 65 65 65
63 62 64 65 66 65 65 64 62 62 63 64 64 65 64 64 64 63 62 62 63 62 61 60 60 59 56 55 57 59 60 61 61 60 61 61 61 61 62 63 64 65 65
61 61 61 63 63 64 65 65 64 62 61 59 61 63 63 63 63 62 61 61 61 60 59 59 58 56 55 57 58 59 60 60 60 60 60 61 61 61 61 62 62 62 64
59 61 61 62 63 63 65 66 66 65 64 64 62 59 59 60 61 61 61 60 59 57 57 57 56 56 57 59 60 61 61 61 62 61 59 59 59 60 60 61 62 61 61
61 61 62 63 63 64 65 65 64 63 64 65 65 64 63 62 60 60 60 59 59 58 58 58 58 59 60 62 62 60 60 60 59 59 58 57 58 58 59 60 61 61 60
61 62 63 64 63 65 64 65 65 64 65 66 66 66 65 64 64 63 61 60 60 60 61 61 62 63 63 63 60 60 55 54 56 56 56 56 55 56 57 57 58 59 60
61 61 61 62 63 65 64 65 64 64 64 64 64 65 65 65 65 65 64 64 64 63 63 63 63 62 61 62 62 58 55 53 55 56 56 55 55 54 55 55 55 56 57
61 63 63 62 62 63 64 64 62 61 60 62 61 63 64 64 64 65 64 64 64 63 62 62 62 62 62 60 60 58 59 59 56 53 53 54 54 54 53 53 53 53 53
52 56 61 62 63 63 63 63 63 62 62 62 62 63 63 64 64 64 64 64 62 61 61 61 60 60 60 60 58 57 57 56 56 54 50 51 53 53 52 52 51 51 52
44 45 52 60 61 62 63 63 63 62 62 61 61 62 62 61 62 62 63 63 62 61 60 59 58 57 57 56 55 55 54 52 51 51 50 50 50 51 51 50 50 49 50

GFSSE_sfc_dewp_090.txt.gz
Dewpoint
64 68 73 73 72 71 70 69 70 71 72 73 73 72 72 72 71 70 69 69 71 71 70 70 69 69 69 70 71 70 69 69 69 69 68 69 68 68 67 66 69 64 67
65 68 73 73 72 71 70 71 72 72 72 73 74 72 72 72 71 70 68 68 70 69 70 69 68 68 69 71 70 68 68 68 67 66 67 67 68 66 67 67 70 67 68
65 68 70 72 73 72 72 71 71 71 73 73 73 73 72 72 70 69 68 69 69 70 70 67 68 68 69 70 68 67 66 66 65 64 65 57 61 65 66 66 66 67 68
65 67 68 73 73 72 72 71 71 71 72 73 73 73 73 72 70 69 68 68 69 69 69 68 69 69 69 69 68 65 64 64 63 64 57 55 56 64 64 65 65 65 67
65 67 68 73 73 72 72 71 71 71 71 72 73 72 72 72 69 69 69 70 70 70 69 69 70 69 69 68 67 64 64 64 63 61 59 60 58 62 64 63 63 64 66
65 66 71 72 72 72 72 72 70 70 71 71 72 72 72 71 69 69 70 70 71 70 69 69 70 70 69 68 66 64 65 64 64 59 59 60 60 63 63 64 64 64 64
66 66 69 72 73 72 72 72 70 69 70 71 71 71 71 70 68 67 69 70 69 69 68 69 69 69 69 68 66 65 64 62 58 58 59 60 61 63 63 62 62 63 63
65 66 68 71 72 71 72 71 70 69 69 71 71 71 70 70 68 67 67 68 69 68 68 68 67 67 67 68 66 65 64 64 59 58 59 60 63 63 62 62 62 61 61
66 66 67 69 69 71 71 71 70 69 69 70 70 70 69 69 68 68 68 68 68 68 67 67 66 66 66 65 66 65 64 62 58 59 57 59 65 62 62 62 61 61 61
66 66 67 68 65 64 69 70 69 69 69 69 69 68 67 67 68 67 67 68 67 68 67 66 65 64 64 63 63 63 63 63 58 60 59 60 64 61 61 61 61 60 60
67 67 68 66 62 61 66 68 68 69 68 67 67 65 64 63 63 64 66 67 68 68 67 66 65 63 63 63 62 61 61 56 55 56 58 62 65 63 61 61 60 60 59
66 67 67 63 60 61 67 67 66 64 62 62 64 61 60 60 60 60 64 67 68 68 67 65 64 63 60 53 55 58 54 55 54 55 56 62 63 65 64 63 62 61 60
66 67 66 61 60 62 67 67 66 65 63 59 59 61 60 60 63 62 63 63 63 64 60 61 61 56 54 55 56 55 55 54 54 54 55 60 64 64 65 64 66 64 63
63 66 67 63 59 61 67 67 66 66 64 63 61 57 58 58 60 60 59 61 60 58 58 58 56 56 56 56 57 57 57 58 57 58 57 58 59 62 64 65 64 66 66
61 65 66 65 62 60 65 65 66 66 65 63 64 61 60 58 58 58 57 58 57 57 56 55 54 53 55 57 58 59 58 59 58 59 59 59 59 60 62 64 65 65 65
62 62 65 64 63 61 62 64 65 65 65 66 65 64 63 62 61 60 60 61 61 61 59 57 56 55 57 58 57 57 58 59 59 59 59 60 61 62 63 64 65 65 65
60 62 64 63 62 62 60 61 63 64 64 65 65 65 64 64 63 63 62 62 62 61 59 59 59 58 58 57 57 57 58 59 59 59 59 59 60 62 63 64 65 66 66
61 63 62 64 63 62 62 63 61 62 62 62 63 64 65 64 64 63 63 61 61 61 60 59 59 59 58 55 54 57 59 59 58 57 57 57 58 58 62 64 64 65 65
61 62 62 65 64 63 64 63 63 63 60 59 61 62 63 63 63 62 61 60 60 61 60 58 58 58 56 55 57 58 58 58 57 56 57 57 58 60 59 60 62 62 63
61 62 62 61 64 65 65 65 65 63 60 60 60 61 62 62 63 62 62 60 59 60 59 58 57 58 56 58 58 57 60 58 58 58 58 57 58 58 58 59 60 59 61
61 61 60 61 62 63 63 63 64 64 64 64 62 61 61 60 60 62 64 62 61 59 59 58 57 57 58 60 61 57 57 57 56 56 57 56 56 56 57 58 59 59 60
59 59 60 61 62 62 62 62 62 64 66 66 65 64 63 64 64 64 63 63 61 60 60 60 59 60 62 63 59 59 54 52 53 55 55 55 55 55 55 56 57 59 61
59 60 61 61 62 64 63 65 64 64 65 65 66 65 65 65 65 65 64 64 64 64 64 63 63 62 61 61 59 57 53 51 52 53 54 54 54 54 54 55 54 56 58
61 62 62 62 63 61 64 63 60 61 61 63 64 65 65 65 65 66 65 64 64 64 63 62 61 60 60 58 59 60 59 57 53 52 52 52 53 51 52 52 53 54 55
61 61 61 62 62 62 64 64 63 63 62 62 63 62 63 64 64 64 64 64 64 63 62 61 60 60 60 59 59 59 59 59 59 57 47 46 49 50 52 52 52 52 53
51 52 57 61 61 62 63 63 63 61 63 62 62 62 62 63 64 64 64 65 64 63 62 61 60 60 60 59 59 59 58 52 50 50 50 47 47 48 51 50 51 51 52

GFSSE_sfc_dewp_093.txt.gz
Dewpoint
63 69 74 73 72 71 71 70 70 71 74 74 73 72 72 72 71 70 70 71 71 71 70 70 70 69 71 70 69 69 69 69 69 69 69 69 69 68 68 70 69 64 67
64 68 73 73 72 71 70 71 72 72 74 73 73 72 72 72 71 69 69 70 71 71 69 69 69 70 70 69 68 68 68 67 66 67 68 67 68 67 67 68 70 66 67
64 68 70 73 73 72 71 72 72 72 73 73 73 73 72 72 70 69 69 70 71 70 69 67 67 70 69 68 67 66 66 64 62 64 64 57 62 66 66 67 69 68 68
64 68 68 73 73 72 72 72 72 72 73 73 73 73 72 71 70 68 70 71 71 70 68 69 69 69 68 67 65 64 63 63 61 63 56 54 57 65 65 66 66 67 69
66 68 68 73 73 72 72 71 71 72 73 73 72 72 72 72 69 68 70 71 71 70 70 69 69 69 68 66 64 64 63 62 63 61 59 60 59 63 64 65 64 66 67
65 66 71 72 73 72 72 72 72 72 72 72 72 72 72 71 70 70 70 70 70 69 70 70 69 69 68 65 65 64 63 63 65 58 58 61 61 63 64 64 64 64 65
64 67 69 73 72 72 72 72 72 71 72 72 72 72 71 71 68 67 70 70 69 70 69 70 70 69 68 66 65 64 62 63 56 58 59 60 62 64 64 63 63 63 63
64 68 68 71 72 72 72 71 71 71 71 72 72 71 71 70 69 68 69 70 69 69 69 69 69 69 68 67 65 64 62 63 57 57 59 61 64 63 63 62 62 62 62
65 67 67 69 69 71 71 70 70 71 71 71 71 71 70 69 69 67 69 70 69 68 68 68 67 67 67 67 66 64 63 63 59 57 57 59 65 63 63 62 62 61 61
67 67 67 68 67 65 69 70 69 69 70 70 70 69 68 68 68 69 69 69 69 69 68 67 66 66 65 65 64 64 64 64 57 58 58 61 63 62 62 61 61 61 61
62 61 67 68 64 61 67 67 68 69 68 68 67 66 65 64 64 65 66 67 69 69 67 66 65 64 64 64 63 62 63 56 53 55 57 65 65 63 61 60 60 60 59
59 59 61 68 65 60 65 65 62 62 61 61 62 62 61 62 61 61 64 67 68 68 67 66 64 63 61 54 56 59 55 54 53 54 58 64 63 65 64 63 62 61 60
60 60 58 67 66 58 65 66 60 59 58 57 58 58 57 58 60 62 64 64 64 65 62 63 62 57 54 53 54 53 53 53 52 54 58 64 63 63 65 65 66 65 64
59 59 59 66 66 58 66 66 58 57 56 59 60 57 57 59 59 59 60 60 60 59 57 58 56 54 55 54 54 54 55 55 56 57 57 60 61 62 64 65 65 66 67
60 60 60 66 64 65 67 66 63 58 58 56 58 58 58 58 57 58 58 58 58 56 56 55 54 53 52 52 54 56 56 57 57 58 58 60 61 61 62 63 64 65 66
60 62 65 65 65 63 66 67 66 63 58 60 58 57 55 56 57 57 56 56 56 56 56 55 53 51 51 55 55 55 55 57 57 58 58 60 62 63 63 65 65 66 66
57 61 62 64 63 60 64 66 66 66 60 62 63 60 60 60 59 59 57 60 60 59 57 56 54 55 55 55 55 55 56 57 57 57 59 59 61 62 64 65 65 66 66
59 60 62 64 62 61 61 65 66 66 67 65 65 64 62 61 61 61 61 61 61 60 59 58 57 57 56 55 53 54 56 58 57 56 57 56 58 57 62 65 66 65 64
61 61 61 64 62 60 59 61 61 63 64 64 63 64 64 63 63 61 61 61 60 61 59 58 57 57 56 56 54 55 57 59 57 54 55 56 59 60 60 61 63 63 63
61 61 61 62 63 61 63 63 63 63 60 59 60 61 62 61 61 61 59 59 59 61 60 59 57 57 56 55 54 56 59 57 57 57 55 56 57 59 58 59 60 59 62
61 62 61 62 62 62 63 63 63 61 61 61 62 62 61 61 62 62 63 62 62 61 62 60 59 58 58 59 61 59 58 57 56 56 57 56 56 57 56 57 57 58 59
60 61 61 60 60 62 62 64 63 64 64 62 64 63 62 62 62 62 63 64 62 62 61 60 62 61 61 64 61 61 56 56 54 54 55 55 54 55 55 54 55 57 60
60 60 59 59 60 62 62 64 64 65 65 65 66 65 64 65 66 65 65 64 64 63 62 63 63 62 62 64 62 60 56 53 53 54 54 55 52 54 54 55 54 54 56
60 61 61 60 60 61 63 64 61 61 61 62 62 64 63 64 65 65 65 65 65 64 64 63 62 60 60 59 60 60 58 57 53 51 54 53 53 50 52 53 52 53 55
59 60 61 62 61 62 63 61 62 61 61 62 63 62 63 64 64 64 65 64 64 64 64 62 60 59 60 59 59 59 58 59 58 56 53 49 50 51 52 52 51 52 53
59 60 60 61 60 61 62 62 62 62 61 61 61 60 62 63 64 64 64 64 64 64 62 61 61 61 60 59 59 58 57 56 56 56 53 50 48 50 52 52 51 52 53

GFSSE_sfc_dewp_096.txt.gz
Dewpoint
67 70 74 73 72 71 71 70 72 74 74 74 73 72 72 72 71 71 70 70 71 71 71 71 71 71 70 68 68 69 69 69 69 69 69 69 69 69 69 69 69 65 68
68 70 74 73 72 71 71 72 72 74 74 73 74 71 72 71 70 71 72 71 71 70 71 70 71 69 68 68 68 68 67 67 67 68 68 68 69 68 68 69 69 67 69
68 70 72 73 73 72 72 72 72 73 74 74 74 72 72 71 70 71 71 71 71 71 70 69 71 70 67 67 67 65 63 62 64 67 67 63 64 67 68 68 70 69 70
67 69 69 73 73 72 72 72 72 73 74 74 74 73 73 71 70 70 71 72 71 69 69 70 70 68 67 65 64 62 62 61 64 64 58 58 61 66 65 67 68 68 68
67 68 70 73 73 72 73 73 72 72 74 73 73 73 72 71 69 70 71 72 70 67 68 70 69 68 66 64 64 63 62 64 66 61 60 60 61 64 66 66 66 67 67
67 68 72 73 73 72 73 72 72 73 73 73 73 73 72 72 70 71 71 70 69 70 70 69 69 68 66 65 64 63 63 64 65 58 60 63 62 64 64 64 65 65 65
66 69 70 73 73 72 72 73 73 73 73 73 72 72 71 71 70 71 71 70 69 70 71 69 69 68 66 65 64 62 62 64 59 59 60 61 62 64 64 63 63 63 63
66 69 70 71 72 72 72 72 72 73 73 72 72 71 71 70 67 70 68 68 69 70 70 70 69 68 67 66 65 63 64 64 59 59 61 62 65 64 63 63 63 63 62
67 68 69 70 71 71 72 71 71 72 72 72 71 71 70 69 66 67 68 68 69 69 69 69 69 68 68 66 65 64 64 63 61 58 60 62 66 64 63 63 63 62 62
63 61 63 69 69 69 69 70 70 70 70 70 70 69 68 67 68 67 68 68 69 69 69 69 67 66 66 66 65 66 64 63 58 58 61 63 64 63 62 62 62 61 62
62 61 61 61 67 66 68 68 69 69 69 69 69 67 66 65 65 64 67 67 69 69 68 67 66 65 65 64 64 63 62 59 56 57 61 67 64 62 61 61 61 60 60
60 60 61 61 61 64 67 66 65 67 68 68 66 65 63 63 63 63 66 67 68 68 67 66 65 65 63 58 59 61 57 56 53 55 61 66 65 64 63 62 62 61 60
58 60 61 61 61 61 67 65 62 64 65 66 64 64 62 62 62 64 65 66 66 65 65 65 64 61 57 55 56 54 54 53 53 55 62 64 64 63 65 65 66 65 64
58 58 60 61 60 61 64 64 60 59 58 59 62 60 59 60 61 63 63 63 63 63 61 61 61 58 56 54 53 54 53 54 56 57 59 63 64 63 63 64 65 66 66
57 57 59 60 61 61 62 66 58 57 56 57 57 57 58 60 59 60 61 61 60 59 58 58 56 54 54 53 53 55 56 56 57 58 55 61 62 63 62 63 64 65 66
59 58 60 60 61 63 64 65 57 56 56 59 58 59 59 59 58 58 58 58 58 57 56 55 53 52 51 53 54 55 55 56 57 58 58 58 62 63 65 65 65 66 66
58 61 62 61 63 64 64 65 65 60 56 57 57 56 56 57 57 57 56 57 57 58 57 56 54 54 54 56 55 55 55 56 57 57 58 59 61 62 65 66 66 66 65
60 62 63 64 63 63 65 65 65 65 63 59 58 58 58 58 58 58 58 60 61 60 59 57 57 57 56 56 55 54 54 57 57 56 56 56 58 59 63 65 66 66 64
59 61 62 60 59 60 63 64 64 65 65 66 63 61 61 60 60 61 61 62 61 60 59 58 58 57 57 56 55 54 56 58 57 55 54 55 58 59 58 61 63 64 64
61 61 61 61 58 57 62 64 64 64 65 65 65 65 63 63 62 61 61 60 60 61 60 59 57 57 57 56 54 53 57 57 57 56 56 56 57 56 56 56 57 59 62
60 61 60 60 62 61 62 62 63 63 63 63 63 62 63 62 62 61 62 61 60 60 61 60 59 57 58 57 59 60 59 56 57 57 56 54 54 55 54 54 55 57 59
59 60 61 60 61 62 63 63 63 62 62 61 62 62 63 63 64 63 63 63 62 62 60 60 61 61 60 62 59 58 56 57 58 54 54 54 53 53 53 52 54 55 57
58 60 59 60 60 61 61 62 62 62 62 63 64 63 63 63 63 63 64 64 62 62 61 60 61 61 61 62 62 60 56 53 53 54 53 54 51 52 52 52 52 53 54
59 61 60 60 61 61 62 60 59 59 59 60 61 62 63 63 63 64 64 64 63 63 61 62 62 60 60 59 60 61 59 57 53 52 54 53 52 50 50 51 51 52 54
60 60 61 60 60 61 62 62 61 60 60 61 61 61 62 63 62 63 64 64 63 63 63 62 61 59 59 58 58 57 57 57 57 54 51 53 51 51 51 51 51 51 52
58 59 60 60 60 61 61 61 61 60 60 60 60 60 60 62 63 63 63 63 63 63 63 62 61 60 59 59 58 58 57 56 55 55 54 52 48 48 50 51 50 51 51

GFSSE_sfc_dewp_099.txt.gz
Dewpoint
68 71 74 73 72 72 73 74 75 75 74 73 72 72 73 73 72 70 69 69 70 71 71 71 71 69 68 70 70 69 69 69 69 69 69 70 70 69 68 68 68 68 70
69 71 73 73 73 72 72 74 75 74 74 73 71 72 72 72 71 70 71 71 71 71 71 71 69 68 68 69 69 68 66 68 68 68 68 68 69 70 70 69 70 69 70
69 71 71 73 73 73 73 73 74 74 74 73 72 72 72 71 71 71 72 71 71 71 71 70 68 68 68 67 65 65 65 65 66 66 67 64 66 68 69 70 70 70 70
69 71 71 73 73 73 73 72 73 74 74 74 73 73 73 71 71 72 71 72 71 70 71 70 68 66 65 64 63 64 64 64 66 64 59 61 63 66 68 68 68 68 68
70 70 71 73 73 73 73 72 72 74 74 74 73 74 73 72 71 71 71 71 70 71 71 69 67 65 64 63 63 64 64 66 66 62 60 61 62 65 66 67 67 67 67
68 69 72 73 73 73 73 73 72 73 74 74 73 73 72 72 72 72 72 70 69 69 71 69 67 66 65 64 64 64 64 65 63 61 62 63 62 64 64 65 64 65 65
67 70 71 73 73 73 73 73 73 72 73 73 73 73 72 72 72 72 71 69 68 70 70 69 67 65 65 64 63 63 64 65 59 61 61 61 62 64 64 64 63 63 63
69 70 71 72 72 72 72 73 73 73 73 72 72 73 71 71 72 72 70 69 68 70 69 68 68 66 66 65 63 63 64 64 60 61 61 62 66 64 64 63 63 63 63
69 70 70 71 71 71 72 72 72 72 72 72 72 71 70 70 70 71 66 68 69 71 71 69 69 68 67 65 64 64 64 64 58 61 61 62 66 64 64 63 63 63 63
63 64 67 70 70 70 70 71 71 71 71 71 70 69 69 67 68 66 65 67 69 70 70 70 69 69 68 67 65 65 64 62 58 60 61 63 65 63 63 63 63 62 62
62 62 63 63 65 69 68 68 69 70 70 69 69 67 66 64 64 64 65 66 69 69 69 68 67 67 66 65 64 63 62 58 57 60 62 66 64 63 62 62 61 61 61
60 61 61 62 62 62 68 67 67 69 69 68 67 66 64 64 63 64 65 66 68 68 68 67 66 66 63 60 59 61 57 56 54 60 62 67 65 64 63 63 62 61 61
60 61 61 62 62 61 61 66 66 67 68 68 66 65 64 63 63 65 66 66 66 65 65 65 64 61 59 57 56 55 53 53 53 59 62 66 65 65 66 66 66 65 64
59 60 60 61 62 62 62 62 64 65 67 67 66 65 64 62 63 64 64 65 64 64 63 62 61 59 57 55 55 54 53 53 54 57 61 64 66 64 64 65 66 66 66
57 59 60 60 61 62 62 63 64 63 65 66 65 66 63 62 63 63 63 63 63 63 61 61 60 58 56 54 53 53 54 54 56 56 57 62 64 66 65 64 64 65 65
57 57 59 60 60 61 62 63 63 64 60 61 65 63 64 62 62 62 62 62 62 60 60 59 57 55 54 53 52 54 55 56 57 57 55 57 63 64 65 65 65 65 66
59 59 59 59 61 61 62 63 64 65 61 58 60 60 60 60 60 60 60 60 60 58 56 55 54 52 51 53 54 55 55 55 57 57 58 57 60 62 64 66 66 66 66
59 60 60 59 60 61 62 63 64 63 63 58 57 58 59 59 58 58 58 58 57 57 57 56 55 55 55 55 55 54 54 56 57 57 57 59 59 60 63 65 66 66 65
59 61 61 63 61 62 63 65 65 64 62 61 58 57 57 57 57 57 58 58 60 59 58 57 57 57 56 56 55 54 54 55 57 55 54 55 58 60 60 62 64 63 64
58 61 61 62 62 61 63 64 65 64 63 64 63 60 58 58 58 59 60 60 61 60 59 59 57 58 57 56 55 53 54 58 57 56 55 57 58 57 57 56 57 58 61
56 60 61 59 59 60 61 62 63 62 63 61 63 62 61 61 60 61 61 60 61 60 60 59 58 57 57 57 58 59 59 58 56 57 57 55 55 55 55 55 56 57 60
56 55 60 60 59 58 61 62 63 63 63 63 63 64 64 63 62 61 61 61 61 61 61 60 60 60 59 60 58 58 55 57 59 58 55 54 54 54 53 54 54 55 58
55 55 56 60 60 58 60 62 62 62 62 62 62 62 63 63 63 64 63 63 62 62 61 61 61 61 59 61 61 58 56 54 55 56 55 55 52 52 52 53 52 54 54
57 59 58 61 61 60 60 61 60 59 59 61 61 62 62 63 63 63 63 63 62 62 61 61 61 61 60 59 60 61 59 57 52 52 54 52 51 51 50 51 51 52 54
58 59 60 60 61 61 61 60 60 59 60 61 61 61 61 62 62 62 63 63 63 62 61 61 60 60 60 58 57 58 57 56 56 53 50 51 51 51 51 51 50 51 53
58 59 59 60 60 61 61 60 60 59 59 59 60 60 60 61 62 62 62 62 62 62 61 61 61 60 59 58 58 57 56 55 55 54 53 52 47 48 50 51 50 51 52

GFSSE_sfc_dewp_102.txt.gz
Dewpoint
68 71 74 74 74 75 75 75 75 74 74 73 72 73 72 71 69 69 70 71 71 71 71 71 68 69 69 68 68 69 70 69 69 69 70 70 69 67 69 70 70 68 68
69 71 73 74 74 75 75 75 75 74 74 73 73 73 73 71 70 68 70 71 71 71 71 70 68 68 70 68 67 68 67 67 68 68 68 69 70 69 70 70 70 68 69
70 71 72 73 73 74 75 75 75 74 74 72 71 72 73 71 70 71 70 72 71 71 70 68 68 68 68 68 66 67 67 67 66 67 67 65 67 70 69 69 70 69 70
70 71 71 73 73 73 74 75 74 74 74 73 72 73 72 71 71 72 72 71 71 71 69 68 67 66 65 65 65 64 64 63 65 65 62 63 64 68 68 68 68 68 68
69 70 71 73 73 73 73 74 74 74 74 73 73 73 73 72 72 72 72 72 72 72 69 67 66 64 63 65 65 66 65 65 65 62 61 62 64 65 67 67 67 67 67
69 70 72 73 73 73 73 73 74 74 74 74 73 73 72 72 72 72 72 71 72 71 69 67 65 65 65 66 65 65 65 65 64 62 62 63 61 64 65 64 64 65 66
69 71 72 73 73 73 73 72 73 73 74 74 73 73 72 72 72 72 71 69 71 71 69 67 66 65 65 65 65 65 65 65 61 61 61 62 62 64 64 64 63 63 62
69 71 71 72 72 73 73 73 72 73 73 73 73 72 72 72 72 71 70 69 70 70 69 67 65 65 65 64 64 65 65 63 61 61 62 63 65 64 64 64 64 63 63
70 70 71 71 71 72 72 72 72 72 73 72 72 72 71 71 72 70 70 69 69 70 69 68 66 66 66 65 64 64 65 63 60 61 62 63 66 64 64 64 64 64 63
67 70 70 70 70 70 71 71 71 72 71 71 71 70 69 69 70 69 68 68 70 71 70 70 68 67 66 65 65 64 63 62 59 60 62 63 65 64 64 63 63 63 63
64 66 68 69 69 69 69 69 70 70 70 70 69 68 67 67 67 64 64 65 69 70 70 69 69 69 68 66 64 62 61 57 59 60 61 66 65 63 63 62 62 62 61
62 63 65 65 66 66 68 68 67 69 69 69 68 67 64 64 64 61 63 65 68 68 69 68 68 67 64 60 59 61 57 56 55 60 62 67 65 64 63 63 62 62 61
61 62 62 64 64 64 66 65 67 68 68 68 67 66 65 63 63 63 62 65 65 65 66 66 66 63 59 57 56 55 54 53 54 59 62 67 67 65 66 66 65 65 64
60 61 61 62 62 63 64 63 65 68 68 67 66 65 65 64 63 64 62 64 63 64 63 63 61 59 57 56 56 55 53 53 54 58 60 65 67 65 66 66 67 67 67
59 60 61 61 61 62 61 62 63 65 67 67 66 65 64 64 63 63 63 63 63 63 62 61 60 58 56 55 55 54 54 53 54 56 58 62 65 66 66 65 66 66 66
58 58 60 60 61 62 62 62 62 63 65 66 66 65 65 64 63 63 62 63 63 63 62 61 59 58 56 56 53 53 54 54 55 57 55 58 63 65 66 66 65 65 65
58 57 59 60 60 60 61 62 62 63 63 64 65 66 65 65 64 62 62 62 62 62 61 60 58 57 55 53 52 53 55 55 56 57 55 55 59 62 64 65 66 66 65
57 58 58 59 60 60 61 62 62 64 63 62 62 65 64 64 65 64 62 62 62 60 58 58 57 53 52 54 54 55 55 55 56 57 58 57 58 58 62 65 67 67 66
57 59 59 59 59 60 60 62 62 62 63 63 62 61 61 62 64 64 62 61 60 59 57 56 56 55 55 55 55 55 54 54 55 57 56 57 59 60 60 62 64 64 63
58 59 60 61 59 59 60 61 62 63 62 63 61 58 59 60 61 61 59 58 58 58 57 57 56 57 56 56 55 54 54 54 56 57 55 56 58 60 59 58 59 58 61
57 59 60 60 62 61 61 61 62 61 62 62 61 59 58 59 59 59 58 58 59 58 58 58 57 57 57 57 57 58 59 58 57 56 57 57 57 57 56 56 56 57 60
55 56 59 60 60 60 61 61 62 62 62 62 62 61 59 59 59 58 59 60 61 61 60 59 59 59 58 59 57 57 55 56 59 59 56 55 55 55 54 54 55 57 58
54 54 53 55 60 59 61 61 62 63 63 62 62 61 61 61 61 61 61 61 61 61 61 60 61 60 59 60 61 58 55 53 55 56 55 55 54 54 54 54 54 55 56
53 54 54 55 58 60 60 60 60 60 60 61 60 61 62 62 63 63 62 62 61 61 61 60 61 60 59 58 60 61 59 57 53 52 54 53 52 52 53 51 53 54 55
56 57 57 58 56 59 59 61 59 59 60 61 61 60 61 61 62 62 62 62 61 62 61 61 60 60 60 59 57 58 57 56 55 53 51 52 54 54 53 51 50 52 54
57 58 58 58 59 59 60 61 60 60 59 59 60 59 60 61 61 62 62 62 62 62 61 61 60 60 59 58 58 57 57 55 54 52 51 51 50 50 51 51 50 51 52

GFSSE_sfc_dewp_105.txt.gz
Dewpoint
68 71 74 74 75 75 74 74 74 74 74 73 73 72 72 71 69 70 70 70 70 71 70 68 68 67 69 69 69 68 69 69 70 70 70 69 68 69 70 70 70 65 67
69 71 74 74 75 75 75 75 74 74 74 73 73 72 71 69 69 71 70 72 72 71 70 67 68 67 68 68 68 67 68 68 69 69 69 70 70 70 70 69 70 67 68
69 71 72 74 74 75 75 75 74 74 74 73 73 72 71 69 68 71 71 72 71 71 69 68 68 67 67 67 67 66 66 67 67 68 67 65 68 68 69 69 69 69 69
70 71 71 74 74 75 75 75 74 74 73 73 73 73 72 70 69 70 72 72 71 69 68 67 68 67 67 66 65 65 65 65 65 65 63 64 66 67 67 68 68 68 68
70 70 71 73 74 74 75 74 74 74 73 72 73 73 72 71 71 71 72 72 72 70 68 67 66 65 65 66 66 65 65 65 65 63 62 63 63 65 66 67 66 66 66
69 70 72 73 73 73 74 74 74 73 73 73 73 73 72 73 72 72 72 72 71 70 67 66 64 65 67 67 66 65 65 65 64 62 62 63 62 65 65 64 65 65 66
69 70 71 73 73 73 73 74 74 74 73 73 72 73 72 72 72 72 72 72 71 69 66 65 65 66 66 66 66 66 66 64 61 61 61 62 62 64 64 63 63 62 62
69 71 71 72 73 73 73 73 74 73 73 73 72 72 72 72 72 72 72 72 71 68 66 65 65 66 66 65 65 66 65 63 61 61 61 62 65 64 64 64 64 63 63
69 70 70 71 71 72 72 72 72 73 73 72 72 72 71 71 71 70 70 71 70 69 67 66 65 65 65 65 65 65 65 64 60 61 62 63 66 64 64 64 64 63 63
69 70 70 70 71 71 71 71 71 72 72 72 71 71 69 69 70 69 69 70 70 70 69 68 66 66 66 66 65 65 64 64 59 61 62 63 66 64 64 63 63 63 63
66 67 70 69 69 69 69 70 70 70 71 70 70 68 68 69 68 67 65 68 69 70 70 68 68 68 67 66 64 63 61 58 59 60 61 65 66 64 64 63 62 62 61
63 66 68 68 68 68 69 68 68 70 69 69 69 68 68 67 68 64 63 67 69 70 70 69 69 69 66 61 59 61 56 56 58 60 61 66 65 64 63 63 63 62 61
61 63 66 67 66 68 67 66 67 67 67 67 67 68 66 65 64 62 62 64 66 66 67 67 66 64 60 58 57 56 55 54 54 59 61 66 66 64 64 64 64 64 64
59 62 62 64 65 66 66 66 67 68 68 66 67 66 64 64 63 61 61 64 64 65 65 64 62 61 59 56 55 54 53 52 54 59 60 64 67 66 66 66 67 67 67
58 60 62 62 62 65 65 65 67 67 68 67 65 65 64 64 63 62 61 64 63 64 64 63 60 59 57 55 54 54 54 53 53 55 58 61 65 67 67 66 66 66 66
55 59 61 62 62 62 63 64 65 67 67 67 66 65 64 64 64 64 63 63 63 64 63 62 60 58 56 55 55 54 54 54 53 55 56 58 63 65 67 66 66 66 65
50 57 59 61 61 61 61 62 63 66 67 66 66 66 65 65 65 64 64 63 62 63 62 61 59 58 57 56 55 53 53 54 55 56 57 55 57 62 64 66 66 66 66
50 56 58 61 61 60 61 61 62 63 64 66 66 65 65 65 65 65 64 63 62 62 62 60 58 57 56 54 53 53 54 55 55 56 57 56 56 57 61 65 66 67 66
50 55 57 59 60 60 60 61 62 62 62 63 65 65 64 64 65 65 64 63 62 62 60 59 57 56 54 53 54 54 55 54 55 56 57 57 57 58 58 61 64 64 63
50 54 57 58 58 58 59 60 61 62 62 62 62 63 64 64 64 64 64 63 61 60 59 57 56 56 55 54 55 55 55 55 55 55 56 55 57 59 59 59 60 60 61
51 56 58 58 58 59 59 59 59 58 61 61 62 61 62 63 63 63 62 61 60 60 59 57 56 56 56 56 56 57 58 57 56 56 57 56 57 58 59 58 58 57 60
50 56 58 59 60 59 59 59 59 59 60 61 61 61 60 61 62 62 61 61 60 59 59 58 57 57 57 58 57 56 54 56 58 59 58 56 57 57 56 55 56 57 58
53 55 57 59 59 61 60 61 61 61 61 61 61 61 60 60 61 62 62 61 60 60 59 59 59 59 57 59 59 57 54 53 54 56 56 56 55 55 54 54 55 57 57
53 54 55 58 59 59 60 60 60 59 59 61 61 61 61 60 60 61 61 61 61 61 60 60 60 59 59 58 59 60 59 56 53 51 54 54 55 55 55 55 55 56 56
52 53 53 53 54 57 58 59 60 59 60 61 61 61 61 61 61 61 61 61 61 61 60 60 59 59 59 58 58 58 58 57 54 52 51 52 54 55 56 55 54 54 54
53 54 54 54 53 57 58 58 60 59 59 60 60 59 60 60 61 61 61 61 61 61 60 60 60 60 60 59 58 58 57 55 55 53 51 51 51 51 53 54 53 53 53

GFSSE_sfc_dewp_108.txt.gz
Dewpoint
66 72 74 75 74 74 74 73 74 74 74 74 73 73 72 71 70 69 69 70 71 71 68 68 66 70 68 68 68 69 69 69 70 69 69 70 70 69 70 68 67 65 67
68 72 74 75 75 74 74 74 74 74 74 74 73 72 72 71 69 69 69 71 71 70 67 67 68 68 70 70 67 68 68 69 69 70 70 70 70 70 69 69 68 66 67
70 72 72 75 75 74 74 74 74 74 74 74 72 71 71 69 70 70 71 72 71 70 68 68 66 67 67 67 67 67 68 68 68 68 67 66 67 69 69 69 70 69 69
70 71 70 75 75 74 74 74 74 74 74 73 72 72 70 69 71 71 72 72 71 70 68 69 67 67 67 67 66 65 66 67 67 66 64 65 65 68 67 66 67 68 67
70 70 71 74 75 74 74 74 74 74 74 73 74 73 71 70 71 71 72 71 71 69 69 68 67 67 66 66 66 65 64 65 66 64 63 63 64 65 66 66 66 65 65
69 70 72 74 74 74 74 74 74 74 73 73 73 72 72 72 71 72 72 71 70 69 68 67 66 66 67 67 66 66 65 65 64 62 62 64 63 65 65 66 66 66 66
69 69 71 73 74 74 74 74 74 73 73 73 73 73 72 73 73 72 71 71 70 68 66 65 66 67 67 67 66 66 65 65 61 61 61 61 61 64 64 63 63 63 62
69 70 71 72 73 73 74 74 74 74 73 73 73 73 72 72 72 72 71 71 70 67 65 65 66 67 66 66 66 66 65 63 61 60 61 61 66 64 64 64 64 63 63
68 69 70 71 72 72 72 73 73 73 73 73 72 72 72 71 71 72 71 71 69 67 67 67 66 66 66 66 67 66 65 63 60 61 62 62 66 64 64 64 64 63 63
66 68 69 70 70 70 70 71 71 72 72 72 72 71 70 69 70 70 71 70 70 68 68 68 67 66 66 66 66 66 65 63 59 61 62 62 66 64 64 64 64 63 63
63 66 68 69 69 69 69 70 70 71 71 70 70 69 68 69 69 68 68 69 70 69 68 68 67 67 67 66 65 64 64 60 59 60 61 64 65 64 64 63 63 62 62
55 62 66 68 69 69 70 69 68 69 69 70 70 69 68 68 68 66 65 68 69 69 69 68 68 68 65 61 60 62 57 57 58 59 60 64 66 64 63 63 63 62 62
54 60 64 66 68 67 67 68 68 69 68 67 68 68 67 68 66 63 63 66 68 66 67 68 67 65 61 59 57 57 56 55 55 59 60 64 66 64 64 64 64 63 63
49 56 61 63 64 66 66 67 68 68 68 67 67 67 66 65 65 62 61 65 66 66 66 64 64 61 60 57 56 55 54 53 53 55 60 63 66 66 65 65 65 66 66
47 55 59 62 63 64 66 67 67 68 68 68 66 66 65 64 64 61 61 64 64 64 65 64 63 59 58 56 55 55 54 52 53 54 58 60 64 67 67 66 67 67 67
44 53 58 61 63 63 65 65 66 67 67 67 66 66 64 64 64 62 61 63 63 64 63 63 61 59 57 55 54 54 54 54 54 53 55 58 61 65 66 66 66 66 66
42 47 56 61 62 62 63 63 66 67 67 66 66 65 64 64 64 64 63 64 64 64 63 62 60 59 57 55 55 55 54 53 54 54 55 56 57 62 64 65 66 66 66
44 48 55 60 62 62 62 62 62 64 67 67 67 66 65 65 65 65 64 64 64 63 63 62 60 59 57 56 55 54 54 53 54 55 56 57 56 56 60 64 66 67 67
43 47 53 58 60 61 61 61 62 63 63 64 66 65 65 65 65 64 64 64 64 63 62 61 60 58 56 55 54 54 54 54 55 55 55 57 57 57 57 60 63 64 65
46 48 52 56 59 61 61 60 60 61 62 63 63 65 64 64 65 64 64 64 63 62 61 59 59 57 57 55 54 53 54 55 55 55 55 56 57 58 58 58 60 61 62
45 45 51 55 57 59 59 60 60 60 60 61 62 63 64 64 64 64 63 63 63 61 61 60 59 57 56 56 55 55 56 56 55 55 56 56 56 56 58 59 59 59 59
42 46 51 55 57 58 58 58 58 58 59 60 61 62 62 64 64 63 63 62 60 60 60 60 59 57 56 57 56 56 53 55 58 58 58 56 56 57 57 58 58 57 59
43 46 49 55 57 58 58 59 58 58 58 59 60 60 61 61 63 63 62 61 60 60 59 59 59 58 56 58 58 56 53 53 54 56 56 57 56 56 56 56 56 57 58
46 49 52 55 58 58 59 59 58 57 57 58 59 60 60 60 61 62 62 61 60 59 58 59 60 59 58 57 58 59 58 56 53 52 53 54 55 55 55 55 55 57 58
49 51 53 56 58 59 59 59 58 58 58 59 60 59 60 60 60 61 61 61 60 59 59 60 59 59 59 58 58 58 58 57 55 53 51 52 54 54 54 55 56 56 56
49 52 52 52 54 55 57 58 58 58 58 59 60 60 61 61 60 60 61 61 61 60 60 60 60 60 59 59 59 57 57 56 56 55 52 52 52 53 54 54 54 55 55

GFSSE_sfc_dewp_111.txt.gz
Dewpoint
68 72 75 75 74 74 74 74 75 75 75 75 73 73 73 72 70 69 70 71 71 70 68 66 67 70 69 68 68 70 70 70 69 69 70 70 70 70 67 67 68 65 68
68 72 74 75 75 74 74 74 74 74 74 74 73 72 72 71 70 70 70 71 71 69 67 69 70 69 67 68 69 68 68 69 69 70 70 70 70 70 68 68 69 65 67
69 72 71 74 74 74 74 74 74 74 74 74 74 72 71 70 69 69 70 72 71 69 68 68 69 70 67 67 68 68 68 69 69 69 68 67 68 70 70 69 70 69 69
70 71 70 75 74 74 74 74 74 74 74 73 73 72 71 70 70 70 71 72 71 70 69 69 68 68 67 67 68 68 68 68 68 67 65 65 65 68 67 67 67 68 68
70 71 71 74 74 74 74 74 74 74 74 73 73 72 71 71 70 72 72 71 71 70 70 69 68 68 67 67 66 66 67 67 66 66 65 65 65 65 65 66 65 66 66
70 70 71 73 74 74 74 73 73 74 73 73 73 72 71 71 72 72 72 71 70 70 70 68 67 67 67 67 66 65 65 66 65 64 64 65 64 66 66 66 66 66 65
69 70 70 73 73 74 74 73 73 74 73 73 74 73 72 72 72 72 72 71 70 70 69 67 67 67 67 68 67 66 65 65 62 62 63 63 63 64 64 63 63 63 63
69 70 70 71 72 73 73 73 73 74 73 73 73 73 73 72 72 72 71 71 70 68 67 67 67 67 67 67 66 66 65 64 61 61 62 63 66 64 64 64 64 64 63
67 70 70 70 70 71 72 72 73 73 73 73 73 72 72 71 71 72 71 70 68 67 67 68 68 67 67 67 67 66 65 63 60 61 62 63 67 64 64 64 64 64 63
59 66 69 70 70 70 70 70 71 72 72 72 72 71 70 70 70 71 70 70 69 68 67 68 69 68 67 68 68 67 65 63 60 62 62 62 65 64 64 64 64 63 63
51 56 64 69 69 70 70 70 70 70 70 71 70 69 69 69 69 69 68 69 69 68 68 68 68 68 67 66 67 66 64 59 59 60 61 64 66 64 64 64 63 63 62
46 51 59 65 69 70 70 70 69 70 71 70 70 70 69 69 69 68 67 68 69 68 68 68 68 68 65 61 61 63 61 60 59 60 60 64 66 64 64 64 63 63 62
44 51 54 60 66 69 70 70 70 69 70 71 70 70 70 69 68 67 68 69 68 66 64 65 66 64 63 61 60 59 59 59 58 60 60 63 66 65 64 64 64 64 64
45 46 51 58 63 66 68 69 69 69 69 70 70 70 69 69 68 66 65 67 67 67 66 66 67 65 63 60 58 57 57 57 56 56 60 62 65 66 65 65 65 65 65
43 45 50 56 62 64 66 68 68 68 69 69 69 69 69 68 67 66 63 64 66 67 66 65 65 64 62 59 57 55 55 54 54 54 56 61 63 66 66 66 66 67 67
41 44 49 54 60 63 65 67 67 67 68 68 69 69 68 67 67 65 63 63 65 65 65 65 64 62 60 58 56 55 54 54 54 54 55 57 61 63 65 66 67 67 67
40 43 46 50 58 62 63 65 66 67 68 68 68 67 67 67 66 65 64 64 65 65 64 64 63 62 60 57 55 54 55 55 55 55 55 56 57 61 63 65 65 66 67
41 42 44 47 56 61 63 64 65 66 67 68 67 67 66 65 66 65 65 65 65 65 64 63 62 61 60 58 56 55 55 55 55 54 56 56 58 57 60 64 65 66 67
42 43 45 49 55 59 61 63 64 64 66 67 67 67 66 65 65 65 66 65 64 65 64 63 62 61 60 59 57 55 56 56 56 54 55 56 58 58 58 60 62 64 65
44 45 46 49 53 58 60 63 63 63 64 66 66 65 65 65 65 65 65 65 65 64 64 62 62 60 60 60 57 55 56 56 55 55 55 56 57 59 59 59 59 59 62
46 46 47 48 52 58 58 60 61 61 62 64 65 65 65 65 65 65 65 64 64 64 63 62 61 60 59 59 58 57 57 56 55 55 56 56 57 57 58 59 59 59 60
44 45 46 47 51 56 58 58 61 61 62 63 63 64 65 65 65 65 64 64 63 63 62 61 60 59 60 58 58 57 55 56 59 57 57 56 56 58 58 59 59 60 60
44 45 44 46 50 55 58 60 60 59 60 61 61 62 62 64 65 65 64 64 64 63 61 60 61 61 59 59 58 58 55 54 56 58 58 58 58 57 58 58 59 59 60
45 46 45 46 50 55 58 58 58 59 58 59 59 61 61 62 62 65 65 64 64 63 62 61 61 61 59 58 58 58 59 58 56 54 56 56 57 57 58 58 57 58 59
48 49 48 48 52 56 58 56 57 58 59 59 59 59 60 61 61 62 63 63 62 62 61 60 60 60 60 57 58 58 58 59 58 56 54 55 55 55 56 57 57 57 58
52 50 51 53 55 57 56 57 57 57 58 59 60 60 60 61 61 61 62 62 62 61 61 60 60 60 59 59 58 58 57 57 57 56 55 55 55 56 56 57 57 58 58

GFSSE_sfc_dewp_114.txt.gz
Dewpoint
67 69 74 74 74 74 74 74 75 74 75 74 72 72 73 71 69 70 71 69 70 69 67 67 69 70 68 69 70 70 70 69 69 70 70 71 70 67 68 67 69 65 69
68 68 74 75 74 75 75 75 75 75 74 74 73 73 72 71 69 70 71 70 69 68 67 67 70 69 68 69 69 69 69 69 70 70 70 70 70 67 67 67 69 65 68
68 68 70 74 74 74 74 75 74 75 74 73 74 72 71 71 69 70 71 71 70 69 69 70 69 67 68 68 67 68 69 69 69 69 69 67 68 70 69 69 70 70 70
68 69 68 74 74 74 75 74 74 74 74 73 73 73 71 71 69 69 71 71 71 71 70 71 70 69 67 68 68 68 68 69 68 68 63 65 64 68 68 68 68 68 68
68 69 68 73 74 74 74 74 74 74 74 73 74 73 72 70 69 69 72 72 71 70 71 69 68 68 67 67 68 68 67 68 67 65 62 63 62 65 67 66 66 66 66
68 69 71 73 73 74 73 74 74 74 74 73 73 73 72 72 70 72 72 71 71 71 70 68 68 67 67 66 65 65 67 66 66 62 60 62 61 66 66 66 66 65 64
69 69 68 73 73 73 74 73 73 74 74 73 73 72 72 72 72 72 72 71 71 70 69 68 67 67 67 67 66 65 65 65 58 58 59 59 62 64 64 63 63 63 63
67 69 68 71 72 72 73 73 73 73 73 73 73 73 72 72 73 72 72 71 71 69 68 68 67 67 67 67 67 66 65 64 57 56 58 60 65 64 64 64 64 63 63
58 68 69 68 69 71 71 71 72 73 73 73 73 73 72 71 72 72 71 71 70 69 69 69 68 67 67 67 67 66 65 64 56 57 57 59 66 64 64 64 64 63 63
44 52 66 68 67 67 68 71 71 72 72 72 72 71 70 70 70 71 70 70 70 69 68 69 69 67 67 69 68 66 65 63 56 58 58 60 65 64 64 64 64 63 63
43 45 50 64 67 66 67 67 70 70 70 70 69 69 68 67 67 68 68 68 69 68 68 69 69 69 68 67 68 66 64 56 56 56 57 65 66 64 64 64 64 63 63
42 42 45 50 64 68 67 66 67 67 68 67 67 68 67 66 66 66 66 68 69 68 68 69 69 68 66 59 61 64 59 58 57 57 57 64 66 65 64 64 64 63 62
42 42 45 45 53 66 69 69 65 64 66 66 65 66 65 64 66 66 69 69 67 66 63 64 65 62 60 58 58 57 58 58 56 58 59 63 65 66 65 64 64 64 64
40 42 43 44 47 58 68 69 66 63 63 65 66 66 65 65 64 65 66 68 66 64 62 59 58 58 59 59 57 56 57 57 56 56 58 63 64 65 66 65 65 65 65
38 41 42 44 45 53 62 68 68 65 64 64 65 65 64 64 64 64 64 65 66 64 62 60 58 59 59 57 56 55 54 55 55 54 54 62 63 64 66 67 66 67 67
38 39 42 42 43 50 57 65 68 67 64 64 65 64 65 63 64 64 63 63 64 63 63 61 57 56 57 57 55 54 53 52 53 53 54 55 62 63 64 65 67 68 67
36 39 41 42 43 44 54 61 66 68 67 66 66 66 65 66 65 65 65 63 63 63 63 64 61 60 59 57 55 53 53 52 52 52 54 55 56 61 63 64 65 66 67
39 39 40 39 40 42 49 57 64 67 66 67 67 67 67 66 67 66 66 63 63 64 65 64 62 61 59 57 55 54 52 52 53 53 54 55 56 56 60 63 65 66 67
39 40 41 43 42 39 45 52 60 65 67 67 68 67 66 66 67 67 68 65 64 65 66 65 63 62 61 61 58 55 53 52 53 53 53 54 56 58 58 61 62 64 65
42 41 41 42 43 40 44 52 60 64 65 66 66 66 66 65 65 66 66 66 66 66 65 65 63 63 62 60 58 56 55 53 54 55 55 53 54 56 59 59 60 59 61
44 44 43 43 43 43 42 51 57 60 63 65 66 65 65 65 65 65 66 65 65 65 65 64 63 62 61 61 60 59 59 57 54 56 56 55 55 55 57 58 59 60 60
44 44 44 43 43 44 43 47 55 59 61 64 65 65 65 65 65 65 65 65 65 64 64 64 63 62 61 61 58 57 51 51 54 54 54 54 55 55 56 57 57 59 60
44 44 43 44 44 44 46 51 56 60 62 62 63 64 64 64 65 65 65 65 65 65 64 63 63 62 59 59 59 54 52 50 51 57 56 55 56 55 57 57 58 60 60
48 48 46 45 45 45 47 51 54 57 58 60 61 63 63 63 65 65 65 65 65 64 63 63 64 63 61 58 59 59 57 54 52 53 57 57 58 58 58 59 58 59 60
50 50 50 48 46 45 48 50 51 53 57 60 61 61 62 62 63 63 65 64 64 64 63 63 63 63 62 60 59 58 58 59 57 56 51 53 56 56 57 58 58 58 59
51 53 54 50 48 46 48 50 51 54 56 59 59 59 59 60 60 60 61 62 63 63 62 62 62 62 62 60 59 58 57 56 56 56 56 55 57 56 58 58 59 58 59

GFSSE_sfc_dewp_117.txt.gz
Dewpoint
65 70 74 75 74 74 74 75 74 74 74 73 72 72 72 71 69 69 68 69 68 67 67 68 69 70 69 70 70 70 70 70 70 70 71 70 68 68 68 67 69 65 68
64 68 74 75 75 74 75 75 74 74 74 74 73 72 72 70 69 71 70 69 68 68 67 68 70 68 69 69 70 69 69 70 70 71 71 69 69 67 67 70 69 67 69
65 67 70 75 75 75 75 75 74 74 74 74 74 73 71 70 69 70 72 69 70 68 68 69 69 69 69 68 68 67 69 69 69 69 69 68 68 70 69 70 70 70 69
66 68 69 74 75 75 75 75 75 75 74 74 73 73 72 70 69 70 72 71 71 70 70 71 70 68 68 68 68 68 69 69 67 68 65 64 65 68 68 68 68 68 68
67 68 69 73 74 74 75 75 74 75 74 73 74 73 72 71 69 69 71 71 71 71 71 71 69 68 68 68 68 68 68 68 67 64 61 63 63 66 67 66 66 66 66
68 69 72 73 73 74 74 74 74 74 74 73 73 73 73 71 69 70 72 71 71 71 70 69 68 67 67 68 67 67 67 66 67 59 61 61 64 66 66 66 65 64 64
66 68 69 73 73 73 73 73 74 73 74 73 73 72 71 71 71 72 72 71 72 71 70 68 68 67 66 66 64 65 66 65 61 57 58 60 63 65 64 64 63 63 63
56 67 69 71 72 72 72 72 73 73 73 73 73 73 72 72 72 72 72 71 71 70 69 68 68 67 67 66 66 65 65 65 56 55 57 61 65 64 64 64 64 63 63
48 55 68 69 69 71 71 72 72 72 72 73 72 72 72 72 72 72 72 71 70 70 70 69 68 68 67 67 67 66 64 64 59 55 56 60 66 64 64 64 64 63 63
44 47 54 66 67 68 68 71 71 71 71 71 71 71 69 70 70 71 70 70 70 70 70 69 69 68 68 68 67 66 64 63 57 57 56 63 66 65 64 64 63 63 62
44 44 46 53 65 65 66 68 70 70 70 70 70 69 68 68 67 67 67 69 69 70 69 69 69 69 68 69 68 65 64 55 54 55 56 66 65 64 64 64 64 63 62
41 43 44 46 52 65 67 65 68 68 68 66 66 67 67 66 65 65 65 68 69 69 68 69 70 69 66 61 64 64 59 57 56 56 57 66 66 65 64 64 64 63 63
38 40 44 44 45 53 66 68 65 65 66 66 65 64 65 63 63 66 70 68 67 66 63 66 66 64 60 57 57 58 58 56 55 56 60 65 65 66 65 65 65 64 64
41 41 41 43 43 47 57 68 67 63 64 64 64 63 63 62 63 63 67 69 69 65 62 61 59 59 58 57 56 55 55 56 55 56 58 63 64 65 66 66 65 65 65
36 40 44 42 43 43 50 61 68 66 61 61 63 63 63 63 63 62 65 66 67 66 62 60 57 56 56 57 56 54 54 54 54 55 55 62 64 64 65 66 66 66 66
36 39 42 41 42 44 47 54 64 67 66 63 63 64 63 63 63 63 62 65 66 65 63 61 57 56 56 56 54 53 52 51 52 53 53 57 63 64 65 65 66 68 67
34 39 42 42 41 40 45 51 57 66 68 67 65 65 64 64 63 62 62 62 65 66 64 62 59 56 55 54 54 54 52 51 51 50 52 54 58 62 64 64 65 65 66
39 40 41 39 39 39 42 47 53 63 67 68 68 67 66 65 66 65 64 64 64 65 66 65 61 58 58 56 55 54 52 52 51 50 52 53 56 55 61 64 65 65 67
40 41 42 42 40 38 36 42 51 57 66 67 67 67 66 66 66 67 67 65 65 66 65 66 63 61 58 57 56 56 54 53 51 50 52 53 55 57 58 62 62 63 65
43 42 43 41 41 40 41 41 49 54 64 66 66 66 65 65 66 66 67 67 66 67 65 66 64 63 61 60 58 57 57 55 54 53 53 53 54 56 58 59 61 60 62
45 43 43 43 41 42 43 41 46 52 59 64 66 66 65 65 65 66 66 66 66 65 65 65 64 63 62 62 60 60 59 59 56 54 55 55 55 55 56 58 60 60 60
44 44 44 43 43 42 44 43 45 52 57 61 65 65 65 64 65 64 65 66 65 65 64 64 63 62 62 63 60 58 55 55 57 57 55 55 55 55 55 56 58 59 61
47 45 44 45 46 45 45 47 47 52 59 60 62 64 65 65 65 65 65 66 65 65 64 64 64 63 62 62 62 58 54 51 50 53 53 54 53 54 55 56 57 58 59
46 51 48 47 46 46 47 46 46 51 55 58 61 63 64 65 64 65 65 65 65 65 64 64 64 63 63 61 62 60 58 55 53 51 53 54 56 54 56 57 58 59 60
45 48 52 50 48 46 47 47 48 50 53 56 60 61 62 64 64 65 65 65 65 65 64 64 64 63 63 62 61 59 58 58 56 55 52 53 56 57 58 58 59 59 59
46 46 51 51 50 48 46 46 48 50 50 55 58 60 61 62 63 63 64 64 64 64 63 63 63 63 62 61 61 60 58 57 57 56 55 53 52 55 58 58 58 58 59